GEFSMW_500_meanwind_000.txt.gz
Wind_Speed
47 48 50 50 50 50 50 51 51 52 52 55 54 57 61 63 59 59 61 60 57 56 59 66 62 54 49 45 42 39 37 37 36 36 35 33 30 30 31 31 31 31 30
44 45 45 45 45 47 48 50 51 53 54 53 51 57 65 63 53 57 64 67 60 55 58 62 69 63 55 50 45 41 39 37 36 34 31 29 31 31 30 32 33 32 33
38 40 41 42 44 45 46 47 46 48 48 47 49 50 53 59 61 66 71 66 57 52 51 61 63 58 56 48 46 43 38 36 33 32 30 30 30 31 32 33 35 33 31
40 41 42 42 42 43 43 43 43 44 44 44 45 47 48 47 51 56 59 60 57 51 47 48 36 48 54 45 44 49 44 39 36 35 35 36 35 33 30 30 34 34 30
38 39 39 38 37 37 36 36 38 40 41 40 42 45 49 49 49 50 50 49 49 49 44 43 31 32 42 45 39 49 55 51 45 42 38 36 35 33 28 27 29 31 30
31 31 31 31 32 33 34 35 38 40 42 42 42 44 47 49 49 48 47 45 43 45 43 39 41 39 37 38 42 47 47 52 48 41 35 35 33 30 27 26 26 28 29
29 30 31 32 34 37 38 39 40 41 41 43 45 47 48 50 51 49 45 42 42 43 42 40 38 42 43 40 41 41 39 40 38 36 35 34 30 28 27 27 26 26 28
31 32 32 32 34 37 39 40 39 39 42 44 47 49 48 51 52 48 40 33 32 35 32 28 31 37 34 33 35 35 37 36 34 34 35 32 29 28 28 28 27 26 29
33 34 34 34 36 37 38 38 38 40 44 47 49 45 47 47 46 43 36 28 26 26 24 25 27 29 25 25 29 32 35 34 34 34 33 30 28 29 30 30 29 29 31
34 35 36 36 37 36 37 38 39 41 45 44 42 41 38 36 37 37 38 32 25 21 19 22 20 18 21 26 29 29 30 32 33 33 30 28 27 30 31 31 31 30 30
36 37 38 38 38 37 36 37 38 41 40 37 35 29 29 27 32 37 35 32 26 22 21 21 18 21 25 29 31 30 28 28 28 29 28 30 31 30 32 31 33 32 31
36 36 37 38 37 35 31 34 37 38 37 36 29 25 21 22 23 23 23 21 28 29 26 22 23 26 26 27 28 28 27 27 27 28 29 30 30 30 32 34 35 36 36
34 35 35 34 33 30 28 32 31 32 36 29 16 17 17 16 18 20 24 28 29 28 27 25 26 27 24 23 23 24 26 27 28 29 29 30 30 32 34 35 36 39 41
30 31 31 30 29 26 27 27 27 30 34 29 35 29 23 19 17 22 27 33 34 30 24 23 23 24 23 23 24 24 25 26 28 29 30 30 31 33 33 35 37 39 41
29 31 30 27 25 24 25 24 26 31 35 32 31 31 28 25 17 10 17 24 25 25 20 19 19 19 21 23 23 23 25 27 29 29 29 30 31 33 33 34 35 36 38
27 29 25 23 22 21 21 22 24 30 32 27 22 20 21 17 15 11 9 12 15 17 19 21 18 19 21 21 22 23 25 25 26 28 29 31 32 34 34 34 34 33 34
26 25 22 21 19 16 16 19 22 26 26 20 15 15 18 21 18 16 15 15 18 19 20 21 20 19 19 20 21 20 21 22 24 27 30 31 32 33 34 34 34 35 35
25 25 23 20 18 16 14 15 16 17 18 16 12 11 14 17 18 16 18 20 17 17 18 19 17 17 16 15 15 15 17 19 21 23 25 28 30 31 31 32 32 34 35
25 25 24 21 18 17 15 13 13 14 14 14 13 12 13 14 16 17 21 22 22 21 18 20 18 17 15 15 15 16 18 19 20 21 23 25 27 28 29 29 31 32 33
24 24 24 22 18 15 14 12 9 8 10 12 14 17 18 20 21 20 22 26 26 23 20 18 17 17 17 17 17 17 17 19 21 23 25 26 26 27 26 26 26 27 28
25 23 23 24 19 14 13 11 8 6 6 8 10 14 16 17 16 16 20 23 22 20 19 16 16 17 15 15 16 17 21 23 22 20 19 19 19 21 22 25 28 31 34
28 22 22 23 20 19 18 17 14 11 10 12 12 13 13 13 12 12 13 13 11 11 10 9 10 12 13 14 18 20 20 16 14 15 15 16 18 22 26 29 31 34 37
31 25 25 25 22 21 20 20 19 16 15 14 12 11 10 9 8 7 6 7 9 9 7 8 10 11 13 16 16 15 14 13 14 16 17 18 22 25 24 24 26 30 32
36 30 27 26 25 25 24 22 20 18 17 14 11 8 6 5 5 5 5 7 8 9 9 10 11 12 13 13 13 14 13 14 16 16 17 19 22 21 21 24 25 26 26
37 33 30 29 29 29 27 26 25 21 19 16 13 10 7 6 5 6 7 7 8 9 9 10 11 12 14 15 15 13 12 14 14 14 17 19 19 19 21 23 23 22 20
39 35 33 33 29 29 29 27 25 23 21 20 17 16 13 11 10 10 9 9 10 10 11 11 12 13 13 13 12 11 12 13 13 14 16 16 17 19 22 23 21 19 20

GEFSMW_500_meanwind_006.txt.gz
Wind_Speed
40 40 41 40 40 40 41 41 41 42 42 42 42 42 43 43 43 44 45 47 49 50 51 53 54 55 57 59 60 58 54 52 53 52 51 49 47 46 46 43 42 41 38
38 39 39 40 40 40 40 41 42 43 43 44 44 43 43 43 43 45 46 47 48 49 50 51 53 54 53 54 55 57 56 56 57 58 57 54 50 50 48 45 42 41 37
37 37 39 41 42 43 43 43 44 45 45 46 46 45 44 44 45 46 47 47 49 50 51 51 51 51 51 50 51 54 54 56 57 57 56 55 52 50 49 46 41 39 35
35 36 37 38 39 40 41 42 43 43 43 45 45 45 44 45 46 47 48 49 51 52 53 52 51 50 49 49 50 51 52 51 50 48 48 48 46 46 46 43 40 37 34
33 34 35 36 37 37 38 38 38 38 39 40 41 42 43 44 45 47 48 49 49 50 52 53 52 51 50 49 48 48 48 47 42 40 41 43 44 44 43 41 38 37 37
33 33 34 34 35 36 36 37 38 38 38 39 40 42 43 44 45 46 47 48 49 49 50 53 54 54 53 51 49 48 46 43 39 36 38 41 44 44 43 41 38 39 41
37 37 37 37 36 37 37 38 39 40 41 42 45 46 47 47 47 48 49 50 50 50 50 51 53 54 54 52 49 47 45 42 38 36 37 40 42 45 45 44 44 44 41
42 42 41 40 40 40 39 39 40 41 43 45 46 48 50 49 49 50 51 50 50 49 49 48 49 48 49 49 48 45 43 41 39 40 40 42 46 48 48 47 45 39 35
42 44 44 44 44 43 42 42 42 43 44 45 46 47 48 48 48 49 49 50 50 49 48 46 45 43 42 41 40 38 36 35 37 40 42 45 48 49 46 42 37 33 32
40 41 43 43 44 44 44 44 44 44 44 44 44 45 45 46 46 46 48 49 48 45 42 39 37 35 33 32 30 29 29 31 33 34 36 40 41 39 36 32 31 31 31
36 39 41 42 43 43 43 43 43 42 43 43 42 42 43 43 43 44 44 43 39 37 34 32 30 28 27 27 28 27 27 27 26 26 26 27 27 27 27 28 29 31 31
36 38 40 41 42 42 42 41 40 39 40 40 40 39 39 39 39 39 36 33 31 29 26 26 26 26 26 26 26 24 22 22 22 21 20 21 22 24 25 27 28 30 31
39 40 40 41 42 42 41 41 38 37 37 36 36 35 35 34 33 31 28 26 24 22 22 23 24 25 24 22 21 21 21 21 22 23 23 24 25 26 27 28 28 29 30
38 40 42 42 41 40 40 39 37 36 34 32 31 31 30 29 26 23 21 20 20 18 20 21 22 22 22 21 21 21 22 22 22 22 22 24 25 25 26 26 27 27 28
39 40 42 42 41 40 39 37 34 32 31 28 27 26 25 23 19 18 17 15 14 15 18 21 22 20 20 21 23 24 23 22 22 21 21 21 22 22 23 23 24 25 27
41 41 42 42 41 40 39 36 32 30 29 26 24 23 22 18 16 15 14 13 11 10 12 16 18 18 19 21 22 22 22 22 21 20 20 19 19 19 20 21 23 25 27
42 42 42 42 41 41 40 36 33 31 29 27 24 22 20 17 15 15 14 13 10 9 7 8 11 13 15 17 18 19 19 18 18 17 17 17 17 18 20 21 23 25 27
44 43 42 42 42 41 40 37 33 32 30 28 26 23 19 16 14 14 14 13 10 9 9 9 10 12 14 16 17 17 17 16 16 16 16 16 17 17 19 20 22 24 25
48 47 44 41 41 41 41 38 33 32 30 28 26 22 18 15 14 14 13 12 13 12 13 12 12 12 14 14 15 16 15 14 14 14 14 14 15 16 17 18 18 18 19
48 49 46 42 40 39 39 38 33 31 30 28 24 21 17 15 13 13 13 13 14 16 17 17 16 15 14 14 14 14 14 14 13 12 13 14 15 14 13 12 14 16 19
48 48 47 44 39 38 37 36 33 31 30 27 22 19 17 16 14 13 13 13 14 15 16 17 16 14 13 14 14 14 14 12 11 12 13 11 8 9 10 13 16 19 22
47 45 45 43 39 37 36 34 33 32 30 27 23 20 18 17 16 15 13 12 12 11 11 11 10 10 9 10 10 10 10 10 10 11 10 8 8 10 12 14 17 20 23
50 44 43 43 39 37 37 35 33 33 32 30 27 24 21 19 17 15 13 12 10 9 9 8 7 7 6 6 6 7 8 9 9 9 9 9 11 11 13 16 19 22 25
57 48 44 44 41 38 39 34 32 32 33 33 32 29 25 22 19 16 14 12 10 10 9 8 7 6 6 6 6 6 7 8 8 9 10 11 11 11 13 16 20 23 26
58 53 48 46 44 42 40 34 32 32 33 34 35 32 29 25 21 17 15 14 12 11 10 9 8 7 7 7 8 8 9 10 10 10 11 11 11 12 13 16 18 21 24
63 55 50 48 47 44 41 37 35 34 34 35 37 35 31 28 24 20 17 15 14 13 12 10 9 8 9 9 10 10 11 12 12 12 12 11 11 12 14 15 16 20 25

GEFSMW_500_meanwind_012.txt.gz
Wind_Speed
28 27 29 31 32 33 34 34 35 36 38 38 39 39 40 40 40 40 40 40 41 41 41 41 42 42 43 43 43 42 41 40 40 41 40 38 37 37 38 39 39 39 40
26 27 29 31 31 32 33 35 35 35 36 37 38 38 38 38 38 38 38 39 39 39 39 39 40 40 41 41 41 42 41 41 41 42 42 40 38 38 39 40 40 40 41
27 29 31 31 32 33 35 36 36 36 36 37 38 38 38 36 35 36 36 36 36 36 36 37 38 39 40 41 41 42 42 42 42 43 43 42 39 38 37 38 38 37 36
27 29 30 32 32 34 36 36 36 36 37 38 38 39 40 39 39 38 38 38 37 37 38 38 39 40 41 41 42 42 42 42 42 43 43 43 41 39 37 37 36 33 31
24 28 30 31 32 33 34 36 38 39 40 41 41 41 41 42 42 41 41 40 40 40 41 41 42 42 42 42 43 43 43 43 43 43 44 44 43 41 40 37 35 33 31
26 28 29 29 30 31 33 34 37 38 40 42 43 43 43 43 43 42 42 41 41 41 41 42 42 42 43 43 44 45 44 44 44 45 45 45 44 43 41 37 35 34 33
27 27 28 28 29 29 31 32 34 36 38 40 41 43 43 44 44 44 43 42 41 40 40 40 41 41 42 43 44 44 45 45 46 46 45 45 44 42 39 37 35 33 31
27 27 29 30 31 31 33 34 36 37 38 39 39 40 41 42 43 44 45 44 43 42 41 41 41 41 42 43 43 44 45 46 46 45 43 42 40 38 36 34 32 31 31
28 30 32 33 34 35 36 38 38 39 39 40 40 39 39 40 41 42 43 44 44 43 42 42 42 42 43 43 43 42 42 42 41 40 38 36 33 31 29 30 31 31 32
30 32 33 33 34 35 37 38 39 40 40 41 41 40 39 38 39 40 40 40 41 41 41 42 42 42 41 40 39 37 35 34 32 31 30 28 27 26 26 28 29 30 31
31 33 35 35 35 36 37 39 39 40 41 41 41 40 38 37 37 38 38 38 37 38 39 39 39 38 36 34 32 29 27 26 24 23 23 23 23 25 26 27 28 29 29
34 36 39 40 39 38 38 39 40 40 41 42 41 40 38 36 34 34 34 33 34 34 34 33 33 32 30 28 25 24 23 22 21 21 21 22 23 24 24 23 22 22 21
38 40 43 45 44 42 40 40 41 40 40 41 41 39 37 35 32 30 29 29 29 29 29 29 28 27 26 23 21 21 21 21 22 21 20 19 19 18 18 17 16 15 14
43 45 47 48 48 47 45 43 43 42 41 40 39 38 36 35 32 30 28 27 26 26 25 25 24 22 20 19 19 20 22 23 22 22 19 17 15 14 14 14 14 14 14
47 48 49 50 51 51 50 48 45 44 42 39 38 36 35 34 32 30 28 26 24 23 23 22 20 18 17 18 19 20 22 22 21 19 17 15 14 14 13 13 13 14 15
51 51 52 52 53 54 53 51 47 44 42 39 36 35 34 32 31 30 28 25 23 22 21 19 17 15 15 15 17 18 19 19 18 17 15 14 13 12 12 12 13 14 15
57 58 57 57 56 56 55 53 48 44 42 39 36 34 32 31 30 29 27 25 22 21 19 17 14 12 11 14 16 17 16 16 15 14 13 12 12 12 13 13 14 14 15
62 63 63 62 61 60 58 55 50 44 41 39 37 34 32 30 28 27 26 24 22 20 18 15 13 11 10 11 12 13 14 14 14 13 12 12 12 12 12 12 12 12 13
67 68 69 69 68 65 61 58 52 46 42 39 38 35 32 29 28 27 25 23 21 18 17 16 15 13 12 11 11 12 13 12 12 12 11 10 10 10 10 10 11 12 12
73 74 74 74 72 69 65 61 56 50 45 40 38 36 34 31 28 26 25 23 21 18 17 16 16 16 15 13 12 12 13 13 12 11 10 10 9 9 10 10 9 9 8
79 80 80 79 76 74 70 67 62 54 49 45 41 37 36 33 30 27 25 23 20 18 16 16 17 16 14 13 12 11 12 13 12 11 11 10 9 9 9 8 8 8 8
80 79 76 73 70 70 69 67 63 57 52 48 44 40 37 36 32 28 26 23 20 18 16 15 15 14 13 12 12 13 12 13 13 12 11 10 9 9 9 9 8 7 8
69 62 57 54 53 54 55 55 56 56 54 52 49 44 39 37 34 31 28 24 20 18 17 15 13 11 11 11 12 12 12 12 13 12 11 11 10 10 9 8 8 8 9
48 46 45 45 44 45 45 45 47 51 54 54 51 47 42 38 36 33 30 26 21 18 17 15 13 12 12 12 12 12 12 12 12 12 12 11 10 10 10 9 9 9 10
40 41 42 42 42 42 42 42 42 45 50 53 52 47 42 40 37 35 33 28 24 20 19 17 16 15 14 14 13 13 13 13 13 13 12 12 11 11 11 10 10 10 10
42 43 43 42 42 41 40 39 39 43 46 48 49 47 44 41 39 37 35 31 26 22 21 20 19 18 16 14 13 13 14 14 14 13 13 12 12 11 11 11 10 10 11

GEFSMW_500_meanwind_018.txt.gz
Wind_Speed
29 31 32 34 35 35 34 33 31 30 30 30 30 31 32 33 35 36 37 38 38 39 40 40 40 40 40 39 39 40 41 40 40 41 39 38 38 37 36 36 35 34 34
32 33 34 34 34 34 33 33 32 30 30 30 31 32 33 35 36 37 38 39 39 39 39 39 39 38 38 37 37 38 38 37 38 39 38 37 36 36 37 37 36 34 34
34 33 33 33 31 32 32 32 32 31 31 31 31 31 32 33 35 36 38 40 41 41 40 40 40 40 39 38 38 37 37 36 37 38 38 37 35 36 36 36 36 34 34
34 33 30 28 29 31 31 32 32 30 29 28 28 28 29 30 32 34 36 37 39 40 41 41 41 41 41 40 39 38 38 37 37 38 38 38 36 36 35 36 37 36 35
29 26 25 26 28 30 31 31 29 27 25 24 23 23 25 27 29 32 34 35 37 38 39 40 41 41 42 41 40 39 38 38 37 38 38 38 38 37 36 35 35 36 35
25 23 23 25 28 29 30 28 25 23 22 21 21 22 24 26 28 30 33 34 35 37 37 38 39 41 41 42 41 40 39 38 38 38 38 38 38 38 36 35 35 36 36
24 24 24 25 26 27 27 25 24 23 23 23 24 25 26 28 29 31 33 35 35 35 35 36 37 38 40 41 41 41 40 39 38 38 38 38 38 37 37 36 35 35 35
24 23 23 23 25 26 26 25 24 25 26 27 29 30 31 32 33 33 34 36 36 35 34 33 34 36 37 38 40 40 41 40 39 39 39 38 37 37 36 36 35 34 34
22 21 22 24 25 27 28 29 29 30 32 33 34 36 37 37 37 36 36 37 37 36 35 33 32 32 34 35 37 38 39 39 40 39 38 37 37 36 36 35 33 32 31
24 25 26 28 30 32 33 34 35 35 36 37 38 39 40 41 41 40 39 38 37 36 36 34 31 30 30 31 33 34 35 36 37 37 36 36 36 35 33 32 30 30 28
30 31 32 33 35 37 39 40 40 40 41 41 41 41 42 42 42 42 40 39 37 36 36 34 31 29 28 29 29 30 31 31 32 32 32 31 31 30 29 27 27 27 26
36 37 38 40 41 43 44 45 46 46 45 45 44 44 44 44 43 43 41 39 37 36 35 34 32 29 28 27 27 26 26 26 26 26 27 27 26 25 25 24 24 24 25
41 43 44 46 47 48 49 49 50 51 50 50 48 48 47 45 44 43 41 39 37 35 34 34 32 29 27 26 25 23 23 22 22 22 23 24 24 23 23 24 24 24 25
47 48 50 52 53 53 54 54 54 55 54 54 53 52 50 49 46 44 42 40 38 35 34 33 31 28 27 26 24 22 21 20 20 21 22 22 22 22 22 23 23 24 24
52 54 55 56 57 58 58 58 58 58 58 58 58 56 54 53 50 47 44 42 39 35 33 32 31 28 26 24 23 21 19 18 19 19 20 21 22 22 21 22 22 21 20
58 60 61 62 63 64 64 63 62 62 63 63 62 61 59 57 55 52 48 44 40 36 33 32 30 28 25 23 22 20 18 18 18 19 20 20 20 19 19 19 19 18 17
62 64 65 66 66 67 68 70 70 70 70 69 68 66 64 62 59 55 50 46 42 38 34 32 29 27 24 21 20 20 19 19 19 18 17 17 17 15 16 17 17 16 16
69 72 74 76 78 80 81 81 79 79 78 76 74 72 70 67 63 57 50 46 42 38 35 32 29 26 23 20 19 18 16 17 18 18 16 15 15 15 15 15 15 15 13
79 81 83 85 86 87 87 86 85 84 82 80 77 74 71 67 63 56 49 46 43 40 36 32 29 26 23 20 18 16 15 14 15 15 15 14 14 15 14 14 13 13 12
82 84 84 85 85 85 85 85 82 79 75 71 67 63 61 59 57 54 49 47 44 41 38 33 30 27 24 21 19 16 15 14 14 14 14 13 13 14 14 13 12 12 11
79 77 74 72 71 70 69 68 65 60 55 52 49 46 46 47 48 50 49 48 45 43 39 34 31 28 25 22 19 17 15 15 14 14 14 13 13 14 13 12 12 11 10
63 60 58 54 52 51 50 48 44 40 38 35 33 33 33 34 38 44 48 48 46 44 40 35 31 29 26 22 20 18 16 14 14 15 15 15 15 14 13 12 11 10 10
49 47 46 44 42 42 42 40 37 35 32 31 30 30 30 30 31 38 47 50 46 44 41 36 32 30 26 23 20 18 16 15 14 15 16 16 15 14 13 12 11 11 10
43 43 43 42 41 40 39 39 38 37 35 34 33 32 31 30 30 34 45 50 47 44 42 37 33 30 27 23 21 19 17 17 16 16 16 16 15 14 13 12 12 11 10
45 45 46 47 46 45 43 42 41 40 39 38 35 33 31 30 30 33 44 50 45 42 41 37 32 29 26 24 22 20 19 18 18 18 17 16 15 15 14 13 13 11 10
50 51 53 53 51 50 47 44 43 42 40 38 35 33 32 30 31 33 42 49 46 42 41 37 33 31 29 27 24 22 21 20 19 19 18 17 16 15 14 13 13 12 10

GEFSMW_500_meanwind_024.txt.gz
Wind_Speed
33 34 34 35 36 37 38 38 37 36 33 30 28 26 25 23 21 20 19 19 19 19 21 23 26 29 32 35 38 40 40 40 40 40 38 37 36 36 36 37 37 37 36
32 34 35 36 37 38 39 39 38 36 32 29 27 25 22 19 17 16 16 16 17 18 19 21 24 26 29 32 35 38 40 41 41 41 40 38 37 36 35 36 37 37 37
32 34 36 38 39 40 40 39 38 35 31 28 26 23 19 17 16 16 17 17 18 19 19 21 23 25 27 29 32 35 37 39 41 42 41 40 37 36 35 35 36 36 36
34 36 38 39 39 39 38 37 35 33 31 28 25 23 21 20 19 20 21 21 22 22 22 23 24 26 27 29 30 31 34 36 39 40 41 40 39 38 36 36 35 36 37
33 35 37 37 37 36 35 36 36 34 32 29 27 25 24 24 24 25 25 26 26 25 25 25 25 26 27 28 29 30 31 33 35 37 39 40 39 38 37 36 36 36 37
29 31 32 34 35 35 36 36 35 34 33 31 30 29 28 29 29 29 29 28 28 27 26 25 26 27 28 29 29 29 29 30 32 34 36 37 38 38 37 36 36 37 36
26 29 31 33 35 36 36 36 35 35 35 34 33 32 32 32 32 32 31 30 29 28 27 26 26 27 28 29 29 29 29 29 30 31 33 35 36 37 37 36 36 36 36
28 30 33 35 36 37 36 37 37 38 38 38 37 36 35 35 35 34 34 32 31 29 28 27 27 27 27 28 29 28 28 28 28 29 31 32 33 35 35 35 35 35 35
30 32 33 35 37 38 39 39 41 42 42 42 41 40 39 39 38 37 36 34 32 31 29 28 27 26 27 27 28 28 28 28 27 27 28 30 31 33 34 35 35 35 35
36 37 38 39 40 41 43 44 45 46 46 46 46 44 43 42 41 40 38 36 34 32 30 29 27 26 26 27 27 28 28 27 27 26 26 27 29 30 32 33 34 34 35
40 42 43 44 45 46 47 48 49 50 50 51 50 50 49 48 46 44 42 39 37 34 32 30 28 27 26 27 27 28 28 27 27 26 26 26 26 28 30 31 32 33 34
43 44 46 48 49 50 52 53 53 55 55 56 56 56 56 54 52 50 47 43 40 37 34 31 29 28 27 27 27 28 28 28 27 26 25 25 24 25 27 29 31 32 33
45 47 49 51 53 54 55 57 58 60 61 62 62 62 62 60 58 55 52 49 45 42 38 34 32 30 29 28 28 28 28 28 27 26 25 24 24 24 25 26 28 29 30
48 51 53 54 56 58 60 61 63 65 66 67 68 68 68 67 65 63 59 55 52 48 43 39 36 34 32 30 29 29 29 28 27 26 25 23 22 23 24 24 25 26 27
55 57 59 61 63 65 67 69 70 71 73 73 74 74 75 74 72 69 66 62 58 53 48 44 41 38 35 33 31 31 30 28 27 25 24 22 21 21 21 21 23 24 25
65 67 69 71 73 75 76 77 78 79 80 80 80 80 81 81 78 74 70 67 63 59 55 50 47 43 40 37 34 33 32 29 27 26 24 22 21 20 21 22 24 25 25
75 77 80 81 82 82 81 81 81 82 83 84 84 85 85 85 84 81 78 75 71 67 61 55 52 48 45 41 37 35 34 31 28 26 24 23 21 21 21 22 23 25 25
80 79 77 73 68 64 61 61 62 63 66 69 72 75 79 80 81 81 80 78 76 72 67 62 57 53 49 45 40 38 35 32 29 26 24 22 22 20 20 21 22 24 24
67 61 54 48 44 43 43 43 43 44 45 47 49 52 56 60 64 67 69 71 72 71 68 63 58 55 50 46 42 39 37 33 30 27 24 22 21 20 19 20 20 20 20
48 44 41 42 44 44 44 44 43 42 41 41 41 40 41 43 46 49 53 56 59 62 62 60 56 53 49 45 42 40 37 34 30 27 24 21 21 21 20 21 21 20 19
42 43 44 45 46 46 47 46 45 43 43 42 40 38 36 35 34 35 37 40 44 48 53 54 52 50 48 45 43 40 37 34 30 27 24 22 21 21 20 21 21 20 19
44 45 46 46 47 48 48 46 45 45 45 44 41 38 35 33 31 29 28 29 31 35 41 47 50 49 46 45 43 40 37 34 30 27 25 22 21 21 21 20 20 19 18
46 47 48 49 49 49 49 48 47 46 46 44 42 39 36 34 31 28 26 25 26 28 33 43 50 49 46 45 43 39 37 34 30 28 25 23 23 22 22 21 20 19 18
48 50 51 51 50 50 50 50 49 48 47 44 42 41 38 34 31 28 27 25 24 23 27 39 47 50 45 43 42 39 36 32 29 27 25 24 24 24 23 22 21 20 19
51 52 52 52 52 50 49 48 47 46 45 44 43 41 37 34 32 29 27 26 25 24 25 35 45 44 42 42 40 37 34 30 28 26 25 25 25 25 24 23 22 21 20
53 53 54 53 52 50 48 46 46 45 43 41 39 36 36 34 32 30 28 26 25 25 26 32 41 43 42 41 39 37 34 32 29 27 26 26 26 26 25 24 23 21 20

GEFSMW_500_meanwind_030.txt.gz
Wind_Speed
45 46 47 43 42 43 42 40 38 36 36 35 35 34 32 30 30 29 27 26 25 24 22 21 19 19 20 20 21 22 23 25 27 27 29 30 31 32 32 32 32 31 31
44 46 44 37 38 40 40 36 34 34 34 34 34 33 32 30 29 27 26 25 24 22 21 20 20 20 20 21 22 23 24 25 27 28 28 28 30 31 31 31 32 32 31
43 40 38 36 34 30 24 26 30 32 34 36 35 34 33 31 29 27 25 24 23 22 22 21 21 21 22 23 24 24 24 25 27 28 28 28 28 29 30 30 30 31 31
39 41 42 41 39 37 39 35 31 31 34 35 35 33 31 30 28 27 25 23 23 23 23 23 24 24 24 25 25 25 25 25 26 28 28 28 28 28 27 28 29 30 30
38 39 40 41 42 41 39 39 36 35 33 34 35 33 31 29 26 25 25 24 24 25 25 26 26 26 26 26 27 27 27 26 27 27 28 28 28 27 25 24 27 29 30
36 37 38 39 40 40 40 40 38 37 36 36 35 34 33 30 28 27 27 27 27 28 28 29 30 30 30 29 28 29 28 28 28 28 27 27 27 26 25 23 24 27 29
34 36 37 38 39 40 40 40 41 39 38 39 39 37 35 34 33 31 30 30 31 32 32 32 32 33 33 31 31 30 29 29 29 28 27 27 26 26 25 23 23 25 27
36 38 39 41 42 43 43 44 44 45 44 43 43 42 41 40 39 37 36 35 35 35 36 36 35 35 35 34 33 31 30 30 29 29 28 27 26 25 24 24 23 23 25
40 41 43 45 46 48 49 49 50 50 49 49 49 48 47 47 45 44 43 42 41 40 40 39 38 38 38 37 35 33 32 31 30 29 28 27 26 25 24 23 23 22 23
43 44 46 48 50 52 53 54 54 55 55 55 54 54 54 54 53 51 51 50 48 46 45 44 42 41 39 38 37 35 33 32 31 30 29 28 27 25 24 23 22 22 22
46 48 50 52 53 55 57 58 58 59 59 59 59 59 59 59 59 58 57 56 55 54 52 49 47 45 42 40 39 37 35 34 33 31 30 28 27 25 24 22 22 21 21
51 53 55 57 58 59 61 62 63 64 64 64 64 63 63 63 63 63 63 62 61 59 57 55 53 50 47 44 42 39 37 35 33 32 30 28 27 26 24 22 21 21 20
57 59 61 63 64 65 67 68 69 69 70 70 70 70 69 69 69 68 67 66 65 64 62 60 57 54 52 49 45 42 40 37 35 33 31 29 27 25 24 22 21 20 20
63 65 67 69 71 72 73 73 74 74 75 75 75 74 74 75 74 74 73 72 71 70 68 66 63 59 55 51 49 46 42 40 37 35 32 29 27 26 24 22 21 20 19
68 70 72 74 75 75 74 73 71 69 67 65 64 64 65 67 69 71 73 75 75 75 74 72 69 65 61 56 53 50 46 43 39 37 35 31 28 26 24 22 21 20 20
73 74 74 73 71 68 64 59 56 52 49 47 45 44 45 46 49 52 57 62 67 71 73 75 74 71 67 63 59 55 51 47 43 38 36 33 30 27 25 23 22 21 20
72 70 66 62 58 53 49 47 44 43 41 40 40 40 40 40 39 40 42 45 49 55 62 67 70 72 72 69 64 60 56 51 46 42 37 34 31 28 26 24 23 21 20
64 59 55 50 47 45 43 43 42 43 43 43 43 43 42 41 40 40 39 38 39 42 46 53 59 64 67 70 68 64 59 53 49 45 41 36 33 29 27 24 23 21 20
53 50 47 45 44 44 45 46 46 46 45 45 45 45 44 44 43 42 40 39 38 37 38 39 45 52 57 62 66 65 60 55 51 47 42 38 34 30 28 26 24 21 20
47 47 47 47 47 48 48 49 48 48 48 48 47 47 46 45 44 42 40 39 37 36 35 34 35 39 45 52 57 60 59 55 51 47 43 39 35 32 29 27 25 22 20
47 48 49 50 51 51 51 51 51 52 51 51 49 48 47 46 44 42 39 38 36 35 34 32 32 33 36 43 49 52 54 53 49 46 42 39 36 34 30 28 26 23 21
50 51 53 53 53 53 54 54 53 52 52 51 50 48 46 44 42 39 37 36 34 33 32 30 30 30 31 36 43 48 50 49 48 45 43 39 37 34 31 28 26 23 21
53 54 55 55 54 54 54 54 53 52 51 49 48 45 42 41 38 36 35 34 33 31 30 28 27 27 29 32 39 46 49 48 47 45 42 39 36 33 30 27 25 23 21
54 55 55 56 55 55 54 53 51 49 47 45 43 41 38 36 35 33 32 31 30 29 28 27 26 26 27 29 35 45 50 48 46 45 42 39 36 32 29 27 24 22 21
56 56 55 55 53 51 48 46 45 43 41 38 36 35 34 33 31 30 29 28 28 27 26 25 24 24 25 27 33 44 49 48 47 44 41 38 34 31 29 27 24 22 20
56 55 54 51 49 47 45 42 39 36 33 31 29 27 26 25 25 25 25 25 25 24 23 22 22 21 22 26 33 43 47 48 47 43 39 36 33 31 29 27 24 22 20

GEFSMW_500_meanwind_036.txt.gz
Wind_Speed
42 42 43 43 43 43 44 45 41 35 28 25 27 27 25 24 23 25 25 24 25 25 25 24 24 23 23 22 21 20 19 18 17 16 16 16 16 16 17 19 20 22 23
41 41 41 41 42 43 45 43 38 32 28 25 22 21 20 22 24 24 24 25 26 25 24 24 24 24 23 22 22 21 20 20 18 17 17 17 17 17 18 19 20 21 22
35 37 39 40 42 43 41 39 35 32 29 26 22 21 20 21 22 21 21 23 24 25 25 24 24 24 24 23 23 22 22 21 20 19 18 18 18 19 19 19 20 21 22
33 36 38 39 40 40 38 36 35 33 31 26 24 23 21 22 21 21 22 22 22 24 25 25 26 25 25 26 25 25 23 23 23 21 20 19 18 19 21 21 21 20 21
33 35 37 38 40 40 40 38 37 34 33 30 28 27 26 25 25 25 24 24 24 25 26 27 28 28 28 28 29 28 26 25 25 24 22 21 20 19 19 21 22 21 20
32 35 38 40 42 43 43 43 41 39 37 35 34 33 32 31 31 29 28 27 28 28 29 29 29 30 30 31 31 31 30 29 27 26 25 23 22 21 20 20 22 22 21
30 34 38 41 44 46 47 47 46 45 44 42 41 40 39 38 37 36 36 35 34 33 33 34 33 33 33 33 33 33 33 32 30 29 27 26 25 24 22 21 21 22 22
34 38 41 44 46 48 49 50 50 50 49 48 48 47 46 45 44 43 42 42 42 41 40 40 38 37 37 37 37 36 36 35 34 32 30 29 27 26 25 24 22 21 22
42 46 48 50 52 53 54 55 55 54 54 54 53 52 52 51 50 49 48 48 47 47 46 46 45 43 42 42 41 40 39 39 37 35 33 31 30 29 27 26 24 22 21
48 51 53 55 57 59 61 61 62 61 60 59 58 58 57 57 56 55 55 54 53 52 52 51 51 50 48 47 46 44 43 42 40 38 36 34 32 31 30 28 26 23 22
51 53 56 58 60 62 64 66 67 67 66 65 64 64 63 62 61 61 60 59 58 58 57 56 56 55 54 52 50 49 47 45 43 41 39 36 34 33 32 30 28 25 23
56 58 60 62 64 66 68 69 70 70 69 68 67 65 64 63 62 62 63 63 63 63 62 62 61 59 58 57 55 53 51 49 47 45 43 40 37 35 33 31 29 27 24
59 61 63 65 67 68 68 68 67 66 65 64 62 60 57 55 54 55 56 58 61 63 65 66 65 65 63 62 59 58 55 53 51 48 46 43 40 37 35 33 31 29 26
62 64 66 67 67 65 64 62 60 59 58 56 54 51 48 46 44 43 44 46 50 54 60 64 67 68 68 67 64 62 59 56 54 51 48 46 43 40 37 35 32 30 27
64 65 65 64 62 59 58 56 55 53 53 51 50 48 46 44 42 40 39 39 40 43 47 51 57 63 67 68 68 66 64 60 57 53 50 48 45 42 39 36 34 31 29
62 61 60 58 56 54 54 53 53 53 53 52 51 50 48 46 43 41 39 38 38 39 40 42 44 49 55 61 65 66 66 63 60 56 53 50 47 45 41 39 36 33 30
59 56 54 53 52 53 54 55 55 55 55 55 54 53 51 49 47 45 42 41 40 40 39 38 38 40 43 47 52 58 62 63 61 58 55 52 49 46 43 40 37 34 31
53 51 51 52 54 56 57 58 58 57 57 56 55 54 52 50 49 47 45 43 40 38 38 38 37 36 37 40 42 46 52 57 59 59 57 54 51 48 44 41 38 35 32
51 52 53 55 57 58 59 58 57 56 56 55 54 52 51 50 49 47 45 43 42 40 39 38 37 37 36 36 37 39 43 48 53 56 56 55 53 50 46 42 38 35 32
51 53 55 56 58 58 58 57 55 54 53 51 50 50 49 48 47 46 45 43 42 41 39 38 37 37 36 36 36 35 37 41 47 51 54 54 53 51 47 44 40 35 32
52 54 56 57 58 57 56 55 54 52 51 48 46 44 43 43 43 43 43 43 42 41 39 39 38 37 36 35 34 34 33 36 40 46 51 52 52 51 48 45 41 37 33
52 54 55 56 56 56 55 53 51 48 46 44 41 39 37 37 38 38 39 40 39 39 38 38 37 36 35 34 33 32 31 32 36 41 47 49 49 48 48 45 42 38 34
52 54 56 56 55 54 52 51 47 45 42 38 35 32 30 29 30 31 33 35 35 35 35 35 34 33 33 32 32 30 29 30 33 39 45 47 46 47 47 45 41 38 33
51 54 56 56 54 52 50 48 46 42 38 34 30 27 24 23 22 23 25 27 28 29 29 30 30 30 30 30 30 29 29 29 33 40 44 46 46 46 45 43 41 38 33
50 53 55 54 53 51 48 45 43 39 35 31 26 22 18 16 15 15 17 19 21 24 25 25 25 26 27 27 27 27 28 30 34 41 46 47 48 47 45 42 40 36 32
50 53 54 53 52 50 46 44 41 37 34 30 25 19 14 9 6 7 9 13 16 19 21 22 23 23 24 25 25 25 27 30 34 43 47 47 49 47 44 40 36 33 30

GEFSMW_500_meanwind_042.txt.gz
Wind_Speed
36 38 39 41 42 43 43 41 39 38 36 35 34 32 31 29 27 27 26 27 28 30 32 30 28 28 28 27 26 25 25 24 24 24 24 23 22 21 20 19 17 17 16
39 41 42 42 43 43 43 42 40 40 38 36 35 33 31 30 28 25 25 25 25 27 29 29 28 29 28 27 26 25 25 25 24 25 24 23 22 21 20 19 18 17 16
41 43 44 42 41 41 41 41 41 41 40 39 37 35 33 31 28 27 26 25 25 27 29 29 29 29 28 28 27 27 26 26 26 26 26 24 23 22 22 20 18 18 17
37 38 36 36 37 38 40 41 41 41 41 40 38 37 35 33 32 29 28 28 28 28 29 29 29 30 30 29 29 29 29 28 28 28 28 27 25 24 23 22 20 19 18
30 30 30 30 33 35 37 39 41 42 43 42 41 39 38 37 36 34 33 32 32 32 32 32 31 31 32 32 32 31 31 31 30 30 30 29 27 26 25 23 22 20 19
29 30 31 32 33 35 38 40 42 43 44 44 43 43 42 41 40 39 38 38 37 36 36 36 35 35 35 35 34 34 33 33 32 32 32 31 30 29 27 26 24 22 20
31 33 34 35 37 39 41 43 44 45 45 46 46 46 46 46 45 45 44 44 43 43 42 41 41 40 39 38 38 38 37 36 35 35 34 34 33 32 30 28 27 25 23
36 37 38 39 40 41 43 44 45 46 47 47 48 49 49 50 50 50 50 50 49 49 49 48 47 47 46 44 42 42 41 40 39 38 38 37 36 35 33 31 29 28 26
39 40 41 42 43 44 45 46 47 47 48 49 50 51 51 52 52 53 54 55 55 55 55 55 54 53 52 51 49 47 46 45 44 43 42 40 39 38 36 34 32 30 28
42 44 45 46 47 48 49 50 50 49 49 48 47 47 48 48 49 50 51 53 56 58 60 61 60 59 58 57 56 54 52 51 50 48 46 44 43 41 39 37 35 32 30
46 47 49 51 52 54 54 53 52 50 48 46 45 45 46 47 47 47 48 50 52 55 58 61 63 64 64 63 62 61 59 57 55 54 51 49 47 44 42 40 38 35 32
49 51 53 54 55 55 54 52 51 50 50 50 50 50 50 50 49 49 49 49 49 51 54 57 60 64 67 68 68 66 65 63 60 59 57 54 52 49 46 43 40 38 35
51 53 54 55 54 53 51 50 50 52 53 54 55 55 55 54 53 51 50 50 49 49 50 53 56 60 64 68 70 70 70 69 66 63 61 59 56 53 50 46 43 40 37
51 53 53 52 50 49 49 50 52 55 56 57 58 58 58 57 56 54 53 51 50 49 49 50 52 54 58 63 67 71 72 72 70 68 64 62 59 57 53 50 46 43 40
51 51 50 48 47 48 50 52 55 56 58 59 60 60 60 59 57 55 53 51 50 49 48 48 48 49 52 55 58 63 69 72 72 71 68 64 61 59 56 53 49 46 43
51 50 48 47 48 50 52 55 56 58 60 61 61 60 58 57 55 54 51 50 49 49 49 48 48 47 48 49 52 55 59 64 69 70 70 68 64 61 59 56 52 48 45
51 49 47 48 50 52 55 57 58 60 61 59 58 57 57 55 54 52 50 48 46 46 47 47 47 47 46 45 45 47 49 53 58 64 68 68 66 63 59 57 55 50 47
50 48 47 48 51 54 56 57 58 59 59 58 58 56 55 52 49 47 46 44 43 43 44 45 45 45 44 43 42 42 43 45 48 52 58 63 65 66 61 56 54 51 48
49 48 48 50 52 55 56 56 56 57 57 57 55 53 51 47 44 42 39 38 38 39 40 42 43 44 43 43 42 40 39 39 41 43 46 52 58 62 62 58 54 52 49
49 47 48 50 53 55 56 55 55 55 55 55 52 49 45 41 39 35 33 31 32 33 36 40 41 42 42 41 41 40 38 36 36 38 39 43 48 53 58 58 55 52 49
48 46 48 51 54 55 55 54 54 54 53 51 49 45 41 38 34 30 27 26 27 29 32 36 38 40 40 40 40 39 37 35 34 34 35 36 41 46 51 54 55 52 50
47 46 47 51 53 54 53 52 52 51 50 49 47 43 38 34 30 25 21 20 21 23 26 30 33 36 37 37 37 37 35 34 33 33 33 33 36 42 47 51 52 51 49
47 45 47 50 52 53 53 51 50 49 48 46 44 40 36 32 28 22 17 14 14 17 21 25 28 31 34 34 35 35 34 33 32 32 32 32 34 38 43 48 51 50 49
46 44 46 49 51 52 52 50 49 48 46 44 42 38 35 31 27 21 15 9 7 11 16 21 24 27 31 32 33 33 33 32 31 31 32 31 32 36 41 46 48 49 48
46 44 45 47 49 51 51 49 47 46 45 43 41 37 34 30 26 21 15 9 3 5 11 16 20 24 27 30 31 32 32 31 31 31 31 31 33 36 39 44 47 48 47
46 44 44 46 48 49 49 48 46 45 43 41 39 37 34 30 26 22 17 12 6 2 8 12 16 19 23 26 28 29 29 30 30 31 31 32 34 36 41 45 46 47 47

GEFSMW_500_meanwind_048.txt.gz
Wind_Speed
27 29 31 34 36 39 41 43 44 44 43 43 42 41 40 39 38 37 37 35 34 33 34 33 33 34 35 36 37 37 37 37 35 33 31 30 28 27 25 24 24 23 22
28 30 32 35 37 39 40 41 41 40 40 40 40 40 40 40 40 39 39 37 35 34 33 32 32 33 33 34 34 37 38 37 35 34 32 30 29 27 26 25 25 24 22
28 30 32 34 35 36 37 38 38 38 39 40 40 41 41 41 41 41 40 38 37 35 35 33 32 33 32 33 34 35 37 36 35 35 32 30 30 28 27 26 26 25 23
26 28 30 32 33 34 36 37 38 39 40 42 43 43 44 45 45 44 43 41 40 38 36 36 35 35 34 33 33 34 36 35 35 34 32 31 30 29 29 28 27 26 25
27 29 31 32 34 36 38 40 41 42 43 45 46 47 48 48 48 47 46 45 44 42 40 38 36 36 37 36 35 34 36 36 36 35 34 32 32 32 31 30 29 28 27
29 31 32 34 37 39 41 42 43 45 47 48 49 50 51 51 51 50 49 48 47 46 44 42 41 39 40 40 39 37 38 38 37 37 35 34 34 34 34 33 32 31 29
30 32 34 36 38 40 42 43 45 46 48 49 50 51 52 52 52 52 52 51 51 50 48 47 46 45 44 43 43 42 41 39 39 38 37 37 36 36 36 36 35 33 32
32 34 36 38 39 41 42 44 44 45 46 48 49 49 49 49 49 49 49 50 50 51 51 51 50 50 50 49 48 47 45 44 43 42 41 40 39 38 37 37 37 36 34
34 36 38 40 41 42 42 43 43 43 44 44 43 43 43 43 44 45 46 48 49 50 51 52 53 54 54 54 54 53 51 50 48 47 45 44 42 41 40 39 39 38 37
36 38 40 41 42 42 42 42 42 41 40 39 38 39 40 41 43 44 45 47 48 50 51 52 54 55 56 58 59 59 58 57 54 52 50 48 46 45 44 43 42 41 40
38 40 41 42 42 42 42 41 41 39 38 38 39 40 42 44 45 46 48 48 49 50 52 53 54 55 58 59 61 63 64 64 62 59 56 54 51 49 48 47 45 43 42
40 42 42 42 42 42 42 41 40 39 40 40 42 43 45 47 48 49 49 50 51 52 53 53 55 56 57 59 62 65 67 68 68 66 63 59 57 55 53 50 48 46 45
42 42 42 43 43 42 40 39 39 39 41 42 44 46 47 48 49 50 51 52 53 53 54 54 54 55 57 58 60 62 66 70 71 71 69 65 62 60 58 55 52 50 48
43 43 43 44 43 41 39 38 39 40 42 44 45 47 49 50 51 51 52 52 53 53 54 54 55 55 56 58 60 61 62 66 70 73 73 71 69 64 61 59 57 54 51
44 44 43 44 42 40 38 38 40 42 44 45 46 48 50 50 51 51 51 51 51 51 52 54 55 56 56 57 59 60 62 63 66 70 74 75 74 70 66 62 60 57 55
44 44 44 44 42 40 38 39 41 43 45 46 48 49 50 50 50 50 50 50 49 49 49 50 52 54 56 57 58 59 61 61 62 64 69 72 74 74 71 68 65 60 57
45 45 44 43 42 40 39 40 42 44 46 47 48 49 50 49 49 49 48 47 45 44 44 45 46 49 52 54 56 57 58 59 59 60 62 67 70 71 72 70 67 63 59
46 45 44 43 42 41 40 41 43 45 46 47 48 50 50 49 48 47 45 42 40 39 38 39 40 43 46 50 53 55 57 57 57 57 58 60 64 66 69 70 69 67 62
48 47 46 44 43 41 41 42 44 45 46 47 49 50 49 47 46 44 41 39 35 33 33 33 35 37 41 44 47 49 51 53 53 54 54 55 57 61 64 66 67 67 64
48 47 46 45 43 42 41 43 44 46 47 48 49 49 48 46 43 41 38 35 31 29 28 27 28 30 35 39 41 44 45 47 48 49 50 51 51 54 57 59 61 62 64
49 48 47 46 44 42 42 43 45 46 47 48 48 48 47 45 42 39 35 32 29 26 23 21 21 23 27 32 36 40 41 42 43 44 45 45 46 48 50 53 56 57 60
48 48 47 45 44 43 42 43 44 46 47 47 47 47 46 43 40 37 33 30 27 23 18 15 15 18 22 26 30 34 36 37 39 39 40 41 41 43 45 47 50 53 56
49 48 47 46 44 43 43 43 44 45 46 46 46 45 44 42 38 34 31 27 24 20 15 10 9 12 16 21 25 28 32 33 35 35 36 38 37 38 40 43 46 49 53
49 48 47 45 44 42 42 43 43 45 45 45 45 44 42 40 37 33 29 26 22 18 13 8 5 7 12 17 21 25 28 30 32 32 32 34 35 34 35 37 41 45 48
49 48 47 45 44 42 42 42 43 44 44 44 43 42 41 39 35 32 28 24 21 17 12 7 2 5 10 15 19 22 24 27 28 30 30 31 32 32 32 32 35 40 45
48 48 47 45 43 41 41 41 42 43 43 43 42 41 40 38 34 31 27 23 21 17 11 6 1 4 9 13 17 20 22 24 26 27 28 29 30 30 30 30 32 37 42

GEFSMW_500_meanwind_054.txt.gz
Wind_Speed
22 24 25 27 30 32 35 37 39 41 43 45 45 46 46 47 47 46 45 42 41 41 41 40 39 39 39 38 37 37 36 35 35 35 34 33 34 33 30 28 27 27 27
21 23 26 28 30 33 35 37 39 40 42 43 44 45 45 46 46 46 45 44 42 42 43 43 42 42 41 40 38 38 35 33 34 33 33 33 32 33 31 29 28 28 27
21 23 25 27 29 31 33 35 36 38 40 42 43 45 46 46 46 46 46 45 44 44 44 45 45 44 43 41 39 37 35 35 34 33 33 32 32 31 30 31 29 29 28
22 24 26 27 29 31 33 35 36 38 40 42 44 45 46 46 46 47 47 47 47 46 45 45 46 45 45 43 41 40 38 37 36 34 33 34 33 32 31 31 31 30 30
24 25 27 28 30 33 35 37 37 38 40 42 44 44 45 46 47 47 47 46 46 45 45 45 45 45 44 44 43 41 40 39 38 37 34 34 35 34 32 31 32 32 32
25 27 28 30 32 34 36 38 39 39 40 41 43 44 45 45 46 46 46 45 44 44 43 43 43 42 43 43 43 42 41 40 39 39 38 37 35 34 34 34 33 33 33
27 29 30 32 34 36 37 38 40 40 40 41 42 43 44 44 43 43 43 42 41 41 41 40 41 41 40 41 41 42 41 41 41 41 41 39 37 37 37 37 35 35 35
28 30 32 34 36 38 39 40 40 40 41 41 42 42 41 41 40 41 41 40 39 39 39 39 40 40 41 41 41 42 42 42 42 43 42 40 39 39 38 37 36 35 36
30 32 34 36 38 39 40 41 41 41 41 41 40 40 39 39 39 39 39 39 40 40 41 42 42 42 43 43 43 43 44 45 44 44 45 44 43 42 40 39 38 37 36
32 34 36 38 40 40 41 41 41 41 41 40 39 38 38 38 39 39 39 40 41 43 44 45 45 45 46 46 47 46 46 47 48 48 48 47 46 44 43 42 40 40 40
33 35 37 39 41 41 42 42 42 41 40 40 39 38 38 39 39 40 41 42 43 44 45 47 48 49 49 49 49 49 49 49 50 50 51 51 50 48 47 45 43 42 44
34 36 39 41 41 42 42 42 41 41 41 40 39 39 39 40 41 42 43 44 45 46 47 48 49 50 51 51 52 52 52 52 52 52 53 54 54 53 51 49 47 46 44
36 38 40 41 42 42 42 42 42 42 42 41 40 40 41 42 43 43 45 45 46 47 48 49 49 50 51 52 53 54 54 54 54 54 55 57 57 57 56 54 51 49 47
37 39 41 42 43 43 43 43 42 43 42 42 41 42 42 43 43 44 45 46 47 49 49 48 48 49 49 50 51 53 54 54 54 54 55 58 59 60 59 58 56 53 51
39 41 42 44 44 44 44 44 44 43 43 43 42 43 43 43 44 45 46 47 47 47 47 47 47 47 47 47 48 49 50 51 53 53 54 56 60 61 61 60 59 58 55
39 42 44 45 45 45 45 45 44 44 43 43 43 43 43 44 45 46 46 46 46 46 46 46 45 44 44 45 46 46 47 48 50 52 53 54 57 60 61 62 61 61 59
41 44 45 46 46 46 46 45 45 44 43 43 43 44 44 44 45 45 46 46 45 45 44 43 42 41 41 41 42 43 44 45 46 49 51 54 54 57 59 61 61 61 61
43 45 46 46 47 47 46 46 45 44 44 43 43 44 44 44 44 45 46 45 44 43 41 40 39 38 37 38 38 39 40 41 42 45 49 51 51 53 56 58 59 60 60
44 46 47 47 47 47 47 46 45 45 44 44 44 44 44 44 44 45 45 44 42 40 38 36 35 34 33 33 33 34 35 37 39 42 45 47 47 49 51 53 55 56 58
45 46 46 48 48 48 47 46 45 45 44 44 44 44 44 44 44 44 44 42 40 37 35 33 32 31 30 29 28 28 30 32 35 39 43 45 45 45 47 49 51 53 54
45 46 47 48 49 48 47 46 45 45 45 44 44 44 44 44 43 43 43 40 38 36 33 32 30 29 28 26 25 24 25 28 31 35 39 42 44 44 43 44 47 49 51
45 46 46 48 48 48 47 46 45 45 44 44 44 44 43 43 43 43 41 38 37 34 32 30 28 27 24 22 19 18 21 24 27 31 34 39 41 42 42 42 43 45 47
44 45 46 47 48 48 48 46 45 45 44 43 44 43 43 43 43 41 39 37 35 33 31 28 26 24 21 18 15 14 16 20 24 27 31 35 37 38 39 40 41 42 43
44 44 45 46 47 48 47 46 45 44 44 43 43 43 42 42 42 40 39 37 34 32 28 25 23 20 17 13 10 9 12 16 20 25 27 30 33 34 36 38 38 39 39
43 43 44 46 47 47 47 46 45 44 43 42 42 42 42 42 41 39 38 37 33 30 26 23 21 16 13 11 7 5 9 14 19 22 25 28 30 32 33 34 35 36 37
42 43 44 45 46 47 47 46 44 43 42 41 41 41 41 40 40 38 36 35 32 28 24 22 19 15 11 8 4 4 9 13 17 21 23 24 27 28 29 31 32 33 34

GEFSMW_500_meanwind_060.txt.gz
Wind_Speed
15 17 19 21 23 24 25 27 29 30 32 34 35 37 38 40 40 41 41 41 42 41 41 41 40 39 39 38 37 36 35 34 33 32 31 31 30 30 30 29 30 30 31
13 15 18 19 21 22 24 26 28 30 32 34 36 37 39 40 41 41 42 42 42 41 41 40 40 40 40 40 39 38 36 36 36 35 33 32 31 31 30 29 29 29 31
12 14 16 18 19 21 23 25 27 30 32 34 36 37 39 40 40 41 41 41 41 41 41 40 40 40 40 40 40 39 38 36 36 36 35 34 32 32 31 29 29 29 30
10 12 15 17 19 20 22 24 26 29 31 33 35 37 38 38 39 39 39 39 39 39 39 39 38 38 38 38 39 39 38 37 36 36 36 35 33 31 31 30 29 29 30
10 12 14 17 18 20 22 24 25 27 29 30 32 34 36 37 38 38 39 39 38 38 37 36 35 34 34 34 35 36 36 36 36 36 36 36 35 33 32 30 29 30 30
12 15 17 19 21 22 25 26 27 28 29 31 32 33 34 35 36 37 37 37 37 37 36 35 34 33 33 32 32 32 33 34 35 35 35 36 35 34 33 32 31 31 32
17 19 21 23 25 27 29 30 32 32 33 33 34 35 35 35 35 36 37 37 37 37 36 35 34 33 33 33 32 32 32 32 33 34 35 35 36 35 35 33 33 33 32
21 23 26 28 30 31 33 34 35 35 35 35 36 36 36 36 36 37 37 38 37 37 37 36 35 35 35 34 34 33 34 34 34 34 34 35 36 36 36 35 35 35 35
25 27 29 31 33 34 36 37 37 37 37 37 37 37 37 38 38 38 39 38 38 38 38 38 38 37 37 37 36 36 36 36 36 36 35 36 37 36 37 37 38 38 37
27 29 31 33 35 36 38 39 39 39 39 38 38 38 38 39 39 39 39 39 39 39 39 39 39 39 39 39 39 38 38 38 38 38 38 38 38 38 39 39 39 41 39
29 30 32 34 36 38 39 40 40 40 39 39 39 39 39 39 39 39 39 39 39 39 39 39 39 40 40 41 41 41 42 41 41 40 40 40 40 41 40 41 41 41 41
29 31 33 35 37 39 40 40 40 40 40 40 40 40 40 40 40 39 39 39 39 39 39 40 40 41 41 42 43 44 44 45 44 44 43 44 44 43 43 43 43 43 43
29 32 34 36 38 39 40 40 40 41 41 40 40 40 40 40 40 40 39 40 39 39 40 40 41 42 42 43 44 45 46 46 46 46 46 46 46 47 46 46 46 45 44
31 34 36 37 38 39 40 40 41 41 41 41 41 41 41 41 40 40 40 40 40 40 40 41 41 42 42 43 44 45 46 46 47 47 46 47 48 48 49 49 49 49 48
33 35 36 37 39 40 41 41 41 42 42 42 42 42 42 41 41 41 40 40 39 40 40 41 41 41 42 43 44 44 45 45 46 46 47 47 48 50 51 52 52 53 53
34 36 37 39 40 41 41 42 42 43 43 43 43 43 42 42 41 41 40 40 40 40 40 40 40 41 42 42 43 43 43 44 44 45 45 47 48 50 51 53 55 56 55
34 37 39 40 40 41 42 42 43 44 44 44 44 43 43 42 41 41 40 40 40 40 40 40 40 40 41 41 40 40 40 40 41 42 43 46 48 50 52 53 55 56 57
35 38 39 40 41 41 42 43 43 44 45 45 45 44 43 42 41 41 40 40 40 40 40 39 39 39 39 38 38 38 37 37 37 39 41 43 46 48 50 53 55 56 57
36 38 40 40 41 41 42 43 44 45 45 45 45 45 44 42 41 41 41 41 41 40 39 39 38 38 37 36 36 36 35 34 35 37 39 41 44 47 49 52 54 56 58
37 39 40 40 41 41 42 43 44 45 46 45 45 45 44 42 41 41 41 41 40 39 38 38 38 36 34 34 33 32 32 33 34 35 37 39 41 44 47 50 53 55 57
38 39 40 40 41 41 42 43 44 45 46 46 45 45 44 43 42 41 41 41 40 39 38 37 36 34 32 31 30 29 28 28 29 30 32 35 37 41 44 46 49 52 54
38 39 40 40 41 41 42 44 44 46 46 47 46 45 44 43 42 41 41 41 40 38 37 36 35 32 30 27 26 24 23 23 23 24 27 30 34 37 41 44 47 49 51
39 39 40 40 41 41 42 44 45 46 46 47 46 45 44 42 42 41 40 40 39 37 36 35 33 30 27 24 22 19 17 17 17 19 22 26 31 34 37 40 44 46 48
39 39 40 40 41 41 42 44 45 46 46 46 45 44 43 42 41 41 40 40 39 36 34 34 31 28 24 21 19 15 12 11 12 14 18 22 27 32 34 37 40 42 44
39 39 39 40 40 41 42 44 45 45 46 46 45 44 43 41 41 40 40 39 38 36 33 31 30 26 23 20 16 12 9 8 9 10 14 19 24 29 32 34 37 39 42
39 39 40 40 41 42 43 44 45 46 46 45 45 43 42 41 40 39 39 38 37 35 32 30 28 25 21 18 14 10 7 5 5 7 12 17 22 25 28 31 35 37 41

GEFSMW_500_meanwind_066.txt.gz
Wind_Speed
17 16 15 16 16 17 19 20 21 22 24 25 26 27 29 30 30 31 32 33 33 34 34 35 36 36 36 36 37 36 36 36 36 35 34 33 33 32 32 32 32 32 32
14 14 14 16 17 18 19 20 21 23 25 26 28 29 30 31 32 32 32 33 33 34 34 35 35 35 36 36 37 37 37 36 37 36 35 35 35 35 33 33 33 33 33
12 13 14 15 17 18 19 21 23 25 27 28 30 31 32 33 33 33 34 34 34 34 34 34 35 35 35 36 36 36 36 36 36 36 36 36 36 37 35 34 34 34 34
11 13 14 16 17 19 21 22 24 26 27 28 30 31 32 33 33 34 34 35 34 34 34 34 34 34 35 35 36 36 36 35 36 36 36 36 36 36 36 35 35 35 35
9 12 14 16 18 19 21 22 23 25 27 28 29 30 30 31 32 33 33 34 34 34 34 34 34 34 34 35 35 36 36 36 36 36 36 35 35 36 36 36 37 37 36
10 12 14 16 18 19 20 22 23 25 26 27 28 28 29 29 30 31 31 32 33 33 34 34 34 35 35 35 35 35 36 36 36 36 36 36 35 35 35 35 37 38 37
11 13 15 16 18 19 21 22 24 25 27 27 28 29 29 29 30 30 31 32 33 34 35 35 35 35 35 35 35 35 36 36 36 36 35 35 35 35 35 35 36 38 38
12 14 15 16 18 20 22 23 25 27 28 29 29 29 30 30 30 31 31 32 33 34 35 36 36 36 36 36 36 36 36 36 36 36 36 36 36 36 35 35 36 37 38
13 14 15 17 19 21 23 25 26 28 29 30 30 31 31 31 31 32 32 33 34 34 35 36 36 36 36 36 36 36 37 37 37 37 37 37 37 37 36 36 36 36 37
14 15 17 19 21 24 26 27 29 30 31 31 31 32 32 32 33 33 34 34 35 35 36 37 37 37 36 36 36 36 37 37 37 38 38 38 38 38 38 37 37 37 37
16 17 19 22 24 26 28 30 31 31 32 32 33 33 33 34 34 35 35 36 36 36 37 37 37 37 37 37 37 37 37 37 37 38 39 40 40 40 40 39 39 38 39
18 20 22 24 26 28 30 31 31 32 33 33 34 34 35 35 36 36 37 37 37 37 37 37 37 37 37 37 37 37 37 37 38 39 40 41 42 42 42 42 41 41 41
21 22 23 25 27 29 31 32 32 33 34 34 35 36 36 37 38 38 38 39 39 39 39 38 38 37 37 37 38 37 37 38 39 40 41 41 43 43 44 44 44 44 44
22 24 25 26 28 31 32 33 34 34 35 35 36 37 38 39 40 40 40 41 41 40 40 40 39 38 38 38 38 38 39 39 39 40 41 42 43 44 44 45 46 47 46
23 24 26 28 30 32 33 34 35 35 36 37 38 39 40 41 41 42 42 42 42 41 41 41 40 39 39 39 39 38 38 39 39 40 42 43 44 45 46 47 47 49 49
24 25 27 29 32 33 34 35 35 36 37 38 39 40 41 42 43 43 43 43 43 42 42 41 40 40 40 40 39 39 39 39 39 40 42 44 45 46 48 48 49 50 51
25 27 29 31 33 34 35 36 36 37 38 39 40 41 42 43 44 44 44 44 44 43 42 41 41 41 41 40 39 39 39 39 39 40 41 42 43 46 48 49 50 51 52
26 29 31 33 34 35 36 36 37 38 39 40 42 43 43 44 45 45 45 45 44 44 42 42 42 41 40 39 38 39 39 38 38 38 39 40 41 43 46 47 49 51 52
28 30 32 34 35 36 36 37 38 39 40 42 43 44 44 45 45 45 45 45 45 44 43 42 42 40 39 39 39 38 37 37 37 37 37 38 39 41 43 46 47 49 51
29 31 33 34 35 36 36 37 39 40 41 43 43 44 45 46 46 46 46 45 45 44 43 43 41 39 38 39 39 38 36 35 35 35 36 36 37 39 41 42 45 47 50
30 32 34 35 35 36 37 38 39 41 42 43 45 45 46 46 46 46 46 46 45 44 43 42 41 39 39 38 37 35 33 32 31 31 32 33 34 36 39 41 43 46 49
32 33 34 35 35 36 37 39 40 42 43 44 45 46 46 47 47 46 46 45 45 43 42 41 40 39 38 37 34 32 31 28 27 27 27 28 30 33 35 38 40 44 48
33 35 35 36 36 37 39 40 42 43 44 45 46 46 47 47 47 46 45 45 44 42 42 41 39 37 36 34 32 29 27 25 23 23 22 22 24 27 30 34 38 41 45
35 36 36 36 37 39 41 43 44 45 45 46 47 47 48 47 47 46 45 44 43 42 41 39 37 35 34 32 30 27 25 22 21 19 17 17 18 21 25 30 34 37 41
36 36 37 37 38 40 42 44 46 46 47 47 48 48 48 46 46 46 45 44 42 41 40 38 36 33 32 30 27 24 22 20 18 16 14 13 14 16 20 25 29 33 36
36 37 37 39 40 41 43 45 47 47 48 48 48 48 47 46 46 45 44 43 42 40 39 37 35 32 30 27 24 22 20 19 16 13 11 10 10 12 15 20 24 29 33

GEFSMW_500_meanwind_072.txt.gz
Wind_Speed
17 16 14 13 13 12 12 13 14 14 15 16 17 18 19 20 22 22 23 23 24 24 25 26 26 27 28 29 30 31 31 32 32 33 33 33 34 34 34 34 34 34 33
14 13 12 12 11 11 11 12 13 14 15 17 18 20 21 22 23 23 23 24 24 24 25 25 25 26 27 28 28 29 30 31 31 32 33 33 34 35 35 35 35 35 35
10 9 9 9 9 10 12 13 15 16 17 19 20 21 22 23 23 24 24 24 24 24 25 24 25 26 27 28 28 29 29 30 31 31 32 33 34 35 36 36 37 36 36
5 6 7 8 9 11 13 15 16 18 20 21 22 22 23 23 24 24 24 24 24 24 24 24 25 26 27 28 28 29 30 31 32 32 33 33 34 35 36 36 37 38 37
5 6 8 9 11 13 15 17 18 19 20 21 22 22 23 23 24 24 24 24 24 24 24 25 26 26 27 28 29 30 31 31 32 33 34 34 35 35 36 37 38 38 39
6 8 10 11 13 15 16 18 19 20 20 21 21 22 23 23 23 23 23 24 24 25 25 25 26 27 28 29 30 30 31 32 33 34 35 36 36 37 37 37 39 39 39
8 10 12 13 14 16 17 19 20 20 21 21 21 22 22 23 23 23 24 24 25 25 25 26 26 27 28 29 30 31 32 33 34 35 36 37 38 38 38 38 39 40 40
10 12 13 14 15 17 18 19 20 20 21 21 22 22 22 23 23 23 24 24 25 26 26 27 27 28 29 30 31 32 33 34 35 36 37 37 38 39 39 39 39 40 40
12 13 15 15 16 17 18 19 20 20 21 21 21 22 22 22 22 23 24 25 26 27 27 28 29 29 30 31 32 33 34 34 35 36 36 37 38 39 39 40 40 40 41
13 15 16 17 17 18 18 19 20 20 21 21 21 22 22 23 23 24 26 26 27 28 29 30 31 31 32 32 33 34 34 35 35 36 36 37 38 39 39 40 40 40 41
14 15 16 16 17 17 18 19 20 20 21 21 22 23 23 24 25 27 28 29 30 31 31 32 33 33 34 34 34 35 35 35 35 35 36 37 38 38 39 40 41 41 41
15 15 16 16 17 17 18 19 20 21 21 22 23 24 25 26 28 29 30 31 32 33 34 34 35 35 36 36 36 35 35 35 35 36 36 37 38 38 39 40 41 42 42
15 15 15 16 17 18 19 20 21 21 22 23 24 25 27 28 30 31 32 33 34 35 36 37 37 37 37 37 37 36 36 36 36 36 36 37 38 39 40 41 41 42 43
15 15 15 16 17 19 20 21 22 22 23 24 25 27 29 31 32 33 34 35 37 37 38 39 39 39 38 38 38 37 37 36 36 37 37 38 39 39 40 42 42 43 44
14 15 16 17 18 20 21 22 23 24 25 26 27 29 31 33 34 35 37 38 39 40 40 40 40 40 39 39 38 37 37 37 37 37 37 37 38 39 40 42 43 44 45
15 16 17 18 20 21 22 23 24 25 26 27 29 31 33 35 36 37 39 40 41 41 42 42 41 41 40 39 38 38 37 37 36 36 36 37 37 38 40 42 43 45 46
16 17 18 20 21 22 23 24 25 26 27 29 31 33 35 36 38 39 40 41 42 43 43 42 42 41 40 39 38 37 37 36 36 36 36 37 37 38 40 42 43 45 47
17 18 20 21 22 24 25 25 26 27 29 30 32 34 36 38 39 41 42 43 44 44 43 43 42 40 39 39 38 37 37 36 35 35 36 36 37 38 39 40 42 44 46
18 20 21 23 24 25 26 26 27 28 30 31 33 35 37 39 41 43 44 45 45 44 44 43 41 40 39 38 38 37 36 35 35 35 35 35 36 37 38 40 41 43 44
20 22 23 25 26 27 27 27 28 29 31 33 35 37 39 41 42 44 45 45 45 44 44 42 41 40 39 38 37 36 35 33 33 33 33 33 33 35 37 38 39 41 42
22 24 25 27 27 28 29 29 30 30 32 34 37 39 41 43 44 46 46 46 45 44 43 41 40 39 38 36 35 34 33 31 30 30 29 29 30 31 32 33 35 38 40
25 26 28 29 29 29 30 31 31 33 35 37 39 41 43 45 46 47 47 46 45 44 42 40 39 38 37 36 34 33 31 29 28 27 27 27 27 28 28 29 32 35 37
28 29 30 31 31 32 32 33 34 35 37 39 41 43 45 46 47 48 47 46 44 43 41 40 38 37 36 35 33 31 29 28 27 26 26 26 26 25 25 26 29 32 35
32 32 33 34 34 34 34 35 36 37 39 42 44 45 47 47 48 48 47 46 44 42 40 39 38 37 36 34 32 30 28 26 26 25 24 24 23 23 23 23 25 28 31
34 35 36 37 37 38 38 38 38 40 43 45 46 47 48 49 48 48 47 46 44 42 40 39 38 36 35 33 31 29 27 25 24 23 23 22 21 21 20 20 20 23 27
37 38 40 40 40 42 42 41 42 43 45 47 48 49 50 49 48 48 46 45 43 41 39 38 37 36 34 32 29 28 27 25 23 22 21 20 19 18 17 16 17 20 24

GEFSMW_500_meanwind_078.txt.gz
Wind_Speed
14 14 14 14 15 13 13 13 13 13 14 14 15 15 16 17 18 19 20 21 21 21 22 22 21 22 22 23 23 24 24 25 25 25 26 27 27 27 28 28 29 29 29
12 13 13 13 12 12 12 11 11 13 14 14 15 15 16 17 17 19 19 20 20 20 20 21 21 21 22 22 23 24 24 25 25 26 26 27 28 28 28 29 30 30 31
8 8 9 9 9 10 9 10 10 11 12 14 15 15 17 18 18 19 19 19 20 20 20 21 22 22 22 22 23 24 24 25 26 27 27 27 28 29 29 29 30 31 32
4 5 6 6 7 8 8 8 10 11 13 14 15 17 17 18 19 19 19 20 20 20 21 21 22 22 22 23 23 24 25 25 26 27 27 28 29 30 30 30 30 31 32
2 3 3 4 5 6 7 9 10 12 13 15 16 18 19 19 20 20 20 21 21 21 22 22 22 23 23 24 24 25 25 26 27 27 28 29 30 31 31 32 32 32 33
2 3 4 5 6 7 9 10 11 13 15 16 18 19 20 20 21 21 21 22 22 22 22 23 24 24 24 25 25 26 27 27 28 29 29 30 31 32 33 33 33 34 34
2 3 5 6 8 10 11 12 13 14 16 18 19 19 20 20 21 22 22 23 23 23 23 24 25 25 26 27 27 28 28 29 30 30 31 32 32 33 34 34 35 35 36
4 5 7 9 10 12 13 14 15 16 17 18 19 20 20 20 21 22 23 23 24 25 25 26 26 27 28 28 29 29 30 31 32 33 33 34 34 35 36 36 36 37 37
7 8 9 11 12 14 14 15 16 17 18 19 20 20 21 22 22 23 24 24 25 26 27 28 28 29 29 30 31 32 32 33 33 34 35 36 36 37 37 38 38 38 38
10 11 12 13 14 15 15 16 17 18 19 20 20 20 21 22 23 24 25 26 27 28 29 30 30 31 32 32 33 34 34 35 35 36 36 37 37 38 38 38 39 39 39
13 13 14 15 15 15 15 16 17 19 20 20 21 21 22 22 23 24 26 27 28 29 30 31 32 33 34 34 35 36 36 36 36 37 37 37 37 38 38 38 38 39 39
15 15 15 16 16 16 16 17 18 19 19 20 21 22 22 23 24 26 27 28 29 30 31 33 34 35 36 36 37 37 37 37 37 38 38 38 38 38 38 39 39 39 39
17 18 17 16 16 16 17 17 18 19 20 20 21 22 22 24 25 27 28 29 30 31 33 34 36 37 38 38 38 38 38 38 39 38 38 38 38 38 38 39 39 39 40
18 18 17 17 16 17 17 18 19 20 20 21 22 23 23 25 26 28 29 30 32 33 35 37 39 39 40 40 39 39 39 39 39 38 37 37 37 37 38 38 39 40 40
18 18 17 17 17 17 18 19 20 21 21 22 23 24 25 26 27 29 30 32 33 35 37 39 40 41 41 41 41 40 40 40 39 38 38 37 37 37 37 37 38 39 40
19 18 18 18 18 18 19 20 21 22 23 24 25 26 26 28 29 30 32 34 35 37 39 41 42 43 43 42 42 41 40 39 39 38 38 37 37 37 37 37 37 37 38
19 19 19 19 19 20 21 22 23 24 25 25 27 28 29 30 31 33 34 36 38 39 41 43 44 44 44 43 42 41 40 39 38 37 36 36 36 35 35 35 35 36 37
20 20 20 20 21 21 22 23 24 25 26 27 29 30 31 32 33 35 36 38 39 41 43 45 45 45 45 44 43 41 40 38 37 37 36 36 35 35 33 33 33 34 35
21 21 22 22 22 23 24 25 26 27 28 30 31 33 34 35 36 37 39 40 41 42 45 46 46 45 45 44 43 41 39 38 37 36 36 35 34 33 32 32 32 33 34
22 23 23 24 24 25 26 27 28 29 30 32 34 36 37 38 38 39 40 41 43 44 45 46 46 46 45 44 43 41 39 38 37 36 35 34 32 32 32 32 32 32 33
24 25 25 26 26 27 28 29 30 32 33 35 37 38 40 41 40 41 42 43 44 45 46 47 46 46 45 43 42 40 39 38 36 35 34 33 31 31 31 31 31 32 32
26 27 27 27 28 29 31 32 33 35 36 38 39 41 42 44 43 44 44 45 46 47 47 47 47 46 45 43 41 39 38 37 35 34 33 32 30 30 29 29 29 30 30
29 29 30 30 31 32 33 35 37 38 39 40 42 43 44 45 46 47 47 47 48 49 49 48 47 46 45 42 40 38 37 37 35 34 33 31 30 29 29 29 29 29 29
32 32 33 34 34 35 37 38 39 40 41 43 44 45 46 46 47 48 49 49 51 51 49 49 48 46 44 42 40 38 37 36 35 33 32 30 29 28 28 28 28 27 27
35 36 37 38 39 39 40 42 43 44 44 46 47 47 48 48 49 49 50 52 51 49 49 49 48 46 43 41 39 38 37 36 34 33 31 29 28 27 26 26 26 25 24
38 39 40 41 42 42 43 44 45 46 47 48 49 49 50 51 51 52 52 52 51 50 48 47 47 45 43 40 38 37 36 35 33 32 30 27 26 26 25 25 24 23 23

GEFSMW_500_meanwind_084.txt.gz
Wind_Speed
9 9 8 8 7 7 6 6 6 6 6 7 8 8 9 9 9 10 10 11 11 11 12 12 12 13 14 14 14 14 15 15 15 16 17 18 19 20 21 22 22 23 24
8 9 8 7 7 6 4 4 5 5 6 7 8 8 8 9 9 9 10 11 11 11 12 12 13 13 14 14 14 15 15 15 16 17 18 19 20 20 21 22 23 24 25
7 7 6 5 5 4 3 3 3 4 5 6 7 7 7 8 8 8 9 10 11 12 12 13 13 14 14 15 15 15 16 16 17 17 18 19 21 21 22 22 23 24 25
7 6 5 4 2 2 1 2 2 3 4 5 6 6 7 7 8 8 9 10 11 12 13 13 14 15 16 16 16 17 17 17 18 18 19 20 21 22 23 24 24 25 26
6 6 4 3 2 1 1 1 2 3 4 5 6 6 7 7 7 8 9 10 11 12 13 14 15 16 17 17 17 17 18 18 19 20 20 20 21 22 23 25 25 26 27
6 5 4 3 2 0 1 1 2 3 4 5 5 6 7 8 8 9 10 11 12 13 14 15 16 17 18 19 19 19 20 20 21 21 22 23 24 24 25 26 27 28 28
5 4 3 2 1 1 2 2 3 4 4 5 6 7 7 8 9 10 11 12 13 14 15 16 17 19 20 20 21 21 21 22 22 23 24 25 26 26 27 27 28 29 30
3 2 1 0 1 2 2 3 3 4 4 5 6 7 8 9 10 11 12 13 14 15 16 17 18 20 21 21 22 23 24 24 24 25 26 26 27 28 29 29 30 31 32
2 0 1 2 2 2 3 3 4 4 5 6 7 8 9 10 11 12 13 14 16 17 18 19 20 21 22 24 25 26 26 26 27 27 28 28 28 29 30 31 32 32 33
1 1 2 2 3 3 3 3 4 4 5 6 8 9 10 11 12 13 14 16 17 18 19 20 22 23 25 26 28 28 29 29 29 29 30 30 30 31 32 32 33 34 34
1 2 2 3 3 4 4 4 5 5 6 7 9 10 11 13 14 15 16 17 18 20 21 22 24 26 28 29 30 30 31 31 32 32 32 32 32 32 33 34 34 35 35
2 3 3 3 4 5 5 6 6 7 8 9 11 12 13 14 15 16 17 19 20 22 23 25 27 28 29 31 32 33 33 33 34 34 34 34 34 34 35 35 36 36 36
3 3 4 5 5 6 7 8 8 9 11 12 13 14 15 16 17 18 19 21 23 25 26 28 29 30 31 33 34 35 35 35 35 35 35 35 36 36 36 36 36 36 36
5 5 6 7 7 7 8 9 10 11 13 14 15 15 16 17 19 20 22 23 25 27 29 30 31 32 33 34 36 36 37 37 37 37 37 37 37 36 36 35 35 35 35
7 7 8 8 9 10 11 12 12 13 14 16 17 17 19 20 21 22 24 25 27 28 30 32 32 33 34 36 37 38 38 38 38 39 38 38 37 37 36 35 35 35 35
10 10 10 11 11 12 13 14 15 16 17 18 19 20 21 22 23 25 26 28 30 31 32 33 34 35 36 38 38 38 39 39 40 39 39 38 38 37 36 36 35 35 35
12 12 13 13 14 15 16 16 17 18 19 20 21 22 23 24 25 27 28 30 31 32 33 35 36 37 37 38 39 40 40 41 41 40 39 38 38 37 37 36 35 35 34
14 14 15 16 17 18 18 19 20 21 22 23 23 24 25 26 27 29 30 32 33 34 36 37 37 37 37 38 40 41 41 41 41 41 39 38 38 37 37 35 34 34 34
17 17 17 17 18 19 20 21 22 23 24 25 26 26 28 29 30 32 33 34 35 37 38 38 38 38 39 40 41 42 42 41 41 41 40 39 38 38 36 35 33 33 33
17 18 19 20 21 22 22 23 24 25 27 28 29 30 31 32 33 34 35 36 38 39 39 39 40 40 41 42 42 42 42 42 41 41 41 39 38 37 36 34 33 33 33
19 20 21 22 22 24 25 26 27 28 29 30 31 33 34 35 36 36 37 38 39 41 41 41 41 42 43 43 43 44 43 42 41 41 40 39 38 36 35 34 33 32 32
22 23 24 24 25 26 28 29 30 31 32 33 35 36 36 37 38 39 40 40 41 42 42 42 43 43 44 45 44 44 44 43 42 40 39 38 37 35 34 33 33 32 31
26 26 28 29 29 30 31 32 33 34 35 36 38 39 39 40 40 42 42 43 43 43 44 44 44 45 45 46 45 45 44 43 41 40 38 37 36 35 33 32 31 30 30
29 30 32 32 32 33 34 35 36 37 38 39 40 41 41 42 43 44 45 45 45 46 46 46 46 47 47 47 46 45 44 43 41 40 38 37 36 34 33 31 30 30 29
31 32 33 34 35 35 36 37 38 39 40 41 42 43 44 45 45 46 47 47 47 48 48 48 48 48 48 47 47 46 44 43 41 39 37 36 35 34 32 31 30 29 28
32 34 35 36 37 38 39 40 41 42 43 44 45 46 46 47 48 49 49 49 49 49 50 49 49 49 49 48 47 45 44 43 41 38 37 36 34 33 31 30 29 28 28

GEFSMW_500_meanwind_090.txt.gz
Wind_Speed
10 12 13 13 13 12 11 10 9 7 6 5 5 5 6 6 6 7 6 7 7 7 8 8 9 9 10 10 11 11 12 13 13 14 14 14 14 15 15 16 17 18 19
12 12 12 13 12 12 11 10 8 7 6 5 4 5 5 6 6 6 6 6 6 7 7 8 8 9 10 10 11 12 12 12 13 14 14 14 14 15 16 16 17 18 19
11 12 12 12 12 11 11 9 8 7 6 5 4 4 5 5 5 5 5 5 6 6 7 7 8 9 10 10 11 12 12 13 13 14 14 15 15 15 16 17 18 19 20
10 11 11 11 11 11 10 9 8 6 5 4 4 4 4 3 3 3 4 5 5 6 7 8 9 9 10 11 12 12 13 13 14 14 15 15 16 16 16 17 18 20 21
10 11 11 11 11 10 9 8 7 6 5 4 4 4 3 2 2 3 4 4 5 6 6 7 8 9 10 11 13 13 14 14 15 15 16 17 17 18 19 19 20 21 22
8 9 10 10 9 8 8 8 7 6 5 5 4 4 3 2 2 3 3 4 5 5 6 8 9 10 11 13 14 15 16 16 17 17 17 18 19 20 20 21 22 23 24
6 7 8 8 8 8 7 7 7 7 6 6 5 4 3 3 3 3 3 4 5 6 7 8 9 11 12 14 15 16 18 18 19 19 19 20 20 21 21 22 23 24 25
5 6 7 7 7 8 8 8 8 7 7 6 6 5 4 4 4 4 4 4 5 6 8 9 11 12 14 15 17 18 19 20 21 21 21 22 22 22 22 23 24 25 26
5 6 7 7 8 8 8 8 8 8 8 7 7 6 5 5 5 5 6 6 7 8 9 11 13 14 16 17 19 20 21 22 23 23 23 24 24 24 25 25 25 25 26
7 7 8 9 9 9 9 9 9 9 9 8 8 8 7 7 7 7 8 8 9 10 12 13 15 16 18 19 21 22 23 25 25 26 26 25 25 26 26 26 26 26 26
9 9 9 9 10 10 10 10 10 10 10 10 10 9 9 9 9 9 9 10 11 13 14 16 17 18 20 22 23 25 26 26 27 28 28 27 28 28 28 28 28 28 27
10 11 11 11 11 11 11 12 12 12 12 12 12 11 11 11 11 11 12 13 14 15 17 18 19 21 22 24 25 26 28 28 29 29 29 29 30 30 30 30 30 29 29
11 12 13 13 13 13 14 14 14 14 14 14 14 13 13 13 13 14 15 16 17 18 19 21 22 23 24 26 27 28 29 30 31 31 31 31 32 32 32 32 32 31 31
13 14 14 15 15 15 15 15 15 16 16 16 16 16 16 16 16 17 18 19 20 21 22 23 24 25 27 28 29 30 31 31 32 32 33 33 33 34 34 34 34 34 33
15 15 16 16 16 16 17 17 17 17 18 18 18 18 18 19 19 20 21 22 23 24 25 26 27 28 29 30 31 32 33 33 34 34 34 35 35 35 35 35 35 35 35
16 17 17 17 17 18 18 19 19 20 20 19 20 20 21 21 22 23 24 25 26 28 29 29 30 31 32 33 34 35 35 35 35 35 36 36 36 36 36 36 36 37 37
18 18 18 18 19 19 20 20 21 22 21 21 22 22 23 24 25 26 27 28 30 31 31 32 33 34 35 36 36 37 36 36 36 37 37 38 38 37 37 38 38 38 38
20 20 20 20 21 21 22 23 22 23 23 23 24 25 26 27 28 29 30 31 32 33 34 35 36 37 37 38 38 38 38 38 38 39 39 40 39 39 39 39 39 39 39
24 24 24 23 23 23 24 25 24 24 25 26 27 27 28 29 30 32 33 34 35 35 36 37 38 39 40 40 40 40 40 40 41 41 41 41 41 41 41 40 40 40 40
27 27 27 25 25 26 26 25 25 26 27 28 29 30 30 32 33 34 35 36 37 38 38 39 40 40 41 42 42 42 42 42 43 43 43 43 43 42 43 42 41 41 40
30 29 28 27 28 28 27 27 28 28 29 30 30 32 33 34 36 37 38 39 40 40 41 41 42 43 43 44 44 45 45 45 45 45 45 45 45 44 44 43 42 42 40
29 29 30 29 30 30 30 29 30 30 31 32 32 34 35 37 38 40 41 41 42 43 44 44 45 45 45 45 46 47 48 47 47 46 46 46 46 46 45 44 43 42 41
29 29 29 29 30 31 31 32 32 32 33 34 36 37 38 40 42 43 43 44 45 46 46 47 47 47 48 48 48 49 49 50 50 49 48 48 47 47 46 45 44 43 41
27 27 28 30 31 32 33 33 34 34 35 36 38 40 41 43 45 45 46 48 48 49 50 49 50 50 50 50 51 51 51 52 52 52 50 49 48 48 46 45 44 43 41
27 27 28 29 31 32 34 36 36 36 38 40 41 43 44 45 47 48 49 50 51 52 52 52 53 53 53 53 54 54 54 54 55 54 52 51 50 49 48 46 45 43 42
28 28 29 31 32 33 34 36 38 39 41 42 44 45 47 48 49 50 51 52 53 54 55 56 56 57 57 57 57 57 57 57 56 55 53 52 50 49 47 46 44 43 42

GEFSMW_500_meanwind_096.txt.gz
Wind_Speed
11 15 18 19 20 21 21 20 18 16 15 13 11 10 8 7 5 4 4 4 3 3 3 3 3 3 3 4 5 6 7 7 7 7 8 8 8 9 10 11 13 14 14
8 12 15 16 17 19 19 19 17 16 14 12 11 9 8 7 5 4 4 3 3 2 2 2 1 2 2 3 4 6 6 7 7 8 8 8 8 9 10 11 12 13 14
6 10 12 15 16 17 17 17 16 15 13 11 10 9 8 7 6 5 4 4 3 2 1 0 1 1 2 3 5 6 7 7 8 8 8 9 9 10 11 12 12 13 14
6 9 11 14 14 14 15 15 15 15 13 11 10 9 8 7 6 6 5 4 3 2 1 0 0 1 2 3 5 6 7 8 8 9 9 10 10 11 12 12 13 14 15
5 8 10 12 13 13 14 15 15 14 13 12 11 9 8 7 7 6 6 5 4 3 2 1 0 1 2 3 5 6 8 9 10 10 11 11 11 12 13 13 14 14 15
5 7 9 10 11 12 13 13 14 13 12 11 11 10 9 8 8 7 6 5 4 4 3 2 2 2 3 4 6 7 8 10 11 12 12 13 13 14 15 15 16 16 17
4 6 8 9 10 11 11 12 12 12 11 11 10 10 9 9 8 7 7 6 5 4 4 4 4 4 5 6 7 8 9 10 12 13 13 14 15 16 17 17 18 18 19
2 5 7 8 9 9 10 12 12 12 11 11 11 11 10 10 9 8 8 7 6 6 6 6 6 6 7 8 9 10 11 12 13 14 15 15 16 17 18 18 19 20 20
3 4 6 8 9 9 10 11 12 12 11 11 12 12 11 11 10 9 9 9 9 9 9 9 9 10 10 11 11 12 13 14 15 16 17 17 18 18 19 19 20 21 21
4 5 7 8 9 9 10 11 12 12 12 12 12 12 12 11 11 11 11 11 11 12 12 12 13 13 13 13 14 15 16 17 18 18 19 19 20 20 21 21 22 22 23
5 6 7 8 9 9 10 11 12 12 13 13 13 13 13 13 13 13 13 14 14 14 15 15 15 16 16 16 17 18 19 19 20 21 21 22 22 22 23 23 23 23 24
8 7 8 9 9 10 11 12 13 13 14 14 15 15 15 15 16 16 16 17 17 17 18 18 19 19 19 20 20 21 21 22 23 23 24 24 25 25 25 25 25 25 26
10 10 10 10 11 11 12 13 14 14 15 16 17 17 18 18 19 19 19 20 20 21 21 22 22 23 23 23 23 24 24 25 25 26 27 27 27 27 27 27 27 27 27
12 12 11 12 13 13 14 15 15 16 17 18 18 19 20 21 22 22 23 23 24 24 25 25 26 26 26 26 26 27 27 27 28 28 29 29 29 29 29 29 29 30 30
14 14 14 15 15 16 16 17 18 18 19 20 21 22 23 24 25 25 26 27 27 28 28 28 29 29 29 29 29 29 30 30 30 30 30 31 31 31 32 32 32 32 32
17 17 17 18 18 18 19 19 20 21 22 23 24 25 26 26 27 28 29 29 30 31 31 31 31 31 31 31 31 32 32 32 32 32 32 33 33 33 34 34 34 34 34
20 20 20 21 21 21 22 22 23 23 24 25 26 28 29 29 30 30 31 32 32 32 32 32 32 32 32 33 33 34 34 34 34 34 34 35 35 35 35 36 36 37 37
23 24 24 24 24 24 25 25 25 26 27 28 29 30 31 32 33 34 34 34 34 34 33 33 33 33 34 34 35 35 35 35 35 36 37 37 37 38 38 38 38 38 39
25 26 27 26 27 27 27 27 28 29 29 30 32 32 33 34 35 36 35 36 35 34 34 34 34 35 35 36 37 38 38 38 38 38 39 40 40 40 40 41 41 41 41
26 27 29 30 30 30 30 31 32 32 33 34 34 35 35 36 36 36 36 37 36 36 36 36 36 37 37 38 40 41 41 41 41 41 42 42 42 43 43 44 44 44 44
28 29 31 32 33 34 34 35 35 35 36 36 36 36 37 38 38 38 38 38 38 38 38 39 39 39 40 41 42 44 44 45 45 44 45 46 46 46 47 47 47 46 47
30 31 32 34 36 36 36 36 36 37 37 37 38 38 37 38 39 39 39 40 40 40 40 42 42 42 43 44 46 47 47 48 47 47 48 49 49 49 50 50 50 50 50
30 31 32 34 36 37 38 38 37 38 38 39 38 39 39 40 41 41 41 42 43 43 44 44 45 46 47 47 48 50 50 51 51 52 52 52 52 52 53 53 53 53 52
29 29 31 33 35 36 36 36 37 37 38 39 39 40 41 41 42 43 44 45 45 46 47 48 49 50 51 52 52 53 54 55 56 56 55 55 55 56 56 56 55 55 54
28 29 31 32 34 35 36 36 36 36 37 39 40 40 42 42 44 45 45 46 47 48 49 50 52 53 54 55 56 56 57 58 59 59 59 59 59 59 59 58 57 56 55
28 29 30 31 32 34 36 37 37 37 38 39 40 41 41 42 43 45 46 48 49 51 52 54 55 57 58 59 60 60 61 62 63 63 63 62 61 61 60 59 58 57 55

GEFSMW_500_meanwind_102.txt.gz
Wind_Speed
11 11 11 12 14 17 17 17 17 17 16 15 13 10 9 7 6 5 4 3 3 2 2 1 1 1 1 2 4 5 6 6 6 7 7 7 7 7 7 7 8 8 9
10 9 9 10 12 14 15 17 17 17 15 14 12 9 8 7 5 5 3 3 2 2 2 1 0 0 1 2 3 5 5 6 7 7 8 8 8 8 8 8 8 9 9
8 7 7 8 9 11 12 14 14 14 14 13 11 9 8 7 6 5 4 3 3 2 2 1 1 1 1 2 3 4 5 6 7 8 8 9 8 9 9 9 9 9 10
6 5 4 4 7 8 10 11 12 12 12 11 10 9 8 7 6 5 5 4 4 3 2 2 1 1 1 2 3 4 5 6 7 8 9 10 10 10 10 10 10 11 11
5 3 1 3 5 7 9 9 10 11 11 10 9 9 8 8 7 6 6 5 5 4 3 2 2 1 0 1 2 3 5 6 7 9 10 11 11 11 11 11 12 12 12
5 3 1 1 3 6 8 10 10 10 9 9 10 9 9 8 7 7 7 6 6 5 4 4 3 2 1 2 3 4 5 7 8 9 10 11 12 12 13 13 13 13 14
5 3 2 2 3 5 8 9 9 9 9 9 9 9 9 8 8 8 8 7 7 7 6 5 5 4 4 4 5 6 7 8 9 10 11 12 13 14 14 14 14 15 15
4 3 2 3 4 5 6 8 8 8 9 9 10 10 10 9 9 9 9 9 9 8 8 7 7 7 7 7 8 8 9 10 11 12 13 14 15 16 16 16 16 17 17
5 3 3 3 4 6 7 8 9 8 8 9 10 10 10 10 11 11 10 10 10 10 10 10 10 10 10 10 11 12 13 13 14 15 16 17 17 18 18 18 19 19 19
6 5 4 4 5 6 7 8 9 9 8 9 10 11 11 11 12 12 12 12 12 12 12 12 12 13 14 14 15 16 16 16 18 19 19 20 20 20 21 21 21 21 21
7 6 6 5 6 7 7 8 9 9 9 10 11 11 12 12 13 13 13 13 13 13 14 14 15 16 17 17 18 19 20 20 21 22 23 23 23 23 23 23 23 23 23
9 7 6 7 7 7 7 8 9 10 10 11 12 13 13 14 14 15 15 15 16 16 16 17 18 19 20 21 21 22 23 24 25 25 26 26 26 26 26 26 25 25 25
10 9 8 8 8 8 8 9 10 11 11 12 13 14 15 15 16 16 17 18 19 19 20 20 21 22 23 24 24 25 26 27 28 28 28 29 29 29 28 28 28 28 27
12 11 10 9 9 9 10 11 11 12 13 14 14 15 16 17 17 18 19 20 21 22 23 24 24 25 26 26 27 28 29 29 30 30 31 31 31 31 31 30 30 30 30
14 13 13 12 12 13 12 12 13 14 15 16 17 17 18 19 19 20 21 22 23 24 25 26 27 27 28 29 30 31 31 32 32 32 33 33 33 33 32 32 32 32 32
17 16 16 16 15 14 15 15 16 17 17 18 19 20 20 20 21 22 23 25 26 27 27 28 29 30 30 31 32 33 33 34 34 34 34 34 34 34 34 34 34 34 34
19 19 19 19 18 18 19 19 19 20 20 21 22 23 23 23 24 25 26 27 28 29 30 31 31 31 32 34 35 35 35 35 36 36 36 36 36 36 36 36 36 36 37
21 21 21 21 21 21 22 23 23 24 24 25 25 26 27 27 28 28 29 30 31 31 32 33 33 34 34 34 36 37 38 37 37 38 38 38 38 38 39 39 38 38 39
23 24 24 24 24 25 25 25 26 27 27 28 28 29 30 31 31 31 31 32 33 34 34 35 35 36 36 37 38 38 38 38 39 39 39 40 41 41 42 42 42 41 42
25 25 25 26 27 27 27 28 28 29 30 31 31 32 34 33 34 34 34 35 35 36 36 37 38 38 38 38 39 39 40 40 41 41 41 42 43 44 44 45 45 44 44
25 26 27 27 28 29 29 30 31 31 32 34 35 36 36 36 36 36 36 36 36 38 38 38 38 38 38 39 39 41 43 44 44 44 44 45 46 46 47 47 47 47 48
25 26 28 28 29 31 31 32 33 34 34 36 37 37 38 39 39 39 38 38 38 40 41 39 38 38 39 41 42 42 43 45 46 46 46 47 48 48 49 50 50 51 51
27 28 29 30 30 31 33 34 34 34 35 36 38 38 38 39 39 39 40 40 40 40 40 39 40 41 42 43 44 45 46 47 49 48 48 49 50 52 53 53 53 54 54
27 28 28 29 30 31 32 33 34 34 34 36 36 35 36 38 37 37 38 40 40 40 41 42 43 44 46 47 47 48 49 49 50 51 51 53 54 55 55 55 56 56 57
27 28 29 29 30 31 32 33 33 33 35 35 36 36 36 37 37 37 38 39 40 41 41 42 44 45 46 47 48 50 50 51 52 53 54 55 55 56 57 57 58 58 58
27 28 29 30 31 31 32 33 33 33 34 35 35 36 36 37 37 37 38 40 41 41 42 43 45 46 46 48 49 50 51 53 54 55 55 56 57 58 58 59 59 60 60

GEFSMW_500_meanwind_108.txt.gz
Wind_Speed
9 7 6 5 4 9 12 14 17 16 15 16 16 14 13 12 11 10 10 9 8 7 7 7 7 6 5 5 4 4 4 4 3 3 3 3 3 4 3 2 2 2 3
9 6 5 3 3 7 11 13 16 17 16 15 14 14 12 12 12 11 11 10 9 8 8 8 8 7 6 5 5 4 4 4 3 3 3 4 5 5 4 4 3 3 3
9 6 5 2 2 6 10 12 14 15 16 15 13 13 13 12 13 12 11 10 10 10 9 9 8 8 7 6 5 5 4 3 4 4 4 5 6 6 5 5 4 4 4
8 6 5 1 3 6 10 12 14 15 14 14 13 13 14 14 14 13 12 11 11 10 9 9 9 8 7 7 6 5 4 3 3 4 4 5 5 5 6 6 5 5 5
7 6 5 1 5 7 9 10 13 14 14 15 14 14 15 14 14 13 13 12 12 11 10 9 9 9 8 7 6 5 4 3 2 2 3 3 4 5 5 6 6 6 6
5 4 4 3 5 6 8 9 10 12 14 14 15 15 15 15 14 14 14 14 13 12 11 10 10 9 8 7 6 5 4 2 1 0 1 2 3 4 5 6 6 7 7
4 3 2 2 3 5 6 8 9 11 12 14 14 15 15 16 15 14 14 14 13 13 12 11 11 10 9 8 7 6 5 4 3 3 3 3 4 5 6 7 7 7 8
3 2 2 2 3 4 6 7 9 11 11 12 14 15 15 15 15 14 14 14 14 13 13 12 12 11 10 10 9 8 8 7 7 6 7 7 7 7 8 9 9 9 10
2 2 1 2 2 4 6 7 9 11 11 12 12 13 14 13 14 15 14 15 15 14 14 14 13 13 12 12 12 11 11 10 10 10 10 10 11 11 11 12 12 12 12
1 1 1 1 1 3 5 7 8 10 11 12 12 13 13 13 14 15 15 16 16 16 15 15 15 14 14 14 14 14 14 14 14 14 14 14 14 14 15 15 15 15 15
1 1 0 1 2 3 5 7 8 9 11 12 12 12 13 13 14 15 16 17 17 17 17 17 16 17 17 17 17 17 17 17 17 17 17 18 18 18 18 18 18 18 18
2 1 2 2 2 3 4 7 8 10 11 12 12 12 13 13 14 15 17 18 18 19 19 19 19 19 19 19 20 20 20 20 20 21 21 21 21 21 21 21 21 21 21
3 3 3 3 3 4 4 6 9 10 11 12 13 13 14 14 15 16 17 19 19 20 21 21 22 22 22 22 22 22 23 23 23 24 24 24 24 24 24 24 24 24 24
5 4 5 6 6 6 6 7 9 10 11 12 13 14 15 15 16 17 19 20 21 22 23 23 23 24 24 24 25 25 26 26 27 27 27 27 27 27 27 27 27 27 27
6 6 6 7 8 8 7 7 10 10 12 12 12 14 15 16 17 18 19 21 22 24 25 25 26 26 26 27 27 28 28 29 30 30 30 30 30 30 30 30 30 30 30
8 8 9 9 9 9 10 10 11 11 12 13 14 15 17 18 19 20 21 23 24 24 25 27 28 28 29 30 30 31 31 31 32 33 33 33 33 33 33 32 32 32 32
11 11 11 11 11 12 13 13 14 14 14 15 16 18 19 20 21 22 22 23 26 27 27 28 29 30 32 33 34 33 33 34 34 34 34 35 35 35 35 35 35 34 34
13 13 14 14 14 14 15 16 17 17 17 18 19 20 22 23 24 24 24 26 27 29 29 30 31 32 32 33 34 35 35 35 35 36 36 37 37 38 38 37 37 37 37
14 14 15 16 16 16 17 18 19 20 21 22 22 22 24 25 26 26 26 27 28 29 30 31 31 32 34 35 36 36 37 37 37 38 38 39 38 39 40 39 39 39 40
15 16 16 18 19 20 20 21 22 23 23 24 25 26 26 28 28 28 29 30 30 31 32 33 34 34 35 36 36 37 36 36 37 37 38 38 39 40 41 41 41 41 42
17 18 18 19 20 21 22 22 24 25 26 27 28 29 30 30 31 32 33 33 33 34 34 34 36 36 37 38 38 38 38 37 38 38 39 39 40 41 43 43 44 44 45
18 19 20 21 21 22 23 24 25 27 28 29 29 30 31 31 32 34 33 32 33 33 34 35 35 35 36 37 38 38 38 39 39 39 40 41 42 44 45 45 46 47 47
19 20 21 21 23 24 25 26 27 28 29 30 31 31 32 32 33 32 33 33 34 34 35 35 35 35 36 37 38 39 40 41 41 41 42 44 45 46 47 48 48 48 49
19 20 21 22 23 24 25 27 28 29 30 31 31 32 32 33 34 34 35 35 35 35 36 36 36 37 38 38 39 39 40 41 42 43 44 45 46 47 47 48 50 51 52
19 20 21 23 24 25 27 28 29 30 31 32 33 34 34 35 35 36 36 36 37 38 38 38 39 39 40 40 41 42 43 44 45 46 47 48 48 49 50 51 52 53 54
20 21 22 24 25 26 28 29 30 31 32 33 34 34 34 35 36 36 37 38 38 38 38 39 41 41 42 43 44 45 45 46 47 48 49 49 50 51 52 53 54 55 56

GEFSMW_500_meanwind_114.txt.gz
Wind_Speed
15 15 12 8 8 10 13 16 19 21 21 20 20 20 20 18 16 14 13 12 11 10 9 8 8 7 6 4 4 3 2 2 2 2 2 2 1 1 1 0 1 1 2
15 14 12 7 7 8 12 16 19 21 21 21 20 20 20 18 16 15 13 13 12 11 10 9 8 8 7 5 4 3 3 2 2 2 2 2 2 1 1 1 0 0 1
13 13 11 9 6 7 11 16 19 21 21 20 19 18 18 17 17 15 14 13 13 12 11 10 9 8 8 6 5 4 3 3 2 2 2 2 2 2 2 2 1 1 1
11 11 10 9 6 7 10 15 18 19 20 20 20 19 18 18 17 16 15 14 14 13 12 10 10 9 9 7 6 5 5 4 3 2 1 0 1 1 1 1 2 2 2
11 10 9 8 6 6 9 14 17 18 19 20 21 21 19 18 18 17 16 15 14 14 13 12 11 10 10 9 8 7 6 5 4 3 2 2 1 1 2 2 3 3 4
10 9 8 8 6 4 7 11 15 18 19 20 20 20 19 19 18 17 17 16 15 15 14 13 12 11 11 10 9 8 8 7 6 5 4 3 3 3 3 4 4 5 5
10 9 8 7 4 4 7 9 13 16 17 18 19 19 19 18 18 17 17 16 16 16 15 14 13 13 12 12 11 10 10 9 8 7 7 6 6 6 6 6 6 7 7
10 8 7 5 3 4 5 8 11 13 14 16 17 18 18 18 17 17 17 17 16 16 16 16 15 14 13 13 12 12 12 11 11 10 10 9 9 9 9 9 9 10 10
9 8 6 4 4 5 5 7 9 11 12 14 15 16 17 17 17 17 17 17 16 16 17 17 17 16 15 15 15 14 14 13 13 13 13 13 13 13 13 13 13 13 14
10 8 6 5 5 6 7 8 10 11 12 13 14 15 16 16 17 17 17 17 17 17 18 18 18 18 17 17 17 17 17 17 17 17 17 17 17 17 17 17 17 18 18
10 8 8 7 6 7 8 9 11 12 13 14 15 16 16 16 17 18 19 19 19 19 19 19 20 20 20 20 20 20 20 20 20 21 21 21 21 21 21 21 22 22 22
10 9 8 8 7 8 9 10 11 12 13 15 16 16 16 16 17 18 19 19 20 20 21 21 22 22 22 23 23 23 23 23 24 24 24 25 25 25 25 26 26 26 26
10 9 9 9 9 9 9 10 11 12 13 15 16 17 17 18 18 18 19 20 21 21 21 22 23 24 25 25 25 26 26 26 27 27 28 28 29 29 29 29 30 30 30
11 11 11 11 10 9 9 10 11 11 12 14 15 18 18 19 19 19 19 20 21 21 23 24 25 26 27 27 28 28 29 29 30 30 31 32 32 33 33 33 34 34 34
13 13 13 12 12 11 10 10 11 11 12 13 14 16 18 19 20 20 20 20 21 22 24 25 27 28 29 30 30 31 31 32 32 33 34 35 35 36 36 37 37 37 37
15 16 15 14 13 13 12 11 11 11 12 13 14 16 17 19 20 20 21 21 22 23 24 27 28 29 30 32 33 34 34 35 36 35 36 37 38 38 39 39 40 40 40
17 17 16 15 15 14 13 12 12 12 13 13 14 16 18 18 19 20 21 23 24 24 26 27 29 31 31 32 34 34 35 36 37 38 38 39 40 41 41 41 41 42 42
18 18 17 17 17 17 16 16 15 15 15 16 17 18 19 20 21 22 23 24 25 27 28 29 30 32 33 35 36 37 37 37 38 39 40 41 42 42 43 43 44 44 44
20 19 19 19 19 19 19 19 19 18 19 19 19 20 21 22 23 24 25 27 28 29 30 31 33 33 34 36 37 38 39 40 41 41 42 43 43 44 45 45 45 45 46
20 20 21 21 20 20 20 20 20 21 21 22 23 23 24 24 25 26 28 29 29 30 31 33 34 35 37 38 38 40 42 43 43 43 44 44 45 46 47 47 47 47 47
20 20 21 22 21 21 21 22 22 23 24 25 26 26 27 28 29 30 31 32 32 32 33 34 36 37 38 38 39 40 43 44 44 45 45 46 46 47 48 48 49 49 49
20 20 20 21 22 23 23 23 23 24 25 26 28 28 29 29 30 31 31 31 32 33 34 35 36 36 36 38 40 41 42 43 44 45 46 46 46 46 47 48 49 50 50
21 21 22 22 23 23 23 23 24 25 26 27 27 28 29 31 32 32 33 33 34 34 35 35 37 37 38 39 40 41 42 43 44 45 45 46 46 46 47 48 48 49 50
21 22 22 22 22 23 23 25 25 26 27 27 28 29 30 32 33 34 35 35 36 36 36 37 38 39 39 40 41 41 42 43 45 46 46 46 47 48 48 48 49 50 51
22 22 22 23 23 24 25 26 26 27 28 29 30 32 33 34 34 35 36 37 37 38 38 39 39 40 41 42 43 43 44 44 45 46 48 48 48 49 50 50 52 52 53
22 22 22 23 24 24 25 26 27 29 30 31 32 33 34 35 36 37 38 38 38 39 40 40 41 42 43 43 44 44 45 45 46 47 48 49 50 51 52 52 53 53 54

GEFSMW_500_meanwind_120.txt.gz
Wind_Speed
15 13 12 13 11 11 11 12 15 19 22 23 22 21 21 20 19 17 15 12 11 9 7 7 6 6 6 5 4 4 3 3 2 2 1 0 0 0 1 1 1 2 2
14 13 11 11 9 10 11 12 14 18 22 23 21 20 20 20 18 17 16 14 12 10 8 7 7 7 6 6 5 5 5 4 3 2 1 1 0 0 1 2 2 2 2
13 11 10 9 8 9 9 11 14 19 21 21 21 21 20 19 18 17 16 14 13 11 9 8 8 8 7 7 7 6 6 5 4 3 2 1 1 0 1 2 2 3 3
12 10 10 9 8 7 7 9 13 17 21 22 20 21 20 19 18 17 16 14 13 12 10 10 9 8 8 8 8 8 7 6 5 4 3 2 2 1 1 2 3 3 3
10 11 10 9 7 6 7 8 12 15 19 20 19 20 20 19 19 18 16 15 14 13 12 11 11 10 9 10 9 8 8 7 7 5 5 4 3 3 3 3 4 4 4
9 9 9 8 6 5 5 7 11 13 17 19 19 19 19 19 18 18 17 16 15 14 13 13 12 11 11 10 10 9 9 9 8 7 6 6 6 5 5 5 5 6 6
8 9 8 7 6 4 4 5 9 12 15 17 19 19 18 18 18 18 17 16 16 15 14 14 13 13 12 11 11 11 11 10 10 9 9 8 8 8 7 8 8 8 8
9 8 8 7 6 5 3 5 7 9 12 15 18 19 18 17 17 17 17 16 16 16 15 15 14 14 13 13 13 13 13 13 12 12 11 10 10 11 11 11 11 11 11
9 9 8 7 6 4 3 4 6 8 10 13 15 17 18 16 16 17 17 17 17 16 16 16 15 15 15 14 15 15 15 14 14 14 14 14 14 14 14 15 15 15 15
9 9 9 7 6 3 3 4 5 8 10 11 13 15 17 16 16 17 16 16 17 16 15 15 16 17 16 16 16 17 17 17 17 17 17 17 17 17 17 18 18 19 19
10 9 9 8 6 5 4 4 5 7 9 10 11 13 15 17 17 17 16 16 17 16 16 17 18 18 18 18 18 19 19 19 19 19 19 20 21 21 21 21 22 22 23
10 10 9 8 6 6 5 5 6 8 9 10 11 12 14 15 16 16 17 17 17 17 18 18 18 19 19 20 21 22 22 22 22 22 22 23 24 25 25 25 26 26 26
11 10 9 8 7 7 7 7 7 9 9 10 11 12 14 15 16 17 17 18 18 18 18 19 19 20 21 22 23 24 24 25 25 25 26 27 27 28 28 29 29 29 29
11 10 9 8 8 8 8 9 10 10 11 12 12 13 14 15 17 18 19 19 20 20 20 21 21 22 22 23 24 26 26 27 27 28 29 30 30 31 32 32 32 32 33
13 12 11 10 9 9 9 10 11 12 12 13 13 14 15 16 17 19 20 21 21 22 22 22 23 23 24 25 26 26 28 29 30 31 31 32 33 33 34 35 35 35 35
15 14 13 12 11 11 10 10 11 12 12 13 13 14 15 16 18 20 21 21 22 22 23 23 24 25 26 27 28 29 30 31 32 33 34 35 35 35 36 36 37 38 38
17 16 15 14 13 12 12 11 12 12 12 13 14 14 15 16 18 20 21 22 22 23 24 24 25 26 27 29 30 31 32 33 34 35 35 36 37 37 38 39 40 40 40
19 18 17 16 15 14 14 14 13 13 13 14 15 16 16 17 18 20 21 23 24 25 26 27 27 29 30 31 32 32 33 33 34 35 37 38 39 40 41 42 42 43 44
21 20 19 18 18 17 16 16 16 17 16 16 17 17 18 18 19 20 21 22 24 26 27 28 29 30 30 31 32 34 35 36 37 37 39 40 41 41 43 44 44 44 45
22 21 21 20 19 19 19 19 19 19 19 19 19 19 20 20 21 21 23 24 25 27 29 30 31 32 32 33 34 36 37 39 40 40 41 42 43 44 45 46 46 46 47
23 23 23 22 21 21 21 21 21 21 21 22 22 22 22 23 24 25 25 26 28 29 31 32 33 34 35 35 36 37 39 41 42 43 44 44 45 45 46 47 48 49 51
25 25 24 24 24 23 23 23 23 24 25 24 24 24 25 25 26 27 28 29 30 31 32 33 35 36 37 38 39 41 42 43 44 44 45 45 46 47 48 49 50 51 52
27 26 26 26 26 25 24 25 25 25 25 26 25 26 27 27 28 29 30 32 33 33 34 36 37 38 39 40 41 42 43 44 45 46 46 47 48 48 49 49 50 51 52
28 27 26 25 25 25 25 26 25 25 25 26 27 27 28 29 30 31 32 33 34 35 36 37 38 39 40 42 43 44 45 45 46 47 48 48 49 50 50 51 51 52 52
25 25 25 25 25 26 26 26 26 27 27 28 28 28 30 30 31 32 33 34 35 36 37 38 39 40 41 42 44 45 46 47 48 48 49 49 50 51 51 52 53 53 53
24 25 24 24 25 26 26 27 27 28 28 29 29 30 31 31 32 34 35 36 37 38 39 40 41 42 43 44 45 46 47 47 49 49 50 51 52 52 53 53 54 54 54

GEFSMW_500_meanwind_126.txt.gz
Wind_Speed
18 17 16 16 16 15 14 14 14 15 16 16 18 19 19 18 18 17 15 14 13 12 11 9 8 7 7 6 6 5 4 3 2 1 1 2 3 3 4 4 4 4 4
17 17 16 15 15 13 12 12 12 12 14 16 17 18 19 18 17 16 15 15 14 13 11 10 8 7 7 7 7 6 5 4 3 2 2 2 2 3 3 4 4 4 4
17 17 15 14 14 12 10 10 11 11 13 16 16 16 18 17 16 15 14 14 14 13 12 10 9 8 8 8 7 6 5 4 4 3 2 2 1 2 2 3 3 4 4
17 16 14 13 12 11 10 9 9 10 12 15 16 16 16 16 15 15 14 14 14 13 12 11 10 9 8 8 8 7 6 5 5 4 3 2 1 0 1 1 2 3 4
16 15 14 13 12 12 10 8 9 9 11 14 16 16 16 16 16 15 14 14 14 13 12 11 11 10 9 8 8 7 7 6 6 5 4 3 3 2 2 2 3 3 4
15 15 14 13 12 12 11 8 8 9 11 13 15 17 17 17 16 14 14 14 14 13 13 13 12 11 10 9 9 9 8 8 7 6 6 5 5 5 5 4 5 5 5
15 14 13 13 12 11 10 8 7 8 9 12 15 16 17 16 16 15 14 14 14 14 14 14 13 12 11 10 10 10 10 10 9 9 8 8 8 8 8 8 8 8 7
14 13 13 12 11 10 8 6 5 5 7 10 13 15 15 16 16 16 15 15 15 15 15 14 14 14 13 12 12 12 12 12 12 11 11 11 11 11 11 11 11 11 11
14 13 13 11 10 9 7 6 4 5 6 8 11 14 15 15 15 16 16 15 16 16 16 15 15 14 14 13 14 14 14 14 14 14 14 14 13 14 14 14 14 15 15
14 13 12 11 10 8 7 5 3 4 5 7 10 13 14 15 15 15 16 15 15 16 15 15 15 15 14 15 15 16 16 16 16 16 16 16 16 17 17 18 18 18 18
15 14 12 11 10 8 7 6 4 5 6 7 9 10 12 14 14 15 15 15 15 16 16 16 16 15 15 15 15 16 17 17 18 18 18 19 19 20 20 20 21 21 22
15 14 13 12 10 8 7 6 6 5 6 7 9 10 12 12 14 14 15 15 15 16 16 16 16 15 15 15 16 17 18 18 19 19 20 20 21 22 23 23 24 25 25
16 14 14 13 11 9 8 7 7 7 7 7 8 8 9 11 13 15 16 16 15 15 16 16 16 17 18 18 18 19 19 20 21 21 22 23 23 24 25 26 26 27 27
17 16 14 13 11 10 9 9 8 9 8 8 8 9 10 12 13 14 16 16 16 16 17 17 17 18 19 20 20 20 21 22 23 24 24 25 25 26 28 28 29 30 30
19 18 16 14 13 11 10 10 10 10 10 10 11 10 11 11 12 13 14 15 16 17 17 18 19 20 21 21 22 22 22 23 24 25 26 27 27 29 30 31 32 32 33
20 20 18 17 15 13 12 11 11 10 10 11 11 12 12 12 13 13 14 15 16 17 18 19 21 22 22 22 23 23 24 24 25 26 27 28 29 30 31 33 33 34 34
22 21 20 18 16 15 15 13 12 12 12 12 11 12 13 13 14 14 15 16 17 18 19 20 21 21 22 23 24 24 25 26 27 28 29 30 31 32 33 34 35 36 37
24 22 22 20 18 17 17 15 14 13 13 13 13 13 13 13 15 16 16 17 18 19 20 20 20 21 23 23 24 25 26 27 29 30 31 32 33 34 35 36 37 37 38
26 25 23 22 21 19 18 17 16 16 15 14 15 15 16 16 16 17 17 18 19 19 20 21 22 23 24 25 26 28 29 30 31 32 33 34 35 36 37 38 39 40 41
27 26 25 24 23 22 21 20 18 18 17 17 17 17 18 18 18 18 18 19 19 20 21 22 24 26 26 27 28 30 31 32 33 35 36 37 38 39 40 41 42 43 44
27 26 26 25 24 24 24 22 20 19 19 19 19 19 19 18 19 20 20 21 21 22 24 24 25 27 29 30 31 32 33 34 35 36 37 39 40 41 43 44 45 46 46
28 27 27 26 26 25 25 24 23 22 22 21 22 22 21 21 23 24 24 24 25 26 27 27 28 29 30 31 33 35 36 37 37 38 40 41 43 44 45 46 47 48 49
28 28 28 28 28 27 26 26 25 25 24 24 24 24 24 25 25 26 27 27 28 28 29 30 31 31 32 34 35 36 37 38 39 40 42 43 44 46 47 48 49 50 51
28 29 28 28 28 28 28 27 27 26 26 26 26 26 26 26 27 28 28 29 30 31 32 33 34 34 35 36 37 38 39 41 42 43 44 45 46 47 49 50 51 52 53
28 28 29 29 29 28 27 27 26 26 26 26 26 26 27 27 28 28 29 31 32 33 34 35 36 37 37 38 40 41 42 43 44 45 47 48 49 50 51 52 53 54 54
28 28 29 29 28 27 26 26 26 26 26 26 26 26 27 28 29 30 31 32 33 34 35 35 36 38 39 40 41 43 44 45 47 48 49 50 51 52 53 54 55 55 55

GEFSMW_500_meanwind_132.txt.gz
Wind_Speed
15 14 14 13 12 12 11 10 11 10 11 11 13 14 17 18 18 18 18 17 15 14 13 12 10 9 7 7 7 8 7 6 6 5 4 3 2 2 3 3 3 3 3
13 12 12 12 12 11 10 10 9 8 9 11 13 14 18 18 18 18 17 16 15 15 14 13 12 10 8 8 8 8 8 7 7 6 5 4 4 3 3 3 3 3 3
13 12 11 12 12 11 10 10 9 8 8 10 13 16 18 18 18 17 16 15 15 16 15 13 12 11 10 8 8 9 8 8 8 7 6 5 4 4 3 3 3 3 3
11 11 11 11 11 10 10 9 9 8 8 9 11 14 16 18 19 18 17 16 15 16 16 15 13 12 11 9 9 9 9 9 9 8 7 6 5 5 4 4 3 3 3
9 10 10 10 10 10 10 9 8 8 8 10 11 13 17 18 19 19 18 16 16 16 16 16 15 14 12 11 10 10 11 10 10 9 8 7 7 6 5 5 4 4 4
8 9 10 10 9 10 10 9 8 7 6 8 11 13 16 18 19 19 17 16 16 16 16 15 16 16 14 13 12 12 12 12 11 10 9 9 8 7 6 6 6 6 5
8 9 10 10 9 9 9 8 7 6 7 9 11 13 15 17 19 19 18 17 17 17 17 16 16 16 15 14 14 14 13 12 12 11 11 10 10 9 9 8 8 8 8
7 8 9 9 10 9 9 8 7 5 5 8 11 13 15 17 20 20 19 18 18 18 18 18 17 17 16 16 15 15 14 13 13 13 12 12 11 12 12 11 11 11 11
8 8 8 9 10 10 9 8 6 5 6 8 9 12 15 18 20 20 20 19 19 19 19 19 19 18 17 16 16 16 16 16 15 15 14 14 13 13 14 14 13 13 13
8 9 9 9 9 9 8 7 6 6 6 8 9 11 14 18 20 21 21 20 19 19 19 19 19 19 18 17 16 17 17 17 17 17 17 16 16 16 16 16 16 16 16
10 10 10 10 9 9 8 7 6 6 6 7 9 10 12 15 17 19 20 20 20 19 19 19 19 19 19 18 18 18 18 18 18 18 18 18 18 18 18 18 18 18 18
12 13 12 11 10 9 7 7 6 6 6 7 8 8 10 13 16 17 19 20 20 20 20 19 19 19 19 19 20 20 20 20 20 19 19 20 20 21 21 21 21 21 21
14 13 12 11 10 9 8 6 7 6 6 6 7 8 9 11 14 16 17 18 19 19 20 20 20 20 19 19 20 21 21 21 21 21 21 22 22 23 23 24 24 24 24
15 14 12 12 11 9 9 8 7 6 6 5 7 9 10 11 13 14 16 17 19 19 19 20 21 21 21 21 21 22 22 23 23 23 23 23 24 24 25 25 26 26 27
16 14 15 14 12 11 10 9 9 8 8 7 8 9 11 12 13 14 15 17 18 19 19 20 20 21 22 22 23 22 23 24 24 24 24 25 25 25 26 26 27 28 29
19 17 16 16 13 12 12 11 10 11 10 10 10 11 11 12 13 14 16 16 16 17 19 20 21 21 21 22 23 24 25 25 25 25 25 25 26 27 28 28 29 30 31
21 20 19 16 15 14 13 13 13 12 13 13 13 13 13 13 13 15 16 18 17 17 18 19 20 21 22 23 24 25 25 25 25 26 26 26 27 29 30 31 32 33 33
23 21 19 18 17 16 15 14 14 14 14 14 14 14 14 14 15 16 16 18 19 19 20 21 22 23 23 24 24 24 24 25 26 27 28 29 30 31 32 33 34 35 36
25 23 21 20 18 17 16 16 16 16 16 15 14 14 14 14 15 16 18 19 19 20 21 22 22 23 24 23 23 24 25 26 28 28 29 30 31 33 34 35 35 37 38
27 25 23 21 20 19 18 17 17 17 17 17 16 15 15 15 16 17 18 19 19 20 21 21 23 23 24 24 24 25 26 27 29 30 31 32 33 35 36 37 38 39 40
27 26 24 22 21 20 19 19 19 18 18 18 17 17 17 17 18 18 19 19 20 20 20 21 22 23 23 24 25 26 27 29 31 32 33 35 36 37 38 39 40 41 42
27 26 24 23 22 22 21 21 20 20 19 19 19 19 19 19 19 20 20 21 21 22 22 22 23 23 24 26 27 28 30 32 34 35 36 37 38 39 40 41 42 43 44
25 26 24 23 22 22 22 22 21 21 21 21 21 20 21 21 21 21 21 22 22 23 24 24 26 28 29 30 31 32 33 34 35 36 37 39 40 42 43 44 45 46 47
24 25 24 23 23 23 23 22 22 22 22 22 22 22 22 22 22 23 23 24 24 25 26 27 28 30 31 32 32 34 35 36 38 39 40 41 42 43 44 46 47 48 49
23 23 23 23 23 23 23 23 23 23 23 22 22 22 22 23 24 24 24 24 25 25 26 27 28 29 31 32 34 35 37 38 40 41 42 43 45 46 47 48 49 50 50
22 23 23 23 23 23 23 23 22 22 22 22 22 22 22 23 23 24 24 25 26 26 27 28 29 31 32 34 37 38 39 40 41 41 43 45 46 47 48 49 50 51 52

GEFSMW_500_meanwind_138.txt.gz
Wind_Speed
13 13 13 13 13 13 12 10 10 10 10 12 14 14 14 14 16 17 18 19 18 15 13 13 12 10 9 8 7 7 7 6 6 5 4 3 3 2 1 1 1 1 1
13 13 14 14 14 13 12 11 9 8 8 11 14 15 15 15 16 17 18 19 18 17 15 15 14 12 11 10 9 8 8 8 7 6 5 4 3 3 1 1 0 0 1
14 15 15 15 16 15 13 11 8 7 7 9 12 15 15 16 17 18 19 19 18 17 15 16 16 14 13 11 10 9 9 9 8 7 6 5 4 4 3 2 2 1 1
14 15 15 15 15 14 11 8 7 7 7 9 11 13 15 16 17 18 20 20 19 18 16 16 16 15 14 12 11 10 10 10 9 8 7 7 6 5 5 4 4 3 3
14 14 14 14 13 11 8 7 8 7 7 7 10 12 15 17 17 18 19 20 20 18 17 16 16 16 15 13 12 11 11 10 10 9 9 8 7 7 7 6 6 6 6
12 12 12 12 12 10 9 8 7 7 7 8 10 11 13 16 18 19 19 20 19 18 17 17 16 17 15 14 14 13 12 12 11 11 10 10 9 8 8 8 8 8 8
10 10 11 12 11 11 10 9 8 7 7 8 10 12 14 16 17 20 20 20 20 19 18 17 17 17 16 16 15 14 14 14 13 12 12 12 11 11 11 11 11 11 11
9 10 10 11 11 11 11 9 9 8 7 8 10 12 14 16 17 19 21 21 21 21 20 19 18 18 18 17 17 16 16 15 15 14 14 13 13 13 13 13 13 13 14
9 10 10 11 12 12 11 9 9 8 8 8 10 11 13 15 17 19 21 22 22 21 21 20 19 19 18 18 17 17 17 17 17 17 16 16 16 16 16 16 16 16 16
11 11 11 12 13 13 12 10 9 8 9 10 11 12 13 15 16 18 19 22 22 22 22 21 21 20 20 19 18 18 18 18 18 19 18 18 18 18 18 18 18 18 18
12 12 12 13 13 13 12 11 10 9 9 9 10 11 13 15 16 16 18 20 21 22 22 22 22 22 21 20 20 20 20 20 20 20 20 20 20 20 20 20 20 21 21
13 14 13 12 12 12 11 10 9 9 9 9 10 10 10 12 13 14 17 19 21 22 22 22 23 23 22 22 22 22 22 22 22 22 22 22 22 22 22 22 22 23 23
13 13 13 12 12 12 12 11 9 9 8 8 8 9 9 11 12 12 15 18 19 21 22 22 23 23 23 23 23 23 23 23 24 23 23 23 24 24 24 24 25 25 25
12 12 13 13 13 12 12 10 9 9 9 9 8 9 10 11 12 12 14 17 18 19 20 21 22 23 23 23 22 22 22 22 23 23 24 24 25 25 26 26 27 27 27
14 14 14 14 13 12 11 11 10 10 10 10 9 9 10 11 13 13 14 16 18 19 19 21 22 22 23 22 22 23 23 23 23 24 24 25 26 26 27 28 29 29 29
16 16 16 15 14 13 12 11 11 10 10 11 10 11 11 11 12 13 14 15 17 18 19 21 22 21 21 21 22 23 24 24 24 25 26 26 27 28 29 31 31 31 31
19 18 19 17 15 14 14 13 12 11 11 11 11 12 12 12 12 13 14 15 17 18 18 20 20 20 20 20 22 23 24 25 26 27 28 28 29 31 31 32 32 32 33
20 20 20 18 17 15 14 14 13 13 12 12 12 13 13 13 14 14 15 16 17 18 19 19 20 21 21 22 24 26 27 28 28 29 30 31 32 33 33 33 33 34 35
21 21 20 19 18 18 17 15 15 14 14 13 14 14 14 15 14 15 15 16 17 18 18 19 20 21 22 23 25 27 28 29 29 30 30 31 32 33 34 35 36 37 38
23 22 22 21 21 20 19 18 17 16 15 15 15 15 15 14 15 15 16 17 18 19 20 21 22 23 24 25 27 27 28 29 30 31 31 32 33 35 35 37 38 40 40
24 23 23 22 22 21 21 20 19 18 17 17 17 16 16 16 16 17 18 19 20 20 21 22 23 23 24 25 26 27 28 29 31 31 32 33 34 36 38 39 40 41 41
24 24 24 23 22 21 21 20 19 20 19 18 18 17 17 18 18 19 19 20 21 21 22 23 24 24 25 26 27 28 30 31 32 33 33 34 34 36 38 39 41 42 43
24 24 23 23 22 22 22 22 21 20 20 20 19 19 19 19 20 21 21 22 23 23 24 24 25 26 27 27 28 29 30 31 32 33 34 35 37 38 40 41 42 43 45
23 23 22 21 21 21 21 21 22 21 21 20 20 20 21 21 22 23 23 23 23 24 25 26 26 26 27 28 29 30 31 32 33 35 36 38 39 40 42 43 44 46 47
22 22 22 22 21 21 20 20 20 20 21 21 21 22 22 23 24 24 24 25 26 26 26 27 27 27 28 30 31 32 33 35 36 38 39 40 42 42 43 45 46 47 49
20 20 20 20 20 21 21 20 20 21 22 22 22 22 22 23 24 25 25 26 26 26 27 28 29 29 31 32 34 35 36 37 39 41 42 42 43 43 44 45 46 48 49

GEFSMW_500_meanwind_144.txt.gz
Wind_Speed
10 10 11 11 12 12 12 11 10 10 11 12 12 13 15 14 15 16 16 15 16 15 14 13 12 10 9 8 7 7 6 6 5 5 4 3 3 2 2 1 0 1 1
11 13 12 12 12 12 13 13 11 11 12 12 12 12 15 15 15 17 16 16 16 16 15 15 13 12 10 10 9 8 8 7 7 6 5 5 4 4 3 2 1 1 0
12 13 13 12 12 13 13 13 12 10 9 10 11 12 14 15 15 15 16 17 17 17 16 15 14 13 12 11 10 10 9 9 8 7 7 7 6 5 5 4 3 2 2
13 13 12 12 11 12 13 12 10 10 10 10 11 12 14 15 16 16 17 17 17 17 17 15 15 14 13 12 12 11 11 10 10 9 9 8 8 7 6 5 5 4 4
12 11 11 11 11 12 12 11 11 10 9 9 10 12 14 15 17 18 17 16 17 18 18 16 15 14 14 13 13 13 12 11 11 11 10 10 9 8 8 7 7 6 6
10 10 10 10 10 11 11 11 11 10 9 9 10 12 13 15 16 17 17 17 17 17 18 17 16 16 15 15 14 14 13 12 12 12 11 11 10 10 9 9 9 8 8
10 9 9 9 10 11 11 11 11 10 10 10 11 12 13 15 16 17 18 18 18 18 18 18 17 17 17 16 15 15 15 14 13 13 13 13 12 12 12 11 11 11 11
8 8 8 8 9 10 11 11 11 10 10 11 12 13 13 14 15 16 17 19 19 19 19 19 19 18 18 17 17 17 17 16 15 15 15 15 15 15 14 14 14 14 14
8 8 9 9 10 11 12 11 11 10 10 11 11 12 13 13 15 16 17 18 18 19 20 20 20 20 19 18 17 18 18 17 16 16 17 17 18 18 18 17 17 16 16
9 9 9 10 11 12 12 11 12 11 11 11 12 12 13 14 15 17 17 18 19 19 20 21 21 21 21 20 20 19 19 18 18 18 18 19 19 20 20 20 19 19 19
11 11 11 12 12 13 12 11 12 12 11 10 11 12 13 14 15 16 18 19 20 20 20 22 22 22 22 22 22 21 21 20 20 20 20 20 21 21 21 22 22 22 21
11 11 12 13 13 12 12 12 11 11 11 10 11 12 12 13 15 15 16 18 19 20 20 21 22 22 23 23 23 23 23 23 22 22 22 22 22 22 23 23 23 23 23
11 11 12 13 12 12 12 12 11 11 11 11 12 13 13 13 14 15 16 16 17 19 20 21 22 22 22 24 24 25 25 24 24 24 24 24 24 24 24 24 25 25 25
14 14 14 14 14 13 12 12 12 11 11 12 12 12 12 13 14 15 15 16 17 18 20 21 22 23 23 24 25 25 25 26 27 27 27 27 26 26 26 26 26 26 27
16 16 15 15 14 14 13 13 12 12 11 11 11 12 12 12 12 13 14 16 17 19 20 20 21 22 22 22 24 25 25 26 27 27 28 28 27 27 26 26 27 27 28
17 17 17 16 15 15 15 14 14 13 12 12 12 12 12 12 13 13 14 15 17 18 20 21 21 22 22 22 23 24 25 25 26 27 27 27 27 28 28 28 28 29 30
17 18 17 17 17 16 16 16 16 15 14 13 13 13 13 13 13 14 15 16 17 17 18 20 21 22 23 23 24 24 25 25 25 26 28 28 28 29 30 30 30 31 33
19 20 19 18 18 18 18 18 17 16 15 14 14 14 14 14 15 15 15 16 17 18 19 20 21 22 23 24 24 24 26 27 27 27 27 29 30 30 31 32 33 33 34
21 21 21 20 20 19 19 19 19 18 17 16 16 16 16 16 16 16 16 16 17 18 19 19 21 22 23 24 25 25 26 26 26 26 28 29 30 31 32 33 34 35 36
23 22 22 22 22 21 20 20 20 19 18 18 18 17 16 16 16 17 17 18 18 19 20 20 21 22 23 25 25 26 26 26 27 28 29 29 30 31 33 34 35 36 36
24 23 23 23 22 22 22 21 21 20 20 19 19 19 19 18 18 18 18 19 20 20 21 22 22 22 24 25 26 26 26 27 28 29 29 29 30 32 33 33 34 35 36
24 24 23 23 22 22 22 22 22 21 21 20 19 19 19 20 19 19 19 19 19 20 21 23 24 25 26 27 27 27 28 28 29 29 30 30 31 33 33 34 35 36 38
24 24 24 24 23 23 23 22 22 21 21 21 20 20 20 20 20 20 21 21 21 22 23 24 25 26 27 27 27 28 28 29 30 30 31 33 33 34 35 36 36 38 39
24 24 23 23 23 22 22 22 22 21 21 21 21 21 21 21 21 22 23 23 23 24 24 24 24 25 26 27 28 29 29 30 31 32 34 35 36 36 37 37 38 40 41
24 23 22 22 22 22 21 21 22 22 22 22 22 22 22 22 22 23 24 25 24 24 24 24 25 26 27 28 29 30 31 32 32 33 35 35 36 37 38 39 40 41 42
23 23 22 22 22 22 22 21 21 21 21 22 23 23 22 22 22 23 24 24 24 24 25 26 27 28 29 30 31 31 32 32 33 34 34 35 36 37 38 39 41 42 43

GEFSMW_500_meanwind_150.txt.gz
Wind_Speed
12 12 13 13 13 13 13 13 13 12 12 11 10 10 10 11 10 11 11 11 11 11 11 11 11 10 10 9 8 8 7 6 5 4 4 4 3 3 2 1 0 1 2
14 14 14 14 14 14 14 14 13 12 11 10 10 9 9 10 10 10 11 11 11 12 12 11 12 11 10 10 10 9 8 8 7 6 5 5 4 4 3 2 1 1 1
14 13 14 14 14 13 13 13 13 12 11 10 10 9 9 9 9 10 12 12 12 12 12 12 12 12 11 11 11 10 10 10 9 8 7 6 5 5 5 4 3 2 2
15 13 13 14 13 12 12 12 13 12 12 11 10 9 9 10 10 11 13 13 13 13 13 13 12 13 12 12 12 12 12 11 11 10 9 8 8 7 6 5 5 4 4
15 14 13 12 12 12 12 12 12 12 11 11 10 9 9 9 10 11 13 14 14 14 14 14 14 13 13 13 13 13 13 12 12 12 11 10 9 8 8 7 7 7 7
16 15 12 12 12 12 12 12 12 12 11 11 11 10 10 10 11 12 13 14 14 15 15 15 15 14 14 15 14 14 14 14 13 13 12 12 11 10 9 9 8 8 9
15 14 13 12 12 12 12 12 11 11 11 11 10 9 10 10 11 12 13 14 15 15 16 16 16 16 16 16 15 15 15 14 14 14 14 14 14 13 12 12 11 11 12
14 14 13 13 12 12 12 12 12 11 11 11 11 10 10 10 10 11 12 13 15 16 17 17 17 17 17 17 17 17 17 16 16 16 16 15 15 16 15 15 14 14 14
15 15 14 13 13 13 12 12 12 12 12 12 11 10 10 10 10 11 11 13 15 16 17 17 18 18 19 19 19 18 18 18 18 18 18 17 17 18 18 18 18 17 17
15 15 15 14 14 13 13 13 13 13 13 12 11 11 10 10 11 12 13 14 16 17 18 18 19 19 19 19 19 19 19 20 20 20 20 19 18 19 19 20 20 20 20
15 15 14 14 14 14 15 14 13 13 13 12 12 13 12 11 11 12 14 15 16 18 19 20 20 20 19 21 21 21 21 21 21 21 21 21 21 21 21 22 21 22 22
15 15 13 14 15 15 15 15 14 14 14 13 13 13 13 12 12 13 14 15 16 18 19 20 20 19 19 21 21 22 22 22 23 23 23 23 23 23 23 23 24 24 24
15 14 15 16 16 16 15 15 15 15 15 14 13 13 13 14 13 13 14 14 15 17 18 20 20 19 19 20 21 21 22 23 24 25 25 24 24 25 25 25 25 26 26
17 17 17 17 17 17 16 16 16 16 15 14 15 14 14 13 13 13 14 14 15 16 17 19 18 19 19 20 20 21 22 23 24 24 24 24 25 26 27 27 27 27 27
18 18 18 18 18 18 17 18 18 17 16 15 15 15 15 14 14 14 14 15 15 16 16 17 18 19 19 19 20 22 22 23 23 24 24 25 25 27 28 29 29 29 29
19 19 19 19 19 19 19 19 19 19 18 17 17 16 16 16 16 15 15 15 15 15 15 17 18 19 19 19 20 21 22 23 24 24 25 25 26 28 29 29 30 31 31
20 20 19 19 20 20 20 20 20 19 18 18 18 17 17 16 16 15 15 15 15 15 15 16 17 18 18 19 20 21 23 24 24 25 26 27 28 29 29 30 31 32 32
22 21 21 21 21 21 21 20 20 20 19 19 18 18 17 17 16 16 15 15 15 15 16 16 17 18 18 20 21 23 24 25 25 27 28 28 29 30 30 28 29 30 31
23 23 23 22 22 22 22 21 21 21 20 20 19 18 17 17 17 17 17 17 17 17 16 17 17 18 18 19 21 22 24 24 25 27 27 28 28 28 28 29 29 30 31
25 24 24 23 23 23 23 23 23 22 22 21 20 20 19 19 19 18 18 18 18 18 18 18 19 20 20 21 21 22 23 24 25 26 27 28 29 29 29 29 30 30 31
25 25 25 25 24 24 23 23 23 23 22 22 21 20 19 19 19 19 19 20 20 20 20 20 20 20 21 21 22 23 24 25 26 26 27 27 28 30 30 31 31 31 32
25 25 25 25 25 25 24 24 24 23 23 22 21 21 21 21 20 20 19 20 21 21 22 22 21 21 21 22 23 24 25 26 26 26 27 28 29 30 31 32 32 33 34
26 26 26 25 25 24 24 23 24 24 23 23 23 22 22 22 22 21 21 21 21 21 21 22 23 23 23 23 24 25 25 26 27 28 29 29 30 31 32 32 33 33 34
27 26 26 25 24 24 23 23 23 23 23 23 23 23 23 23 22 22 22 23 23 23 22 22 23 24 24 24 25 26 28 28 29 29 30 31 32 32 33 34 34 34 35
27 27 26 25 25 24 23 23 23 23 23 23 23 23 22 22 22 22 22 23 23 23 24 24 25 25 25 26 27 28 29 30 30 30 31 32 33 33 34 34 34 35 36
28 27 26 25 24 23 23 23 23 23 23 23 23 22 22 22 22 22 22 23 24 24 24 24 25 25 26 27 27 28 29 30 31 32 33 34 34 35 35 35 35 35 36

GEFSMW_500_meanwind_156.txt.gz
Wind_Speed
10 9 9 10 9 8 8 7 8 7 7 6 6 6 5 5 5 7 8 9 10 10 10 9 9 9 9 9 8 8 7 7 7 6 6 5 5 6 5 4 3 3 3
11 9 9 9 10 8 7 8 8 7 7 7 7 6 5 5 6 6 8 9 10 10 10 10 10 10 10 9 10 10 9 9 8 8 7 7 7 7 7 6 5 5 4
13 9 9 10 10 10 9 9 8 7 8 7 7 7 6 6 6 7 8 10 10 11 11 11 11 11 11 10 10 11 11 10 10 9 9 8 8 8 8 8 8 8 7
13 11 10 10 9 10 9 9 8 8 7 7 7 6 6 6 7 8 9 11 11 12 12 12 12 11 11 11 12 12 12 11 11 11 10 10 9 9 9 9 9 9 8
14 12 11 10 10 10 9 8 8 8 7 7 7 7 7 7 8 8 9 10 12 13 13 13 13 13 12 12 12 13 12 13 13 12 12 11 11 11 11 11 11 11 11
14 12 10 11 10 8 7 8 8 7 7 7 7 7 7 8 8 9 9 11 13 14 14 14 15 14 14 13 13 13 14 14 14 14 13 13 13 13 12 12 12 12 13
14 12 11 11 10 8 8 8 8 7 7 8 8 8 8 8 9 9 10 11 13 15 16 15 16 15 15 15 15 14 15 15 15 15 15 14 14 14 14 14 13 13 14
14 11 11 11 10 9 8 8 9 8 8 9 9 9 8 8 9 10 10 10 12 14 15 15 16 16 16 16 16 16 16 17 16 16 16 16 16 16 16 16 16 15 15
12 12 11 10 9 9 9 9 9 9 9 9 8 8 9 9 8 9 10 11 12 14 15 16 17 17 18 17 18 18 17 18 18 18 18 18 18 18 18 18 19 18 18
12 12 11 10 9 9 10 10 11 10 10 9 9 8 9 8 8 9 10 10 12 13 15 16 18 18 19 19 19 19 18 18 19 19 20 21 21 21 21 21 21 21 20
12 11 11 10 9 10 10 11 11 10 10 10 10 9 8 8 9 9 10 11 12 13 14 16 18 19 20 20 21 21 20 20 21 21 21 21 22 23 23 23 23 23 23
10 10 11 11 10 10 11 11 10 10 10 10 10 10 10 10 10 10 10 11 12 13 14 16 17 19 20 21 22 22 22 22 23 23 23 23 24 24 24 24 24 24 24
10 10 12 12 11 11 11 11 10 12 12 12 11 11 11 11 12 11 12 12 13 14 15 16 17 18 20 21 21 22 23 22 22 23 22 23 24 25 25 25 25 25 25
12 11 12 12 11 11 11 11 12 13 13 13 13 13 13 13 13 13 13 13 14 14 15 16 17 19 21 21 22 22 22 22 22 21 22 23 24 24 25 26 26 27 27
13 13 13 13 12 11 11 12 13 14 14 14 14 14 14 14 14 14 15 15 15 15 16 16 17 17 19 20 21 22 22 21 22 22 22 23 24 25 25 26 26 27 28
15 14 14 13 12 11 12 13 14 15 15 15 15 15 14 14 14 14 15 15 16 16 16 16 16 16 17 18 18 19 19 20 20 21 22 23 23 24 25 25 26 26 28
16 16 16 14 14 14 13 14 15 16 16 16 15 14 14 15 15 15 15 15 15 15 15 15 15 15 15 16 16 17 18 19 20 20 21 22 23 24 25 26 26 26 27
16 16 17 16 17 16 15 16 16 17 16 16 15 15 15 15 15 15 15 15 15 15 15 15 15 15 15 16 16 17 18 19 20 21 23 23 24 26 26 27 27 27 28
18 17 18 18 18 18 17 17 17 17 17 17 16 16 15 16 15 15 15 15 15 15 15 15 15 15 16 16 16 17 19 20 21 22 23 24 25 25 26 27 27 27 27
19 19 19 20 20 19 19 18 18 18 18 18 17 17 16 16 15 15 14 15 15 15 15 15 15 16 16 17 17 18 19 21 22 23 24 24 25 25 26 26 27 28 29
19 19 20 20 20 20 20 20 20 20 19 19 19 18 18 17 16 15 15 15 16 16 16 17 17 17 18 18 19 20 21 22 22 24 24 25 25 26 27 28 29 29 30
19 20 20 19 20 20 20 20 20 21 20 20 19 19 18 17 16 16 16 16 16 16 17 18 18 18 18 19 20 21 22 22 23 24 25 25 26 27 29 30 30 30 31
20 20 20 20 20 20 20 21 21 21 20 20 19 19 18 18 18 18 18 18 18 18 18 18 18 19 20 20 22 22 22 23 24 25 26 27 28 29 29 30 31 32 33
20 20 21 21 21 21 21 21 21 21 21 20 20 20 19 19 19 19 18 18 18 18 18 18 19 20 20 21 22 23 24 24 25 26 27 28 29 30 31 31 32 33 34
21 21 21 22 22 22 22 22 22 21 21 21 20 20 19 19 19 19 19 19 19 20 19 20 20 20 21 22 22 24 24 25 26 27 28 29 30 31 31 32 34 34 35
22 22 22 23 23 23 23 22 21 21 21 21 20 20 20 20 19 19 19 19 19 20 20 20 20 20 21 21 22 23 24 26 27 28 29 30 31 32 33 33 34 34 35

GEFSMW_500_meanwind_162.txt.gz
Wind_Speed
9 10 11 11 10 8 8 6 4 3 4 5 5 6 5 5 4 5 6 7 8 8 8 8 8 8 7 7 7 8 7 7 7 6 6 6 6 6 5 4 4 5 4
11 10 11 11 10 8 7 7 6 5 4 5 5 5 5 5 5 5 6 7 8 9 9 9 9 9 9 9 9 9 9 9 8 8 8 8 7 7 6 6 6 6 6
10 11 11 10 9 7 7 7 7 7 6 5 6 6 6 6 6 7 8 8 9 10 10 10 10 10 10 10 10 11 11 10 10 10 10 9 9 9 9 8 8 8 8
9 10 10 9 9 8 9 9 8 8 6 6 5 6 6 7 8 8 8 9 10 12 12 12 11 12 12 12 12 12 13 12 12 12 12 12 11 11 11 11 11 10 10
9 10 11 10 10 10 10 11 10 7 7 7 6 6 6 7 8 7 8 10 11 12 13 13 13 13 13 13 14 14 14 14 13 13 13 13 14 13 13 13 13 13 12
10 11 12 10 10 10 10 10 9 7 7 6 6 6 7 8 8 8 9 10 11 12 13 14 15 14 14 14 15 15 15 16 15 15 15 15 15 16 16 16 16 15 14
11 12 12 11 10 10 9 9 8 8 7 7 6 6 8 8 8 9 10 11 12 13 14 15 16 16 16 16 16 16 16 16 17 17 17 17 17 17 18 17 17 17 16
12 12 12 11 11 11 9 9 8 8 7 7 7 8 9 9 9 10 11 12 13 14 15 16 17 18 18 18 18 18 17 18 18 18 18 18 18 19 19 19 19 19 19
13 13 13 12 12 11 10 9 8 8 7 7 8 9 9 9 10 11 12 13 13 14 15 16 16 17 18 18 18 19 19 19 20 20 20 21 21 21 21 22 22 21 21
13 13 12 12 12 12 10 10 9 9 8 8 9 9 9 9 10 11 12 13 14 14 15 15 16 18 19 19 20 20 20 20 20 22 22 23 23 24 24 24 24 24 24
13 13 12 12 12 12 10 10 10 10 9 9 9 10 10 10 10 11 12 12 13 13 14 15 16 18 19 20 20 21 21 21 22 22 23 23 24 24 24 24 25 25 26
14 13 13 13 12 12 10 11 11 11 11 10 10 10 11 12 12 12 12 12 12 13 14 15 16 17 19 20 21 22 23 23 23 24 24 24 25 26 26 26 26 27 27
13 14 14 13 12 10 9 10 11 12 12 11 10 11 12 12 13 13 13 13 13 13 14 14 16 17 19 21 21 22 23 24 25 26 26 26 26 26 26 27 27 27 27
12 13 12 11 10 8 8 9 10 10 11 11 10 12 13 13 13 13 13 14 14 15 15 16 17 18 19 20 21 23 24 25 26 26 26 27 27 26 26 27 27 27 28
12 12 13 11 9 8 8 9 10 10 11 11 11 12 13 13 13 14 15 15 16 16 16 17 18 19 20 20 21 22 23 23 24 25 26 26 26 26 26 26 27 27 27
14 14 13 11 9 9 10 10 11 11 11 12 12 13 13 13 14 14 15 16 17 17 18 18 19 19 20 21 21 21 21 21 22 22 23 24 25 25 25 26 27 28 28
15 14 12 12 11 11 11 12 12 13 13 13 14 14 14 14 15 15 15 16 17 18 18 19 19 19 20 20 20 20 19 19 19 21 23 24 24 25 26 27 27 27 28
16 14 13 12 12 13 14 14 14 15 15 15 16 16 16 16 16 16 16 17 18 18 18 18 18 19 19 19 19 19 19 20 20 21 22 23 24 25 26 27 28 29 29
17 16 15 15 15 15 15 15 15 16 16 16 16 17 18 18 17 17 17 17 17 17 17 17 17 17 18 18 18 18 19 20 20 21 22 23 24 25 26 28 29 29 30
18 18 17 16 16 16 16 16 16 16 17 17 17 18 18 18 18 18 18 19 19 18 17 17 17 18 18 18 19 19 19 20 21 23 24 24 25 26 27 28 29 30 31
20 19 17 16 16 16 16 17 17 17 18 18 18 19 19 19 18 18 18 19 19 19 18 18 18 19 19 20 20 20 21 21 22 24 25 26 27 27 28 29 30 31 32
21 20 19 18 18 18 18 18 18 18 19 19 19 19 19 19 19 19 19 19 19 19 19 19 19 19 20 20 21 21 22 23 23 24 25 26 26 27 29 30 30 32 33
22 22 22 20 19 18 19 18 19 19 20 20 20 20 20 20 20 20 20 20 20 20 20 20 20 20 20 21 22 22 22 23 24 25 26 27 28 28 29 30 31 32 33
23 21 20 19 18 19 19 20 20 20 21 21 21 21 21 21 21 20 20 21 21 21 21 21 21 21 21 21 22 23 24 25 25 26 26 27 28 29 30 30 30 31 32
23 21 20 19 20 20 20 20 20 21 21 21 21 21 22 21 21 21 21 21 22 22 22 21 21 22 22 22 23 24 25 25 26 27 28 29 29 30 31 32 32 33 34
22 21 20 19 20 20 20 21 21 22 22 21 21 21 21 21 20 20 21 21 21 21 21 21 21 21 22 23 24 24 26 27 28 29 30 30 31 32 32 33 34 35 35

GEFSMW_500_meanwind_168.txt.gz
Wind_Speed
8 9 10 10 10 8 8 7 6 4 3 4 5 5 5 5 5 6 6 6 6 6 7 7 7 7 7 7 7 7 7 6 6 6 6 6 5 5 5 5 5 5 5
8 9 10 10 9 9 9 8 7 6 5 5 6 7 6 5 5 6 7 7 6 7 8 8 9 8 8 8 8 8 8 8 7 7 7 7 7 7 7 7 7 6 6
8 9 10 10 10 9 9 9 8 7 6 6 6 7 7 5 6 6 7 7 8 8 9 9 10 10 10 10 10 10 10 9 9 9 9 9 9 9 9 9 9 8 8
9 9 10 11 10 10 10 10 10 9 7 6 6 6 7 7 6 6 7 7 8 9 10 10 10 10 10 11 11 11 11 11 11 11 11 11 11 11 11 11 11 11 11
8 9 10 11 11 11 11 11 11 10 9 8 8 8 7 8 8 8 8 8 9 10 10 11 11 12 12 13 13 12 13 13 14 14 13 13 13 13 13 13 13 13 13
8 10 11 12 12 12 11 11 12 11 10 9 8 9 9 9 9 9 9 10 10 10 11 12 13 14 14 15 15 15 14 15 15 15 16 16 15 16 16 15 16 16 16
9 10 11 13 13 12 11 10 11 10 9 9 8 8 9 9 9 10 10 11 11 12 12 13 14 15 15 16 16 16 16 17 17 17 17 17 18 18 18 18 19 18 18
11 11 12 13 13 12 11 10 11 10 9 8 8 8 9 10 10 11 11 12 12 13 14 15 15 15 16 17 17 17 18 18 19 19 19 19 19 19 19 20 21 21 20
12 12 13 12 13 12 10 10 10 10 9 9 9 9 9 10 11 12 12 13 13 14 15 15 17 17 17 18 18 18 18 19 19 20 21 21 21 21 21 21 22 22 22
12 13 12 12 13 12 10 10 10 10 9 10 10 10 10 11 12 13 14 14 14 14 15 16 17 18 18 19 19 19 19 20 21 21 22 22 21 22 22 22 23 22 23
12 13 13 13 12 12 11 10 11 11 10 11 11 11 12 12 13 13 13 14 14 15 16 16 17 18 19 19 19 19 19 20 21 22 22 22 23 23 24 24 24 24 24
13 13 13 13 12 12 11 11 11 11 10 11 12 12 13 13 13 13 13 13 14 15 16 17 18 18 18 18 19 20 21 22 22 23 23 23 24 25 26 26 26 25 24
13 12 12 12 12 12 11 11 10 10 10 11 12 13 13 13 13 13 13 14 15 15 16 18 18 19 18 19 20 20 21 23 23 23 24 25 25 26 26 27 27 27 26
13 13 13 12 12 12 12 11 11 11 11 11 12 13 12 12 12 13 13 14 15 16 17 18 18 19 20 21 21 22 22 23 24 24 25 25 26 26 26 27 26 26 26
14 13 13 12 12 12 12 12 11 11 11 12 13 13 13 12 13 13 14 15 16 17 17 18 18 19 20 21 22 22 22 23 24 24 25 24 24 25 26 26 26 25 26
14 14 13 13 13 13 12 12 11 12 12 13 14 14 15 15 15 15 16 16 17 17 17 17 18 20 21 21 22 23 23 24 24 24 23 24 24 24 24 25 25 25 25
15 15 15 15 14 14 14 14 13 14 14 15 15 15 16 16 16 17 17 18 18 18 18 19 20 21 21 22 23 23 24 24 24 24 24 24 23 22 22 23 24 26 26
16 16 16 16 16 16 16 16 16 16 16 16 17 17 16 17 18 18 18 18 18 19 19 20 21 21 21 21 22 22 23 23 24 24 24 23 22 22 23 25 26 27 28
17 17 17 17 17 17 16 16 17 17 17 17 17 17 18 18 18 18 18 18 19 19 20 21 20 21 21 21 21 22 21 22 22 22 23 23 23 23 23 24 26 27 28
18 18 18 18 17 17 17 17 17 18 18 18 18 19 19 19 19 19 19 20 20 20 21 21 21 21 20 20 20 21 20 20 21 21 22 22 23 23 24 25 26 27 28
20 20 19 18 18 18 18 18 19 19 19 20 20 20 20 21 21 21 21 22 22 22 22 22 21 21 21 21 20 21 20 20 21 22 22 22 22 23 24 25 26 27 28
21 20 20 20 20 20 20 20 20 21 21 20 21 21 22 22 22 22 22 23 23 23 22 22 22 21 21 22 22 21 21 22 22 23 23 24 24 25 25 26 27 28 29
22 21 22 22 22 21 21 21 22 22 22 21 22 22 23 23 23 23 23 23 23 23 22 22 22 22 22 22 22 22 23 23 24 24 24 25 26 26 27 28 28 29 31
22 22 22 23 23 23 22 22 23 23 23 22 23 23 23 23 23 24 23 23 22 22 22 22 22 22 22 22 22 22 23 23 24 25 26 27 27 28 28 29 30 31 32
24 24 23 23 24 24 23 23 23 23 22 22 23 23 23 24 24 23 23 23 22 22 22 22 21 21 22 22 23 23 23 24 24 26 27 27 28 29 29 30 31 31 32
25 25 25 25 24 24 24 23 23 22 22 23 23 23 23 23 24 23 23 22 22 22 21 21 21 21 22 22 23 23 24 24 25 26 27 28 29 29 30 30 30 31 32

GEFSMW_500_meanwind_174.txt.gz
Wind_Speed
11 12 12 13 13 12 12 11 10 10 9 8 7 6 6 6 6 6 6 5 5 5 5 5 5 5 6 6 6 6 6 6 6 6 6 6 6 6 6 6 5 5 5
11 12 12 13 14 14 13 12 11 10 10 10 8 7 7 7 6 6 6 7 6 7 7 6 7 7 7 7 7 8 8 8 8 8 8 8 8 8 8 8 7 7 7
11 11 12 13 13 13 13 12 12 11 10 10 10 9 9 8 8 8 7 8 8 8 7 7 7 8 8 9 10 10 10 10 10 10 10 11 11 10 10 10 10 10 10
11 11 12 13 14 14 14 13 13 12 11 11 11 10 10 9 9 7 7 7 8 8 8 8 9 9 10 10 10 11 11 11 12 12 13 13 13 13 13 13 13 13 12
11 12 13 14 14 14 14 13 13 12 12 12 12 10 9 9 8 7 7 7 7 8 8 8 9 10 10 11 12 12 12 12 13 13 14 14 15 15 15 15 15 15 15
12 12 13 14 15 15 15 14 14 13 13 12 11 10 9 8 8 8 8 9 9 9 9 10 10 11 11 12 12 13 13 13 14 15 16 16 16 16 17 17 17 17 18
12 12 13 14 15 15 15 15 14 13 13 12 11 10 9 9 9 9 9 9 9 10 10 11 12 12 12 12 13 14 15 15 15 16 17 17 17 18 18 19 19 19 19
12 12 14 14 15 15 15 15 14 13 13 12 11 10 10 10 9 10 10 10 11 12 12 13 13 14 14 14 15 16 17 17 17 17 17 17 18 19 19 20 21 20 21
12 13 14 15 16 16 16 15 15 14 14 13 12 11 10 10 10 10 11 12 12 13 14 14 14 14 15 15 16 16 17 18 18 18 18 18 19 20 21 22 22 23 22
12 13 14 15 15 14 16 16 15 14 14 13 11 11 11 11 12 12 12 12 13 13 14 14 14 15 15 16 16 17 17 18 19 19 20 20 20 20 21 22 22 22 22
14 13 14 14 15 16 16 16 15 14 14 13 13 12 12 13 13 13 13 13 13 13 13 14 15 16 16 17 17 18 18 19 20 20 20 21 21 21 21 22 22 22 22
13 14 15 15 15 16 16 16 15 15 14 14 14 14 14 14 14 14 14 14 14 14 14 15 16 17 17 18 18 19 19 20 20 21 21 22 22 22 22 23 24 24 24
15 15 15 15 15 16 16 16 16 15 15 15 15 15 15 14 14 14 14 14 14 15 16 16 17 17 18 18 19 19 20 20 21 22 22 22 23 23 23 23 24 24 25
16 15 15 15 15 16 16 16 16 16 15 15 16 16 15 15 15 15 15 15 16 16 17 17 18 18 18 18 19 20 21 22 22 23 23 23 24 24 24 25 25 25 26
17 16 15 14 15 16 17 17 17 16 16 16 17 17 16 16 16 16 16 16 16 16 17 18 19 19 19 19 20 20 22 23 24 24 24 24 25 24 24 25 25 26 27
17 15 14 15 16 16 17 18 17 17 17 17 18 17 16 16 16 16 17 17 17 17 18 19 19 20 20 20 21 22 23 23 23 23 24 24 24 24 25 26 26 26 27
16 16 16 16 17 17 17 17 17 17 17 18 17 17 17 17 17 18 18 18 19 19 19 19 19 20 21 21 22 23 23 23 23 23 24 24 25 25 26 26 26 27 27
18 18 18 18 18 18 18 18 17 17 18 18 18 18 19 19 19 19 19 19 19 19 20 20 21 21 22 22 23 23 24 24 23 23 23 24 24 24 25 26 26 26 26
20 19 19 19 19 19 19 19 18 18 18 19 19 19 20 20 20 20 20 20 20 20 21 21 22 23 23 23 23 23 23 23 23 23 23 23 23 24 24 25 25 25 26
21 21 20 20 20 20 20 20 19 20 20 20 20 21 21 21 21 21 21 21 21 22 22 23 23 23 24 24 24 23 23 23 22 23 23 23 22 23 24 24 25 25 25
22 22 22 21 21 21 21 21 21 21 22 21 21 22 22 21 21 22 22 23 22 23 23 23 24 24 24 24 24 23 23 23 23 23 24 24 24 24 24 25 25 25 26
23 23 23 23 23 22 22 22 23 22 22 22 22 22 22 22 22 22 23 23 23 23 24 24 24 24 25 24 24 24 23 23 24 25 24 24 24 24 24 25 26 27 28
25 25 24 24 24 23 23 23 23 23 23 24 24 23 23 23 23 23 23 24 24 24 24 24 24 25 25 25 24 24 24 24 24 25 25 25 25 26 27 27 28 29 29
26 26 25 25 25 25 25 24 24 24 24 25 25 25 24 24 24 23 24 24 24 24 25 25 25 25 25 25 24 24 24 24 24 24 25 25 26 27 28 29 30 30 31
27 27 26 26 26 26 26 26 25 25 25 25 26 25 24 24 24 24 24 24 24 25 25 25 26 26 25 25 25 25 25 24 24 25 26 26 27 28 29 29 30 31 31
28 28 28 27 27 27 27 27 26 26 27 27 27 26 25 25 24 24 24 24 25 25 26 26 26 25 25 25 25 25 26 26 26 27 27 28 29 29 29 29 29 30 31

GEFSMW_500_meanwind_180.txt.gz
Wind_Speed
9 10 10 10 11 11 10 9 9 8 7 7 6 4 3 3 3 3 4 3 3 3 3 4 4 4 4 4 4 5 5 6 6 7 7 7 7 8 8 8 8 8 8
8 9 9 10 11 10 10 10 9 8 7 7 7 5 4 4 4 5 5 4 4 4 4 4 4 5 5 6 6 6 7 8 8 9 9 9 10 10 10 11 10 10 10
8 9 9 9 10 11 11 10 9 8 7 7 7 6 5 5 5 5 6 5 5 5 5 5 6 7 7 7 7 8 8 9 9 10 10 11 12 12 12 13 13 12 12
9 9 9 10 11 11 11 9 9 9 8 7 8 7 7 6 5 4 5 5 4 4 5 6 6 7 7 8 9 9 10 11 11 12 12 13 13 14 14 15 15 14 15
9 9 9 10 11 11 10 10 10 10 9 8 8 8 7 6 5 4 4 4 3 4 4 5 5 6 6 8 9 10 11 11 12 13 14 14 15 15 14 14 15 16 17
10 9 9 10 10 10 10 10 10 10 9 9 8 8 8 7 5 5 4 5 4 4 4 5 6 6 8 9 10 10 11 12 13 14 15 15 15 16 16 15 16 16 18
10 10 10 10 10 10 10 10 10 10 10 9 9 8 7 7 6 5 5 5 5 5 5 6 7 8 9 10 11 12 12 13 14 14 15 15 15 16 17 17 17 18 19
9 10 9 10 10 10 11 11 10 10 10 9 9 8 7 6 6 5 6 6 6 6 6 7 9 9 10 11 11 12 13 14 14 15 15 16 16 17 17 18 19 19 19
9 10 10 10 10 10 10 11 11 11 10 9 8 8 7 7 7 6 6 6 7 7 7 8 9 10 10 11 11 12 13 14 15 16 16 17 18 18 18 19 19 19 20
9 10 10 10 10 11 11 11 11 10 10 9 9 8 8 8 8 7 8 7 8 8 8 8 9 10 11 12 12 13 13 14 15 16 17 18 18 18 19 19 19 19 20
10 11 10 11 10 10 11 11 11 11 11 10 9 9 8 9 8 8 8 8 8 8 8 9 10 11 11 12 13 14 15 16 16 17 18 19 20 20 20 20 20 21 21
10 10 10 10 10 10 10 11 11 11 11 10 10 10 9 9 8 8 9 9 9 8 9 10 11 12 12 13 14 15 16 17 18 18 19 19 20 20 20 21 21 22 22
10 11 11 11 10 10 10 11 12 11 10 10 11 11 11 10 10 9 10 9 10 10 10 10 11 12 13 14 14 15 16 17 18 19 20 19 20 19 20 21 21 22 23
11 13 13 13 12 11 11 11 12 11 10 11 11 12 12 11 11 10 10 10 10 10 11 11 12 13 14 15 15 15 16 17 18 19 18 19 20 20 20 21 21 22 23
13 14 14 14 13 12 12 11 12 12 11 11 12 12 12 11 11 11 11 10 11 11 12 12 12 13 14 15 15 16 17 18 18 19 19 20 20 21 22 22 22 23 23
15 15 15 15 13 12 12 12 12 12 13 13 12 13 12 12 12 12 12 12 12 12 13 13 13 14 15 15 16 17 18 19 19 20 20 20 21 22 23 23 23 23 23
18 17 16 15 13 12 12 12 12 13 13 13 13 13 13 13 13 13 13 13 13 14 13 14 14 15 15 17 17 18 18 19 19 20 20 21 21 22 22 23 23 23 23
19 18 17 15 14 13 12 12 12 14 14 14 14 14 14 14 14 14 14 14 14 14 14 15 16 16 17 17 17 18 18 18 19 20 20 20 20 21 21 21 22 23 23
20 19 18 17 15 14 13 13 14 15 15 15 16 15 15 15 14 15 15 15 15 15 15 16 17 17 18 17 17 18 19 19 20 20 20 20 21 21 21 21 22 23 23
21 20 17 17 16 15 15 15 16 17 17 16 16 16 16 16 16 16 16 16 16 16 17 17 17 18 18 18 18 18 19 19 20 20 20 21 21 21 21 22 22 23 23
22 21 20 18 17 17 16 16 17 17 17 17 18 18 17 16 17 17 17 17 18 18 18 18 18 18 19 18 18 19 20 20 21 21 21 21 22 22 22 22 23 23 24
22 22 21 20 19 18 18 18 18 19 18 19 19 18 18 18 18 18 18 18 19 19 19 19 19 19 19 19 20 20 21 21 21 21 21 21 22 22 23 23 24 24 25
24 23 22 22 21 20 21 20 20 20 20 20 20 20 20 20 20 19 19 19 20 20 20 19 19 19 19 20 21 21 22 22 22 22 22 22 23 24 24 24 25 26 26
23 23 23 23 22 22 22 21 21 21 21 21 21 21 21 21 21 21 21 20 20 20 20 20 20 20 21 21 22 22 23 23 23 23 23 23 24 25 25 25 26 27 28
24 25 24 24 23 23 23 22 22 21 21 21 22 22 22 22 22 22 21 21 21 22 22 22 22 22 22 23 23 23 23 23 23 23 24 24 25 25 26 26 27 28 29
25 24 24 24 24 24 23 23 23 22 22 22 22 22 22 23 23 22 22 22 23 23 23 24 24 23 23 23 24 24 24 24 24 24 25 25 25 26 27 28 28 29 29

GEFSMW_500_meanwind_186.txt.gz
Wind_Speed
10 10 10 10 10 10 9 8 7 6 5 4 4 3 3 3 3 4 4 4 4 4 4 5 5 5 6 5 5 5 6 6 7 8 8 9 9 10 10 10 10 10 10
10 10 10 11 10 10 9 8 7 6 5 5 4 4 3 3 3 4 4 4 5 5 6 5 5 5 6 6 6 6 7 8 9 9 10 11 11 11 11 12 13 13 13
10 10 11 11 11 10 9 9 8 7 6 5 5 5 4 4 4 4 5 5 6 6 5 5 5 6 6 7 7 8 9 9 10 11 11 12 13 13 14 14 14 15 15
10 10 11 11 10 9 9 9 8 8 7 6 6 5 5 5 4 4 4 5 5 4 4 5 6 7 7 8 9 10 10 11 12 12 13 14 14 15 16 16 17 17 17
8 9 10 10 10 10 9 8 8 8 8 7 6 6 5 5 5 5 5 4 4 4 5 5 6 7 8 9 10 10 11 12 13 13 14 14 15 15 16 17 18 18 19
8 8 9 9 10 11 9 8 8 8 7 7 6 6 6 6 5 6 5 5 5 5 6 6 7 7 8 9 10 11 12 13 14 14 15 15 16 17 17 18 18 19 20
8 9 9 10 11 11 10 9 8 8 7 7 7 7 7 6 5 5 6 6 6 6 7 7 8 9 9 10 11 12 13 14 15 16 16 17 17 17 18 18 19 20 21
8 9 9 10 11 10 10 9 9 8 8 7 7 8 8 7 7 6 6 7 7 7 8 8 9 10 10 10 11 13 14 15 15 16 17 18 18 19 19 20 20 20 20
9 9 9 11 10 10 9 9 9 8 8 8 8 8 8 8 7 8 7 6 7 8 8 9 9 9 10 11 12 13 13 14 15 15 16 18 19 19 19 20 21 21 21
9 9 10 10 10 11 10 10 10 9 8 8 8 8 8 8 7 7 7 7 7 8 8 9 9 10 11 12 12 13 15 15 16 17 17 18 19 19 20 21 21 21 22
9 9 10 10 10 10 10 10 11 10 9 8 9 8 8 8 8 8 8 8 8 9 9 10 10 11 12 13 14 15 15 16 17 17 18 18 19 19 20 21 21 22 22
9 10 11 11 11 11 10 11 11 11 10 9 9 9 9 9 9 8 8 9 9 10 10 10 11 12 13 14 15 15 16 17 17 18 18 19 19 20 20 21 21 22 23
9 11 12 12 11 11 11 10 11 11 10 9 9 9 9 9 9 8 8 9 10 11 11 12 12 12 13 14 15 15 16 17 17 18 19 19 19 20 21 22 22 23 23
12 12 12 11 11 11 11 10 10 10 10 10 11 11 10 9 9 9 9 10 10 11 11 12 12 12 13 14 15 15 16 18 19 19 20 20 20 21 21 22 23 23 23
13 12 13 13 12 12 11 11 10 11 11 11 11 12 11 10 9 9 10 10 11 11 11 12 12 13 13 14 16 16 17 18 19 20 20 20 20 21 21 22 23 23 23
14 15 15 14 13 12 12 12 11 11 12 12 12 12 11 11 11 11 11 12 12 12 12 12 13 14 15 16 17 18 18 19 19 19 20 20 20 21 22 22 23 23 23
15 16 15 15 14 13 11 11 11 11 12 13 13 13 12 12 12 12 12 13 13 14 14 14 14 15 16 17 18 18 19 19 19 20 20 21 21 22 22 22 23 23 23
15 16 14 14 14 14 12 12 12 12 13 14 13 13 13 14 14 13 14 14 14 14 14 15 15 15 16 17 17 19 20 20 20 20 21 22 22 22 23 23 24 24 24
16 16 16 16 16 15 14 13 12 13 14 13 14 14 15 15 14 14 15 15 15 15 16 16 16 16 17 17 18 19 19 20 21 21 22 22 22 23 23 24 24 24 25
17 18 17 17 16 15 14 15 15 15 15 15 15 16 16 15 15 15 15 15 16 16 17 17 17 18 18 18 19 20 20 20 21 21 22 23 23 24 24 24 25 25 25
19 19 18 17 16 16 15 15 15 15 16 17 17 16 16 16 16 16 16 16 17 17 17 18 18 19 19 20 20 21 21 21 22 22 22 23 24 24 24 25 25 25 26
20 20 19 18 18 18 18 18 16 17 17 18 18 18 17 17 17 17 17 18 18 18 19 19 19 19 20 21 21 22 22 22 23 23 24 24 24 25 25 25 26 26 27
22 21 20 20 20 20 20 19 19 19 19 19 18 18 18 18 18 19 19 19 19 19 19 20 20 20 21 22 22 23 23 24 24 25 25 25 25 26 26 26 27 27 27
24 23 22 22 21 22 22 21 21 20 20 19 19 19 19 19 19 20 20 20 20 20 20 20 21 22 22 23 24 24 24 25 26 25 25 26 26 27 27 27 27 27 28
25 24 24 24 24 23 24 23 22 21 21 20 20 20 20 20 20 20 21 21 20 21 21 22 22 23 23 24 25 25 25 26 26 27 27 27 27 27 28 28 28 29 29
25 25 25 24 24 24 24 24 23 22 22 21 21 21 21 21 21 21 22 21 22 22 23 23 23 24 24 25 26 26 26 27 28 28 28 28 28 28 28 28 29 29 29

GEFSMW_500_meanwind_192.txt.gz
Wind_Speed
10 10 10 10 10 10 9 8 7 6 5 4 4 4 3 2 2 2 1 1 2 3 2 2 3 4 5 5 5 5 5 6 6 6 7 8 8 9 9 10 10 10 11
10 11 11 11 11 10 9 8 7 6 6 5 5 4 4 4 3 3 3 2 2 3 3 3 4 5 5 6 6 6 7 7 7 8 8 9 10 11 11 11 12 13 13
10 11 11 11 11 10 9 8 8 7 7 6 6 5 5 5 5 4 4 4 4 3 4 4 4 5 6 6 7 8 8 8 8 9 10 10 12 13 13 13 14 14 15
10 11 11 12 12 11 10 9 8 8 7 7 7 6 5 6 6 5 5 5 5 5 5 5 5 6 7 7 8 8 9 9 9 10 11 11 12 13 14 15 15 15 16
10 11 11 12 12 12 11 10 9 8 8 8 7 7 7 6 6 6 5 5 5 6 6 6 6 6 7 8 9 9 9 10 11 12 12 13 13 14 15 16 16 17 17
10 10 10 11 11 12 12 11 10 9 8 7 7 7 7 7 7 6 6 6 6 7 7 7 7 7 8 8 9 9 10 11 12 13 13 13 14 15 16 17 17 18 18
9 10 9 10 11 12 12 11 11 10 8 8 8 7 8 8 7 7 7 7 7 8 7 8 8 8 9 9 10 10 11 11 12 13 14 15 15 16 16 17 17 18 18
9 9 9 10 11 12 13 13 12 10 9 9 8 8 8 8 8 7 7 7 8 9 8 9 9 9 9 10 11 11 11 12 13 14 15 15 15 16 16 17 18 18 17
9 9 9 10 11 12 13 13 11 10 10 9 9 9 9 8 8 8 7 8 8 9 9 9 9 10 10 11 11 11 12 13 14 14 15 15 16 16 17 17 18 17 17
9 10 10 11 11 13 13 13 11 10 10 10 10 10 10 9 9 9 8 9 9 9 9 9 9 10 11 12 12 12 13 14 15 15 16 16 17 17 17 17 18 18 18
10 11 11 11 12 13 13 13 12 11 11 11 10 11 11 10 10 9 9 9 9 9 9 9 10 11 11 12 12 13 14 14 15 15 16 17 17 16 17 17 18 19 19
10 11 11 11 12 13 13 13 12 12 12 11 11 11 11 10 10 9 9 9 10 10 10 10 10 11 12 12 13 13 14 15 15 16 16 17 17 17 18 18 19 19 20
11 12 11 12 12 12 12 12 12 12 12 12 11 11 11 11 11 11 10 10 10 10 10 11 12 12 12 12 13 14 15 15 16 16 16 17 17 18 19 19 19 19 20
13 13 13 13 13 13 13 13 13 13 13 13 12 12 12 12 12 12 12 12 11 11 11 12 12 12 12 13 14 14 14 15 16 16 17 18 18 18 19 19 20 20 21
14 14 14 14 14 14 14 13 13 13 14 13 12 12 12 13 13 13 13 13 12 12 13 13 13 13 13 13 14 14 15 16 17 18 18 18 18 18 19 20 20 21 22
14 14 14 14 14 15 14 14 15 14 14 13 13 13 13 14 14 14 14 13 13 13 13 13 13 13 14 14 14 15 16 17 18 18 19 19 19 20 20 20 21 21 22
14 14 14 15 15 15 15 15 16 16 15 14 14 15 15 15 15 15 16 15 14 14 14 14 14 14 15 16 16 16 17 18 18 18 19 19 20 20 21 21 21 22 22
16 16 16 16 16 16 16 17 17 17 16 15 15 16 16 16 16 16 16 14 15 15 15 15 15 16 16 17 17 18 18 19 19 19 20 21 21 22 22 22 22 23 23
17 17 17 18 18 18 18 18 18 16 16 16 16 17 17 17 17 17 15 15 15 15 16 16 16 16 17 17 18 19 19 19 20 20 21 21 22 22 22 22 23 23 23
18 18 18 19 19 19 18 18 17 16 16 17 17 18 18 18 18 16 16 16 16 16 16 17 17 18 18 18 19 19 19 20 20 20 21 22 22 23 23 23 24 24 24
20 19 19 20 19 18 18 18 18 18 18 18 18 18 18 18 18 17 17 17 17 17 18 18 19 19 19 19 19 19 19 20 21 21 22 22 23 23 24 24 24 24 24
22 21 21 21 21 20 19 18 18 18 19 19 19 19 19 19 19 19 18 18 18 18 19 19 19 19 20 20 20 20 20 21 22 23 23 24 24 24 24 24 24 24 24
23 23 22 22 21 20 20 19 19 20 20 20 20 21 21 21 21 20 20 20 19 19 19 20 20 20 21 21 21 22 22 23 23 24 25 25 25 24 24 24 25 25 26
25 24 24 23 22 22 21 21 21 22 22 22 22 22 22 22 21 21 21 21 20 20 21 21 21 22 22 22 23 23 23 24 24 25 26 26 26 26 25 25 25 26 27
26 25 26 25 24 24 24 23 24 24 23 23 23 23 23 23 22 21 22 22 21 22 22 22 22 23 23 24 24 24 25 25 26 27 27 27 26 26 26 26 26 26 27
26 26 26 25 25 25 25 25 25 25 24 23 24 24 24 23 23 23 23 23 23 23 23 23 24 24 24 25 25 26 26 26 27 28 28 27 27 27 27 27 27 27 27

GEFSMW_500_meanwind_198.txt.gz
Wind_Speed
13 14 14 14 15 15 13 12 11 9 8 7 7 6 6 6 6 5 5 5 4 3 3 3 2 3 3 4 5 6 6 6 6 6 7 8 9 8 8 8 8 9 10
14 14 14 15 15 15 14 12 12 10 9 8 7 6 6 7 6 6 4 4 4 4 4 4 4 5 5 6 7 7 8 8 8 8 8 9 9 9 9 9 9 9 10
13 13 14 14 15 15 15 13 12 11 9 8 7 7 7 7 7 6 5 4 4 4 5 5 5 6 6 7 7 8 8 9 9 9 10 10 10 10 10 10 10 10 11
12 13 13 13 14 15 15 14 12 12 12 10 9 8 7 7 7 6 5 5 5 5 6 6 5 6 7 7 8 8 9 9 10 10 10 11 11 11 11 12 12 12 13
12 12 13 13 14 14 15 15 14 13 12 11 10 9 8 8 7 7 6 5 6 6 6 6 6 7 7 8 8 9 9 10 11 11 11 11 11 11 11 12 13 14 15
11 12 12 13 14 14 14 15 14 14 13 11 11 11 10 9 8 7 6 6 6 6 7 7 7 8 8 8 9 9 10 11 11 11 11 11 11 12 13 13 14 15 15
11 11 12 12 13 14 14 14 14 13 12 12 11 11 11 10 9 8 7 7 7 7 8 8 8 9 9 9 9 9 10 10 11 11 12 13 13 13 14 14 15 15 16
11 11 12 12 13 14 14 14 14 13 13 12 11 11 11 11 10 9 8 8 8 8 8 9 9 10 10 10 10 10 11 11 12 12 13 14 14 14 14 15 15 16 16
10 11 12 13 13 14 14 14 14 13 13 13 13 12 12 11 11 10 9 9 9 9 9 10 10 10 10 11 10 11 11 12 12 12 13 14 14 15 15 16 16 16 16
10 11 11 13 13 13 14 14 14 14 14 14 14 13 13 12 12 11 10 10 10 10 11 10 11 11 10 10 11 12 12 12 12 13 14 15 16 16 17 16 16 16 16
12 11 12 13 13 13 13 14 14 15 15 15 14 14 13 13 13 12 11 11 11 11 11 11 11 11 11 11 12 12 13 13 14 15 15 16 17 17 17 17 17 17 17
13 13 13 13 12 13 13 14 15 15 15 15 15 15 14 14 13 12 12 12 12 12 12 11 12 12 12 12 12 12 13 14 14 15 16 17 17 17 17 17 17 17 18
13 13 13 13 12 13 14 14 15 15 15 15 15 15 15 14 14 13 13 13 12 12 12 12 12 13 13 13 13 14 14 15 15 16 16 16 17 17 17 17 17 18 19
14 13 13 13 13 14 14 14 14 15 16 16 16 16 16 16 15 15 14 14 13 13 13 13 13 14 14 14 15 15 15 16 16 16 16 17 17 17 18 18 19 19 20
14 14 14 14 14 15 15 15 15 16 16 16 17 17 18 17 16 16 15 15 15 15 15 14 14 14 14 14 15 15 15 16 16 17 17 18 18 18 19 19 20 20 21
15 15 15 15 15 15 16 16 16 17 17 17 18 19 19 19 17 17 17 16 15 15 16 15 15 15 15 15 15 16 16 16 17 18 18 19 19 20 20 20 20 21 22
16 16 16 16 16 16 17 17 18 18 18 18 19 20 20 19 18 18 18 18 16 16 16 17 16 16 17 17 16 17 17 17 18 18 19 20 20 20 20 21 21 22 22
18 18 18 17 17 18 18 18 19 19 19 19 20 20 20 19 19 19 19 18 17 17 18 18 17 17 18 18 18 18 18 19 19 20 21 21 21 21 21 22 22 23 23
21 20 19 19 18 19 19 19 19 20 20 21 21 22 21 20 19 19 20 19 18 18 18 18 18 18 18 18 19 19 19 19 20 20 21 21 21 22 22 23 23 24 24
21 21 21 20 20 20 20 20 20 21 21 22 22 22 21 20 20 20 20 20 20 20 19 19 19 19 19 19 19 20 20 20 20 21 22 22 22 23 23 24 24 24 24
22 22 23 22 21 21 21 22 22 22 23 23 23 22 21 21 20 20 20 21 21 21 20 20 20 20 20 20 20 21 21 21 21 22 23 23 23 24 24 25 25 25 25
23 23 23 23 23 23 23 23 24 24 24 24 23 22 22 21 21 21 21 21 22 22 21 21 20 20 21 21 22 22 22 23 23 24 24 24 25 25 25 25 25 25 25
25 25 25 25 24 24 25 25 24 24 24 23 23 22 22 22 22 22 22 22 22 22 22 21 21 21 22 22 23 23 24 24 24 25 25 25 26 26 26 26 26 26 26
26 26 26 26 26 26 25 25 25 24 24 24 24 23 23 24 24 23 23 22 22 23 22 22 23 23 23 23 24 25 25 25 25 26 26 26 26 27 27 27 27 27 28
27 27 27 27 26 26 26 26 26 25 25 25 25 25 25 25 25 25 24 24 24 24 24 23 23 24 24 24 25 26 26 26 26 27 27 28 28 27 27 28 28 29 29
28 28 28 28 28 27 27 27 27 27 26 26 26 26 27 27 26 26 26 26 26 26 26 25 25 25 26 26 26 27 27 28 28 28 28 29 29 29 28 29 29 29 30

GEFSMW_500_meanwind_204.txt.gz
Wind_Speed
13 14 14 15 15 14 13 12 11 10 10 8 7 7 6 6 5 4 3 2 2 1 1 0 1 2 2 2 3 4 5 5 6 6 7 7 7 7 7 7 8 9 9
13 13 13 14 14 14 14 13 12 11 10 9 7 6 6 5 5 4 3 2 1 0 1 1 2 2 3 3 4 5 6 7 7 7 8 8 8 8 8 8 9 9 9
13 13 13 13 14 14 13 12 12 11 11 10 8 7 6 5 4 4 3 2 1 1 1 2 2 3 4 4 5 5 6 7 7 8 8 9 9 9 9 10 10 10 10
12 13 13 13 13 13 13 12 12 12 11 10 9 8 6 5 5 4 3 2 2 2 2 3 3 4 4 5 6 6 7 7 8 8 9 9 10 10 11 11 11 11 11
11 11 12 12 12 12 12 12 12 12 11 10 10 9 7 6 5 5 4 3 3 3 4 4 4 5 6 6 7 7 8 8 9 9 10 10 10 11 12 12 12 11 12
10 10 11 12 12 12 12 12 12 12 11 10 9 10 8 6 5 4 4 4 4 4 5 5 5 6 7 7 8 8 9 9 10 10 11 11 11 11 11 12 12 12 13
9 9 10 11 11 11 11 12 12 12 12 11 10 9 9 7 6 5 5 5 5 5 5 5 6 7 7 8 8 8 8 8 9 9 10 11 11 12 12 12 12 13 13
9 8 9 10 10 10 11 11 12 12 12 11 10 10 9 8 7 5 5 5 5 5 5 6 6 7 7 7 8 8 8 8 9 9 10 11 12 12 12 12 13 13 13
9 9 8 9 9 9 10 11 11 12 11 12 11 10 10 9 8 7 6 6 6 6 6 6 6 7 8 9 9 9 9 9 10 10 11 12 12 12 12 13 13 14 14
8 8 8 8 7 8 9 10 11 11 12 12 11 11 12 11 9 8 7 7 7 7 7 7 7 8 9 10 10 9 10 10 11 11 12 12 12 12 13 13 14 14 15
9 9 9 9 8 8 9 10 10 11 12 12 12 12 12 12 11 10 9 8 7 7 7 7 8 8 9 9 9 9 10 11 11 12 12 12 12 13 13 13 14 15 15
10 10 10 10 9 9 9 10 11 11 11 12 12 12 13 13 12 11 10 9 9 9 8 8 8 8 9 9 9 9 10 11 11 12 12 12 12 13 13 14 14 15 15
12 11 11 11 10 10 10 11 12 12 11 11 12 13 13 13 14 13 12 11 10 9 9 9 9 9 9 9 10 10 11 11 12 13 13 13 13 14 14 14 15 15 16
14 13 12 12 11 11 12 11 12 13 12 12 13 13 13 14 14 14 13 12 11 11 10 10 9 9 10 10 11 11 12 12 12 13 13 14 14 14 14 15 16 16 17
15 14 13 13 13 12 12 12 13 13 12 12 14 14 14 14 14 14 13 12 11 11 11 10 10 10 11 11 12 12 12 12 13 13 14 14 14 15 15 16 16 17 17
16 15 14 13 14 12 13 13 13 13 13 14 14 15 15 15 15 15 14 13 12 11 11 11 12 12 12 12 12 13 13 13 13 14 14 15 15 16 16 17 17 17 18
17 17 16 15 14 14 14 14 14 14 14 15 15 16 15 16 15 16 16 14 13 12 12 12 12 13 13 13 13 13 14 14 14 15 15 16 16 16 16 17 17 18 19
20 19 18 18 16 15 15 15 15 15 15 15 16 16 17 17 16 16 15 14 13 13 13 13 13 14 13 14 14 14 15 14 14 15 15 16 16 17 18 18 18 18 19
23 22 21 20 18 16 16 16 16 15 15 16 17 17 17 17 17 16 15 14 13 14 15 15 15 15 15 15 15 15 15 15 15 16 16 17 17 18 18 19 19 19 20
26 24 23 22 21 18 18 18 18 17 17 17 17 17 18 18 17 16 15 15 15 15 15 16 16 16 16 16 16 16 16 16 16 17 17 18 18 19 19 19 20 20 20
26 25 25 24 23 21 21 19 19 19 19 19 18 17 18 17 17 17 16 16 16 16 16 16 16 16 17 17 17 17 17 17 17 17 18 18 19 19 19 20 20 21 21
26 25 25 25 24 23 20 19 20 20 20 20 19 18 18 18 18 17 17 17 16 17 17 17 17 17 17 18 18 18 18 18 18 18 19 20 20 20 20 21 21 22 23
28 27 26 26 25 23 21 21 21 21 21 21 20 19 19 19 18 18 18 18 18 18 18 18 18 19 19 19 19 19 19 19 19 19 19 20 20 21 22 22 23 23 24
30 30 29 28 25 23 23 22 22 22 21 21 21 20 20 19 19 19 19 20 20 19 20 20 20 20 20 20 20 20 20 20 20 21 21 21 21 22 23 23 24 24 24
31 30 29 27 26 25 24 24 23 23 22 22 22 21 21 21 21 21 21 22 21 21 21 21 22 22 21 21 21 21 21 21 21 22 22 23 23 24 24 25 25 25 25
32 30 29 28 27 26 25 24 24 24 24 24 23 23 22 23 23 23 22 22 23 23 22 23 23 23 23 22 21 21 22 22 23 23 23 24 25 25 25 26 26 26 26

GEFSMW_500_meanwind_210.txt.gz
Wind_Speed
14 14 14 13 13 12 11 11 10 10 9 8 7 6 5 4 3 3 2 2 1 1 1 1 2 3 4 4 5 5 6 6 6 7 8 8 8 9 9 9 10 10 10
13 14 14 13 13 13 12 11 11 11 10 8 7 6 5 4 4 3 3 2 2 2 2 3 3 4 4 5 5 6 6 7 8 9 9 9 9 10 11 11 11 12 12
12 13 13 13 13 13 13 12 12 12 11 10 8 7 6 5 4 4 3 3 3 3 3 4 4 5 5 6 6 7 8 8 8 9 10 10 11 11 11 12 13 13 13
11 11 11 12 12 13 13 13 12 12 11 11 9 8 7 5 5 5 4 4 4 4 4 5 5 6 6 7 7 8 9 9 10 11 11 12 12 12 13 13 13 14 15
10 10 10 11 11 12 12 13 12 12 12 11 10 10 9 7 6 6 5 5 5 5 6 6 6 6 7 7 8 8 9 10 11 12 12 13 14 14 14 14 14 15 15
8 8 9 10 10 11 12 12 13 12 12 11 11 11 10 9 8 7 7 6 6 7 7 6 7 7 8 9 9 9 9 10 11 12 13 14 14 15 16 15 15 16 15
8 8 8 9 10 11 11 12 12 12 12 11 11 11 11 10 9 8 7 7 7 7 7 7 7 8 9 10 10 10 11 11 12 12 13 13 14 15 15 15 15 16 16
7 8 8 9 9 10 11 12 11 12 12 11 11 12 12 11 10 9 8 8 8 8 8 8 8 9 9 10 10 11 11 12 12 12 13 13 14 15 15 15 16 16 16
6 6 8 9 10 10 10 11 11 11 11 12 12 12 12 12 11 10 9 9 9 9 9 9 9 9 9 10 10 11 12 12 12 13 13 13 14 15 15 15 15 16 16
5 6 8 9 10 10 10 10 11 11 12 12 13 13 13 13 12 12 11 10 10 9 9 9 10 10 10 11 11 11 12 12 12 13 13 14 15 15 16 16 16 17 17
6 7 8 9 10 10 10 10 11 11 12 12 13 13 13 13 14 13 12 12 11 10 10 9 10 11 11 11 11 11 12 12 12 13 14 15 15 16 16 16 16 17 17
8 9 9 9 9 9 10 11 12 12 12 12 13 13 13 14 15 14 14 13 12 12 12 11 11 11 11 11 12 12 12 12 13 14 14 14 15 15 15 16 16 17 17
10 10 10 9 9 10 11 12 13 14 13 13 14 14 14 14 15 15 13 13 13 13 13 12 12 11 11 11 11 11 12 12 13 13 14 15 16 15 16 16 17 17 17
11 10 10 11 11 11 12 13 14 14 14 14 15 15 15 15 16 15 14 14 13 14 13 13 13 12 11 12 12 13 13 13 13 14 15 15 16 16 17 17 17 17 17
13 12 12 12 12 12 13 13 14 14 14 15 15 15 16 16 16 15 15 15 15 15 14 14 12 12 12 13 13 14 14 14 15 15 16 16 16 16 17 16 17 17 17
15 14 13 13 13 13 14 14 15 15 15 15 16 16 16 17 16 16 17 16 16 16 14 13 13 13 13 13 14 14 15 15 15 16 16 16 16 17 17 17 17 17 18
16 16 15 15 14 15 16 16 16 16 16 17 17 17 17 17 17 16 16 16 17 15 14 14 13 13 14 14 15 15 15 16 16 17 16 16 17 18 17 17 18 18 18
18 17 18 18 16 17 17 18 18 17 17 18 19 19 18 18 18 17 17 16 16 15 14 14 14 14 15 15 15 16 16 16 16 17 17 17 18 18 18 18 18 18 18
21 20 20 20 19 19 20 20 20 19 19 19 21 20 19 19 19 17 16 16 16 16 15 14 14 15 16 16 16 16 17 16 17 17 18 18 19 19 18 19 19 19 19
23 22 22 22 22 22 22 22 22 22 21 21 21 21 21 20 19 17 17 17 16 16 16 15 16 16 16 16 16 16 17 17 18 18 18 18 19 19 19 19 19 20 20
26 26 25 25 25 25 24 24 23 24 24 24 23 22 22 22 20 18 17 17 17 17 17 17 17 17 17 17 17 17 18 18 18 18 19 19 19 19 20 20 20 21 21
28 28 28 28 27 27 26 25 25 25 25 24 24 24 24 24 21 19 18 18 18 18 18 18 18 18 18 18 18 19 19 19 20 20 20 20 20 20 21 21 21 22 22
31 30 31 30 29 28 27 26 26 26 26 26 25 26 26 25 23 21 20 20 20 20 19 19 19 20 20 20 20 20 21 21 21 21 21 22 22 22 22 22 23 23 24
33 33 33 32 31 30 28 27 27 27 27 28 28 26 24 23 23 22 21 21 21 21 20 20 20 21 21 21 21 21 22 22 22 22 23 23 22 23 23 23 24 24 25
34 33 34 32 32 32 30 29 28 28 29 28 27 25 24 23 22 22 21 22 22 22 22 22 21 22 22 23 23 23 24 23 23 23 23 23 23 24 24 25 25 25 26
33 33 33 34 33 32 31 30 29 29 29 28 26 24 23 22 22 21 21 22 23 23 23 23 23 23 24 24 24 25 24 24 24 24 24 24 24 25 25 25 26 26 26

GEFSMW_500_meanwind_216.txt.gz
Wind_Speed
12 11 11 11 11 10 10 10 10 9 9 7 7 6 5 5 3 3 2 2 1 1 1 2 2 3 4 4 5 5 5 5 6 6 6 7 8 8 9 9 10 10 10
11 11 10 11 11 11 11 10 10 10 9 8 7 6 5 5 4 3 3 2 2 2 2 2 3 4 4 5 6 6 6 7 7 7 8 8 9 10 10 10 11 12 12
10 10 10 10 11 11 11 11 11 10 10 8 7 7 6 5 5 4 3 3 2 3 3 4 4 4 5 6 7 7 7 8 9 9 9 9 10 11 11 12 12 13 14
9 9 9 9 10 11 11 11 11 11 10 9 8 8 8 7 6 5 4 4 4 4 4 4 5 6 6 7 8 8 9 9 10 10 11 11 12 13 13 13 14 15 16
7 8 8 8 9 10 10 11 11 11 11 10 9 8 8 7 7 6 5 4 4 4 4 5 6 6 7 7 8 9 9 9 10 10 11 12 13 14 14 15 15 16 16
6 7 7 8 8 9 9 10 10 10 10 10 9 9 9 8 8 7 6 5 5 5 5 6 6 7 7 7 8 9 9 10 11 11 12 12 13 14 15 16 16 16 16
5 5 7 7 7 8 8 9 10 10 10 10 10 10 10 9 9 8 7 7 6 6 6 7 7 8 8 9 9 10 10 11 11 12 12 13 14 15 15 16 16 16 16
4 5 6 6 7 7 8 9 10 10 10 10 10 10 10 10 9 9 8 8 7 7 7 7 8 8 9 9 10 11 11 11 12 12 12 13 14 15 16 16 16 16 16
5 6 6 6 6 7 7 9 9 10 10 10 10 10 11 11 10 10 10 9 9 8 8 8 8 9 9 10 11 11 11 12 12 13 13 13 14 15 15 15 16 16 16
7 7 7 7 7 7 7 8 9 9 10 10 11 11 12 11 11 11 11 11 10 10 10 10 10 10 10 10 11 11 12 13 13 13 14 13 14 14 14 15 15 15 16
9 9 9 8 8 7 8 8 8 9 10 11 11 12 12 12 12 13 13 12 12 11 11 10 11 11 11 11 11 12 12 13 14 14 14 14 14 14 15 15 15 15 15
10 10 10 10 10 9 9 8 9 9 10 11 12 12 12 12 13 14 14 13 13 13 13 12 12 12 11 11 11 12 12 12 13 14 13 13 14 14 15 15 15 15 15
12 12 12 12 11 11 11 10 10 10 10 11 12 12 12 13 13 14 14 15 15 14 14 14 13 13 12 12 12 12 13 13 13 13 13 14 14 15 15 15 15 15 16
14 15 15 14 13 12 12 12 12 12 12 12 13 13 13 14 14 15 15 16 17 16 15 15 14 13 13 13 13 14 14 14 14 14 14 14 15 15 15 16 16 16 16
17 17 17 16 15 14 14 14 13 13 13 13 14 14 15 15 15 16 16 17 17 16 15 15 15 14 14 13 14 14 14 14 14 15 15 16 16 16 16 16 16 16 16
19 19 19 18 18 17 16 15 15 14 15 15 15 15 16 17 17 16 17 17 18 18 16 16 15 14 14 14 14 15 14 15 15 15 16 16 16 16 16 16 16 16 16
21 20 20 19 19 19 18 17 17 17 17 17 16 17 17 17 17 18 19 19 19 18 17 17 16 15 15 15 14 14 16 16 16 16 16 16 16 16 17 17 17 17 17
22 23 22 22 21 20 19 19 19 19 19 19 18 18 18 18 19 19 20 21 20 19 18 17 16 16 15 15 15 15 16 16 16 16 16 16 17 17 18 18 17 17 18
24 24 24 24 24 23 21 21 21 21 21 21 21 20 20 20 20 21 21 22 21 19 19 18 17 17 16 16 16 17 17 17 17 17 17 18 18 18 18 18 18 19 19
27 26 26 26 26 25 24 24 23 23 23 23 22 21 21 20 21 22 22 22 22 21 20 19 18 18 17 17 18 18 18 18 18 18 18 19 19 19 19 19 20 20 20
28 27 27 27 27 27 26 26 26 26 25 25 25 24 23 23 23 23 23 22 22 21 21 20 20 19 19 19 19 19 19 19 19 20 20 20 20 20 20 21 21 21 21
29 28 28 29 29 29 28 28 28 28 27 27 26 25 25 25 24 24 23 23 22 22 22 21 21 21 21 20 20 21 20 20 21 21 21 21 21 21 22 22 22 23 23
31 30 30 31 30 30 30 30 30 30 29 29 28 27 27 26 26 26 26 24 24 24 24 23 23 22 22 21 21 22 22 21 21 22 22 23 23 22 22 22 23 23 24
33 32 32 32 31 30 31 31 32 32 31 30 29 29 30 29 28 27 27 26 26 25 24 23 22 22 23 22 22 23 22 22 23 23 23 22 22 22 23 23 23 24 25
34 34 34 34 33 33 33 33 34 33 33 32 32 31 31 30 29 29 30 29 27 25 25 24 23 23 23 23 23 24 24 24 24 24 24 24 24 24 24 24 25 25 26
34 34 34 34 34 34 34 34 34 34 34 34 33 32 32 31 31 31 30 29 28 27 25 24 24 25 25 25 25 25 25 25 25 25 25 25 25 26 26 27 27 27 26

GEFSMW_500_meanwind_222.txt.gz
Wind_Speed
12 13 14 14 14 14 14 13 12 11 9 8 7 7 6 6 6 5 4 3 3 3 3 3 4 5 5 5 5 6 7 7 7 7 7 7 7 8 9 9 9 9 10
12 12 13 13 14 14 14 13 13 12 11 9 8 8 7 7 7 6 6 5 4 4 4 4 4 5 6 6 7 7 8 8 8 8 8 9 9 10 11 11 11 12 13
12 12 12 12 13 14 13 13 13 13 12 11 10 9 9 8 7 7 7 6 5 5 5 6 6 6 6 7 7 8 8 9 9 9 10 10 10 11 12 13 13 13 14
11 11 11 11 12 12 13 13 14 14 13 11 10 10 9 9 8 8 8 7 7 6 6 6 6 7 7 7 8 8 9 10 10 10 11 11 12 12 13 13 14 14 15
9 10 10 11 11 11 12 13 13 13 13 12 12 11 10 9 9 9 8 8 8 8 7 7 7 8 8 8 8 9 10 10 11 11 12 12 12 13 13 14 15 16 16
9 9 10 10 10 10 11 12 13 14 13 13 13 12 11 10 9 9 9 8 8 8 8 8 9 9 9 9 10 10 10 11 11 12 13 13 13 14 14 15 16 16 17
9 9 9 9 10 10 11 12 13 14 13 13 13 13 12 11 10 10 10 10 9 9 9 10 10 10 10 10 11 11 11 11 12 13 14 14 14 15 15 16 16 16 16
8 9 8 9 9 10 11 12 12 13 13 13 13 13 12 12 11 11 11 11 11 11 11 11 10 11 11 11 11 11 12 12 13 13 14 15 15 16 16 17 17 17 17
8 8 9 9 9 10 11 11 12 13 14 14 13 13 12 12 12 13 13 13 13 13 13 13 13 12 12 12 12 12 12 13 13 14 15 15 16 16 16 16 16 16 15
10 10 10 10 10 10 11 11 12 13 14 14 14 14 13 13 13 13 13 14 14 15 14 13 14 14 14 13 13 13 13 14 14 15 15 15 15 16 16 16 16 16 15
12 11 10 11 11 11 11 12 13 13 13 14 14 14 14 14 14 14 15 15 15 16 15 15 15 14 14 14 13 13 14 14 14 15 15 15 16 16 16 16 16 16 16
13 13 12 12 12 12 13 13 13 14 14 14 15 15 14 14 14 14 15 16 16 17 17 16 16 16 15 14 14 14 14 15 15 15 15 15 15 15 15 15 15 16 16
15 14 13 14 14 14 14 13 14 15 15 15 15 15 15 15 15 15 16 17 17 18 18 18 17 17 16 16 16 15 15 16 16 15 15 15 15 15 15 15 15 16 16
16 15 16 16 17 16 16 15 15 16 16 16 16 16 16 17 17 17 18 18 19 19 19 20 19 18 17 17 18 17 17 17 16 16 15 15 15 15 15 16 16 16 16
18 18 18 17 18 19 18 17 17 17 17 17 17 17 18 18 18 19 19 20 20 20 21 21 21 21 20 19 19 18 17 17 16 16 16 16 15 15 16 16 16 16 16
21 20 20 19 20 20 20 20 20 20 20 19 18 18 19 19 20 20 21 21 21 21 21 21 22 22 22 20 18 18 17 17 16 16 16 16 16 16 16 17 16 16 16
23 23 22 22 22 22 21 21 21 21 20 19 19 20 20 20 21 21 22 22 23 22 22 22 22 22 21 20 20 19 18 17 17 17 17 16 17 17 17 17 17 17 17
26 25 24 24 23 23 23 22 22 22 21 21 21 21 21 21 23 23 23 23 23 23 23 23 23 22 22 21 21 20 19 19 19 18 18 18 18 18 18 19 19 19 19
29 27 26 26 26 25 24 24 23 23 23 23 23 23 23 23 24 24 24 24 23 24 24 24 24 23 23 22 21 21 21 20 20 20 20 20 19 20 20 20 20 19 19
30 28 28 28 28 27 26 26 25 24 24 24 24 24 24 25 25 25 25 25 25 25 25 25 25 24 24 23 22 22 21 21 21 21 21 21 21 21 21 21 21 20 20
31 30 29 30 29 29 29 28 28 27 27 27 26 26 26 26 26 27 26 26 27 27 27 27 26 26 25 24 23 22 22 21 21 22 22 22 22 22 21 21 21 21 22
32 32 31 31 31 30 30 30 31 30 30 30 29 28 28 28 28 28 28 28 28 29 29 28 27 26 26 24 23 23 23 22 22 22 22 22 23 22 21 22 22 23 23
33 33 32 32 32 32 32 32 32 32 32 32 31 31 31 30 30 30 30 29 29 29 29 28 27 27 26 26 25 24 24 23 23 22 23 23 23 22 22 22 23 24 24
35 34 35 35 35 34 34 32 32 33 33 33 33 33 32 32 32 32 32 31 31 31 30 29 28 28 27 27 26 25 25 24 23 23 24 24 23 23 24 24 24 25 25
36 37 37 36 35 35 35 33 33 33 34 34 34 33 33 33 33 33 33 32 31 31 31 31 31 30 29 27 27 27 26 25 25 25 25 25 25 25 25 25 25 25 26
37 37 37 36 36 35 35 35 35 35 35 34 34 34 34 35 34 34 33 32 32 32 32 32 32 31 31 29 28 28 28 27 27 28 27 27 26 26 26 27 26 26 27

GEFSMW_500_meanwind_228.txt.gz
Wind_Speed
15 15 15 15 15 15 15 15 14 14 12 11 10 9 8 7 7 6 5 4 4 3 3 2 3 3 4 4 4 5 5 6 6 7 7 8 9 9 9 9 9 10 10
14 14 14 14 14 15 14 14 14 14 13 12 11 10 9 8 7 6 6 5 5 4 4 4 4 4 5 5 5 6 6 7 7 8 8 8 9 9 8 9 9 10 12
12 12 12 13 13 14 14 14 14 14 14 13 12 11 9 8 8 7 7 6 5 5 4 4 5 5 6 6 7 7 7 7 8 8 9 9 9 9 10 11 11 12 12
11 11 11 12 12 12 13 13 14 13 13 13 12 11 10 9 8 8 7 7 7 6 6 5 5 6 7 7 8 9 9 9 9 9 9 10 10 11 11 12 12 13 14
8 9 10 10 10 11 12 13 13 14 14 13 12 11 10 10 9 8 8 7 7 7 7 7 6 6 7 8 8 9 9 9 10 10 11 11 11 12 13 13 13 14 14
5 6 8 8 9 10 11 12 12 13 14 13 13 12 11 10 10 9 9 8 8 8 8 8 8 8 8 8 9 9 9 10 10 11 12 12 12 12 13 13 14 14 14
4 5 6 7 7 8 9 10 11 12 13 13 13 12 11 10 10 10 10 9 9 9 10 9 9 9 9 9 9 10 11 11 11 12 12 12 12 13 13 14 14 14 14
2 3 4 5 6 7 8 9 10 11 12 12 12 12 11 10 10 10 10 10 10 10 10 11 10 10 10 10 10 11 11 11 11 12 12 12 12 13 13 14 15 15 14
2 2 3 4 4 6 6 7 9 10 11 12 12 12 11 10 10 10 11 11 11 11 12 12 12 12 11 11 10 10 11 11 11 12 12 12 13 13 14 14 14 14 14
4 3 3 4 5 6 5 7 8 9 10 11 12 12 12 12 11 11 11 12 13 13 13 13 13 12 12 11 11 11 11 12 12 12 13 13 14 14 14 14 14 14 14
7 5 5 5 5 6 5 6 7 8 9 10 10 11 12 12 12 12 12 13 13 13 14 14 13 13 13 12 12 12 12 12 12 13 13 14 14 14 14 14 14 14 14
10 8 6 7 7 6 6 6 7 8 9 10 10 10 11 12 12 13 13 13 13 13 14 14 14 14 14 14 13 13 13 13 13 13 14 14 14 14 14 14 13 13 14
12 11 9 9 8 9 9 9 9 9 10 10 11 11 11 12 13 13 13 14 14 14 14 15 15 15 15 15 14 14 14 14 14 14 14 14 15 15 14 14 14 13 13
13 13 12 11 10 11 11 11 11 11 11 11 12 12 12 13 13 14 14 14 15 15 15 15 15 16 16 15 15 15 15 15 15 15 15 15 15 15 15 15 14 14 14
17 15 15 14 13 13 13 13 13 13 13 13 14 14 14 14 14 15 15 16 16 16 16 16 16 16 17 16 15 15 15 15 15 16 16 16 15 15 15 15 15 15 15
18 17 17 16 14 14 14 15 15 15 15 15 15 15 15 16 16 17 17 17 17 18 18 18 18 18 18 17 17 16 17 17 17 16 15 15 15 15 15 15 15 15 15
20 19 18 18 17 17 17 17 18 18 18 17 17 17 17 18 18 19 18 18 18 19 19 19 19 18 18 18 18 18 18 18 17 16 15 15 14 14 14 15 14 14 15
22 21 21 22 21 20 20 20 21 21 20 20 20 20 20 20 20 20 20 20 20 20 21 20 20 20 20 20 19 19 19 19 18 16 15 15 15 14 14 15 15 16 16
24 24 23 23 23 23 23 23 23 23 23 23 23 23 23 22 22 22 22 21 21 22 23 22 22 22 23 22 21 20 20 19 17 16 16 16 16 15 16 16 16 17 18
27 27 26 26 27 27 26 26 26 27 26 26 26 26 25 25 24 23 24 24 24 24 24 24 24 24 24 22 22 21 20 20 18 18 17 16 17 17 18 18 18 18 18
30 30 30 30 30 30 30 30 30 29 29 29 28 28 28 27 27 26 25 26 26 25 26 26 26 25 24 24 24 23 22 21 20 19 18 18 18 19 19 20 20 20 20
33 33 34 33 32 32 33 32 32 31 31 31 30 29 29 29 28 28 28 28 28 28 27 27 27 27 26 25 25 25 24 23 22 22 21 20 20 20 21 21 22 22 22
34 35 35 35 34 34 34 33 33 33 32 32 31 31 30 30 30 30 30 29 29 29 29 29 29 28 29 28 27 26 26 25 25 24 23 23 23 23 23 23 23 23 24
36 35 35 35 35 35 34 34 34 33 33 32 32 32 32 32 31 30 30 30 30 30 30 30 30 30 30 29 28 28 28 27 26 25 25 25 26 26 26 25 25 25 25
36 36 36 37 36 35 35 34 34 34 34 33 33 33 33 31 31 31 32 32 32 31 31 32 31 31 30 30 29 29 28 28 28 27 27 27 27 28 27 27 27 26 26
37 37 37 36 37 36 35 34 35 34 34 33 33 32 32 32 32 32 32 32 33 33 33 33 32 32 31 32 31 30 30 30 29 29 28 28 29 29 29 28 27 27 27

GEFSMW_500_meanwind_234.txt.gz
Wind_Speed
12 12 13 13 13 13 13 14 13 13 12 11 10 9 9 8 7 7 7 6 5 4 4 3 3 3 3 3 3 4 5 6 6 7 7 7 8 9 9 10 10 10 10
11 11 11 12 12 12 13 14 13 12 12 11 10 10 9 8 8 7 7 6 6 5 5 4 4 4 4 4 4 5 6 7 7 8 8 9 9 10 10 10 11 11 12
9 9 10 11 11 11 12 12 13 12 12 12 11 10 10 9 8 8 7 7 6 6 6 5 5 5 5 5 5 6 7 8 8 9 10 10 11 11 12 12 12 11 12
6 7 8 9 9 10 11 11 11 11 11 11 11 10 10 9 8 8 7 7 6 6 7 7 6 6 6 6 6 7 8 8 9 10 10 11 12 13 13 13 14 13 13
3 4 5 7 7 8 9 9 10 10 10 10 10 10 9 9 8 8 8 7 7 7 7 8 8 7 7 7 7 7 8 9 10 10 11 12 12 13 14 14 15 15 15
2 2 3 5 5 6 7 7 8 8 9 9 9 9 9 8 8 8 8 7 7 8 8 8 8 8 8 8 8 8 9 10 10 11 12 13 13 14 14 14 15 16 16
3 2 2 2 3 4 5 6 7 7 7 8 9 8 8 8 8 8 8 8 8 8 8 9 9 10 10 10 9 9 10 11 12 12 13 13 14 14 15 15 15 15 16
5 3 2 1 2 2 3 4 5 5 6 7 8 8 7 7 7 8 9 9 9 9 9 9 10 10 11 11 11 11 12 12 13 13 14 14 15 15 15 15 16 16 16
6 6 5 4 3 3 3 3 3 4 5 6 7 8 8 7 8 8 10 10 11 11 11 11 10 11 12 12 12 13 13 14 14 14 15 15 15 15 16 16 16 16 16
8 8 7 6 5 4 5 4 4 5 5 6 7 8 8 9 9 9 10 11 11 12 12 12 11 11 12 12 13 13 14 15 15 15 15 15 15 15 16 16 17 17 17
10 9 9 8 7 6 6 6 7 7 7 7 7 8 9 9 10 11 11 12 12 13 13 13 13 13 13 14 14 14 15 15 16 15 15 15 15 16 16 17 17 17 17
10 10 11 10 10 10 8 8 9 10 10 9 9 9 10 11 11 12 13 13 14 14 14 13 13 13 14 14 14 15 15 16 16 16 16 16 16 16 17 17 18 18 18
12 11 11 12 12 12 12 11 11 11 11 12 12 12 12 13 13 13 13 14 14 15 14 13 13 13 14 14 15 16 16 17 17 17 17 17 17 17 18 18 19 19 18
15 14 13 13 14 14 13 13 13 13 14 14 15 14 14 15 15 15 14 15 15 16 16 16 16 15 15 16 16 17 18 18 18 17 17 17 18 18 18 19 19 18 18
17 16 16 15 15 15 15 15 15 15 15 15 16 16 17 17 17 16 16 17 17 17 17 17 17 17 17 18 18 18 18 19 19 18 18 18 18 18 18 18 17 17 18
18 18 18 18 18 17 16 17 17 16 16 17 18 19 18 18 18 18 18 18 19 19 19 18 19 18 19 20 20 20 19 20 20 20 19 19 19 19 18 17 16 17 17
18 19 20 21 21 20 19 18 19 19 19 19 20 21 21 21 21 21 21 20 20 20 20 21 21 20 20 20 21 21 21 21 21 21 21 21 20 20 19 18 17 17 16
22 22 21 22 22 21 21 21 22 22 22 22 23 23 23 23 23 23 23 23 23 22 22 22 22 22 22 22 22 23 23 22 22 22 23 23 22 21 20 19 18 17 17
25 25 24 23 23 23 23 23 24 24 25 25 24 25 25 26 25 25 26 26 25 24 24 24 23 23 24 24 24 24 24 24 23 23 24 24 23 23 22 20 19 18 18
28 27 27 26 26 26 27 27 28 28 27 27 27 27 28 28 27 28 28 27 26 26 26 26 26 26 26 26 26 26 25 25 24 25 25 25 25 24 23 21 20 20 20
30 30 30 30 29 28 29 29 30 30 30 29 29 29 29 29 29 30 29 28 28 28 27 27 27 27 27 27 27 28 27 26 26 25 26 26 24 24 23 23 21 21 22
31 31 31 31 31 31 31 31 32 31 31 30 30 31 31 31 31 32 31 30 29 29 29 30 29 29 29 29 28 28 29 28 27 27 27 26 25 25 25 24 24 24 23
32 33 34 33 33 33 33 33 33 32 32 31 32 32 33 33 33 33 32 32 32 32 31 31 31 30 31 30 29 30 30 30 29 28 27 27 26 26 26 26 26 26 26
34 34 35 36 35 35 35 34 34 34 33 33 34 34 34 35 34 33 32 32 32 33 32 32 32 32 32 31 31 31 31 31 30 29 29 28 27 28 27 27 28 28 28
36 36 36 37 36 36 36 35 35 35 35 35 36 36 36 36 35 34 34 34 33 33 33 33 34 33 32 31 31 31 31 31 30 31 30 29 29 30 30 30 30 30 29
37 37 38 39 39 38 37 36 37 37 36 36 36 36 36 35 34 34 33 34 33 33 34 34 33 32 32 32 32 32 32 31 31 31 31 31 30 30 31 31 31 31 30